GFSWCAN_850_thetae_000.txt.gz
Theta_e
314 314 314 313 315 313 313 311 311 312 312 313 314 315 315 315 317 318 319 319 320 317 313 314 314 312 312 311 311 308 311 310 309 313 314 311 313 311 312 311 312 312 310 311 310 312 312 312 314 316 311 311 310 311
314 315 314 313 314 314 311 310 310 310 311 312 313 314 315 315 317 318 318 319 319 320 315 314 314 313 314 315 314 308 312 309 310 309 308 307 310 306 308 314 309 314 312 313 311 310 311 313 312 311 312 311 311 311
314 314 315 313 314 314 310 309 309 308 309 309 311 313 313 315 317 318 318 318 318 318 316 317 316 316 314 315 315 313 312 312 312 313 308 308 312 306 310 310 312 311 310 312 313 311 309 311 311 311 311 311 311 310
314 313 315 313 314 314 310 309 309 308 307 307 308 311 312 313 315 317 318 318 318 317 313 314 315 315 316 315 315 316 315 314 313 313 312 312 315 309 310 310 309 309 311 310 310 310 310 310 310 310 310 310 309 309
313 313 315 313 314 313 310 309 309 308 306 306 307 309 311 313 313 315 316 316 316 316 314 314 313 313 313 315 313 314 313 314 312 311 310 312 311 311 307 306 308 309 309 310 310 309 310 309 309 309 309 309 308 308
313 313 315 313 314 313 310 310 309 308 307 306 307 308 309 311 313 313 312 313 314 314 313 307 311 311 312 313 314 313 313 313 312 311 309 310 310 310 308 310 308 309 311 311 310 310 309 309 309 308 308 307 306 306
313 314 315 313 314 313 310 310 309 308 308 307 306 306 307 310 310 311 311 311 312 313 311 307 309 309 312 313 313 312 312 312 312 310 309 309 310 309 307 309 308 310 310 310 310 309 308 308 307 307 307 305 304 304
307 309 312 314 314 311 310 309 309 308 307 307 306 307 307 308 310 310 311 311 312 312 311 305 307 308 310 309 309 310 311 311 311 309 309 309 309 309 308 307 308 309 308 308 308 309 308 307 306 305 302 301 302 301
301 304 305 306 308 309 309 309 309 308 307 306 306 306 306 308 308 309 309 310 311 310 308 306 307 309 307 307 308 308 308 309 309 309 308 308 308 309 307 307 308 308 308 307 308 308 307 305 301 300 299 300 301 300
299 302 305 306 306 306 306 307 308 306 305 305 305 307 306 306 306 308 309 309 309 309 308 306 307 307 306 307 306 305 304 306 308 307 307 307 307 307 307 307 308 308 307 306 307 305 302 299 299 299 300 301 300 299
296 299 301 302 305 306 305 306 305 305 305 305 306 304 305 305 305 305 303 304 305 304 305 306 306 306 305 306 306 304 303 303 303 300 305 304 301 301 303 304 305 305 305 303 300 299 299 299 299 300 299 299 299 299
295 296 298 300 301 303 304 304 305 305 305 306 305 304 305 304 302 301 302 301 302 302 303 304 304 305 305 305 303 302 303 302 303 301 303 302 300 302 302 301 301 300 299 298 299 299 299 298 298 299 299 299 299 298
294 295 297 298 299 301 302 302 304 305 305 303 302 303 302 301 300 300 299 300 300 299 302 302 302 304 303 303 302 302 303 303 300 302 300 298 300 302 303 302 301 299 299 299 300 300 298 297 297 298 298 298 296 291
294 295 296 296 298 299 300 302 304 303 301 302 301 301 299 298 297 295 294 294 300 302 302 303 301 301 302 301 301 302 301 300 301 301 298 297 301 302 302 301 299 298 298 299 300 299 296 296 296 296 296 293 289 288
294 294 295 295 296 297 299 300 302 301 300 301 300 300 298 294 295 295 297 298 299 302 302 300 299 299 299 299 300 300 300 301 300 299 298 301 301 301 300 300 300 299 298 299 299 299 296 295 295 295 294 290 287 287
293 294 294 295 295 296 297 299 299 300 300 299 298 294 296 295 295 295 296 296 300 301 300 299 298 296 298 297 299 298 299 299 299 296 301 301 300 300 300 300 300 299 297 296 299 298 297 295 295 294 292 289 287 287
293 293 293 295 295 296 297 297 299 299 299 299 296 297 298 298 297 298 298 299 300 300 291 296 291 292 296 297 296 296 299 298 300 301 301 301 300 300 300 300 299 298 297 297 298 298 295 294 294 293 293 291 288 287
293 294 293 294 294 295 296 297 298 298 298 298 294 298 299 299 298 298 299 299 300 298 297 294 294 292 292 294 293 295 299 301 300 301 300 299 299 299 299 299 299 298 297 296 298 296 293 293 294 294 292 290 289 287
292 293 293 294 294 295 296 296 297 297 297 298 297 299 299 298 299 300 300 299 299 299 299 296 296 291 293 293 295 298 299 299 299 299 299 299 299 299 298 298 297 296 296 296 295 292 292 292 293 291 290 290 288 287
292 292 293 294 295 295 296 296 296 297 295 297 298 298 298 298 298 298 298 299 298 298 295 293 294 295 298 298 299 299 299 299 298 298 298 298 297 297 297 297 296 295 295 295 293 291 291 291 291 290 289 288 287 285
292 292 293 293 295 295 295 295 295 296 296 295 295 296 295 298 298 298 297 297 298 297 296 297 298 298 298 298 298 298 297 297 297 296 296 296 296 296 296 295 294 294 294 292 291 290 289 289 288 287 286 285 284 283
291 293 293 293 293 294 294 294 295 295 294 294 296 294 292 292 293 295 296 297 297 297 297 297 297 297 297 297 296 296 295 295 295 294 294 294 295 294 293 293 293 293 292 291 289 288 288 287 286 285 284 283 282 282
291 291 292 292 292 293 292 293 293 292 291 292 293 292 292 292 293 294 294 294 295 295 296 296 296 296 295 295 294 294 293 293 293 292 292 292 292 291 291 292 292 291 290 289 288 287 286 284 284 283 282 281 281 280
291 291 291 291 291 291 291 292 292 291 290 291 292 290 290 290 292 291 292 290 293 294 294 294 293 293 293 293 293 292 291 291 291 290 290 290 289 290 290 289 289 288 287 286 285 284 283 282 282 281 281 280 279 279
290 289 290 286 289 289 289 289 290 290 290 287 285 286 286 288 287 288 286 287 290 291 291 291 291 291 291 291 290 289 289 289 289 289 289 288 288 288 287 287 286 286 284 283 282 282 281 281 280 280 279 278 278 278
290 289 288 280 287 283 287 289 289 289 285 281 282 284 285 284 286 287 284 287 287 289 289 289 289 289 288 288 287 287 287 287 287 287 287 287 286 286 286 286 284 282 282 282 281 281 280 279 279 278 278 278 277 277
284 285 289 289 289 287 284 286 288 283 280 282 284 284 282 284 285 284 286 286 287 287 287 287 288 287 287 286 285 285 285 285 285 285 285 285 284 284 282 282 282 282 281 281 280 279 279 278 278 278 277 277 277 277
288 289 285 289 288 287 280 279 278 281 281 284 283 280 284 285 284 285 285 285 286 287 287 287 286 286 285 284 284 284 284 283 283 283 283 283 282 282 281 281 281 281 280 279 279 278 277 277 277 277 277 277 277 276
288 289 289 287 285 285 282 282 282 288 288 287 282 281 281 285 285 285 285 285 285 285 286 285 285 284 284 283 282 282 283 282 282 282 282 281 281 280 280 280 279 279 278 278 277 277 276 276 276 276 276 276 276 276
287 289 285 280 281 284 287 288 288 288 288 288 287 285 284 284 283 283 284 284 284 284 283 283 282 282 281 281 281 281 281 281 281 281 281 281 280 280 279 279 278 277 277 277 277 277 276 276 276 276 276 276 276 276
288 289 285 284 280 285 286 286 287 287 286 286 285 285 284 283 281 281 282 281 281 281 281 280 280 279 279 280 280 280 280 280 281 281 281 280 279 279 278 277 277 276 277 276 276 276 276 276 276 276 276 276 276 276
287 287 280 278 277 282 283 283 284 284 282 282 281 281 279 280 279 278 277 278 278 278 278 278 278 279 279 279 279 279 279 280 279 279 279 278 277 277 277 276 276 276 276 276 276 275 275 275 275 275 275 275 275 275
283 283 282 281 279 280 281 282 281 278 278 278 277 277 278 279 278 276 275 275 276 276 277 277 277 278 278 278 278 279 278 278 278 277 276 276 276 276 276 276 276 276 276 275 275 275 275 275 275 275 274 274 275 275

GFSWCAN_850_thetae_003.txt.gz
Theta_e
303 305 312 314 314 314 312 314 313 312 314 313 314 315 315 316 317 318 318 319 319 313 312 313 312 311 310 310 311 307 310 309 307 313 314 313 313 310 312 310 309 310 310 311 311 314 316 311 313 314 310 309 310 310
302 304 306 314 314 313 313 314 312 312 313 312 313 314 315 315 315 317 318 319 319 317 313 313 312 313 314 314 311 307 312 308 310 308 307 307 310 307 309 315 308 315 311 312 311 311 310 311 311 311 311 310 310 310
300 302 305 312 314 313 313 315 311 311 311 312 312 313 314 314 315 317 318 318 318 317 314 314 314 313 314 314 312 313 311 312 313 312 306 306 311 305 310 309 310 309 308 311 312 309 309 310 311 311 311 311 310 310
300 304 305 310 314 314 314 314 310 310 310 310 309 311 313 313 314 316 317 318 318 317 313 313 314 315 315 314 315 316 315 313 313 314 310 310 314 307 308 309 308 308 309 310 310 309 309 309 310 310 310 310 309 309
300 304 306 311 314 314 314 314 310 309 308 308 307 308 310 312 313 315 317 318 317 316 314 313 312 312 314 314 314 314 314 314 313 311 310 312 311 311 306 305 309 308 308 310 310 309 309 308 309 308 308 308 308 308
300 305 307 313 313 313 314 314 310 309 307 307 307 308 310 312 313 314 314 315 315 314 314 310 311 311 313 313 312 313 314 314 312 311 309 309 310 308 307 307 306 308 310 310 309 310 309 309 309 308 307 307 306 305
299 307 310 313 313 314 315 313 310 309 307 307 307 308 309 311 312 311 311 311 314 313 311 309 308 310 312 313 312 312 313 312 312 309 309 309 309 308 305 308 307 308 309 309 309 309 308 308 307 307 306 305 303 301
298 305 309 312 313 314 315 313 311 309 307 307 307 308 309 310 310 310 310 311 312 312 310 305 307 307 310 309 309 311 311 311 310 308 309 308 308 307 307 305 307 307 308 308 308 308 308 307 306 306 303 300 299 299
297 299 305 310 312 313 315 312 310 309 307 307 307 307 308 309 309 308 310 312 312 310 306 306 307 308 308 307 308 308 308 309 308 309 308 307 306 306 305 306 307 308 308 307 307 307 307 306 304 300 299 299 299 299
295 298 301 305 305 307 311 311 310 308 307 306 307 306 306 307 308 308 309 311 309 309 307 303 307 306 307 306 305 305 304 306 308 307 307 307 307 307 307 307 307 307 307 306 306 306 305 302 300 299 299 299 299 299
294 295 299 302 305 306 306 307 308 307 307 307 306 305 306 307 307 305 304 305 304 300 304 305 305 305 305 306 305 303 302 302 303 304 307 304 298 298 302 304 305 306 307 306 303 300 299 300 300 299 298 298 299 299
294 295 297 300 302 306 306 306 306 306 307 306 305 305 305 305 302 298 303 301 302 301 302 304 304 305 304 304 303 301 303 301 302 301 303 301 295 302 301 302 303 303 302 299 300 301 301 300 298 297 297 298 298 299
294 294 296 298 300 303 306 304 304 305 306 305 304 304 303 301 301 300 298 300 300 299 303 303 303 304 304 302 301 301 302 302 300 301 301 295 299 301 302 300 299 299 299 300 300 300 300 299 297 296 296 297 298 298
294 294 295 296 298 300 303 304 302 304 302 301 300 301 302 300 297 295 294 295 298 301 302 303 302 301 302 301 302 303 301 300 298 295 294 291 300 301 301 300 299 299 298 298 298 299 300 300 299 297 295 295 296 295
293 294 294 295 297 298 300 301 302 301 301 300 301 303 300 293 294 294 296 298 300 302 302 301 299 300 298 300 299 301 301 301 297 295 292 300 301 301 300 299 299 299 299 299 298 297 299 299 298 297 295 294 294 291
293 294 294 294 296 296 298 299 299 299 300 299 298 295 295 294 294 294 295 298 301 301 302 300 296 297 299 299 301 301 299 296 294 290 301 301 300 300 299 299 299 299 299 299 298 297 297 298 298 296 295 294 293 290
293 293 293 294 295 295 296 297 298 299 299 298 297 296 297 296 296 296 297 299 301 301 294 295 293 295 295 296 296 295 296 294 299 301 301 300 300 300 299 299 299 299 299 299 298 297 296 297 297 295 293 293 292 289
293 293 293 293 294 295 296 297 298 298 298 298 296 295 297 297 297 298 299 300 300 298 297 292 293 295 294 295 293 293 299 300 300 301 302 301 300 299 299 299 299 298 298 298 297 296 296 296 295 292 293 293 291 289
292 293 293 293 294 295 296 296 297 297 297 297 297 299 298 297 298 299 300 300 300 299 297 294 290 291 293 292 291 298 299 299 299 299 299 298 298 297 297 297 297 297 297 296 296 295 295 294 292 292 292 291 290 289
292 292 293 293 294 295 295 296 296 296 296 296 298 297 297 296 297 297 298 299 298 298 291 290 293 295 297 298 298 299 298 298 298 297 297 296 296 296 296 296 296 296 296 295 294 294 293 291 291 291 290 289 288 287
291 292 292 292 293 295 295 295 295 295 296 294 295 297 295 296 296 297 297 298 298 296 291 296 296 297 297 297 297 297 297 296 296 296 295 295 294 294 295 295 295 294 293 293 293 292 291 290 289 288 287 287 286 285
291 292 293 293 293 294 294 294 295 294 295 294 294 294 293 293 294 296 296 297 297 297 297 297 297 297 297 297 296 296 295 294 294 293 293 293 293 294 293 293 292 291 292 292 291 290 288 287 287 286 285 284 283 282
291 291 292 292 292 293 292 293 292 292 293 292 293 293 292 292 293 296 295 295 296 296 296 297 297 296 295 294 293 293 293 293 293 292 292 292 291 291 291 291 291 291 291 290 288 288 287 286 285 284 283 282 282 281
291 291 291 291 291 291 291 291 291 290 291 292 292 290 289 289 293 292 291 291 293 293 294 294 294 293 292 292 292 291 291 291 291 291 290 290 290 289 289 289 289 289 288 287 286 286 284 283 282 282 281 281 280 279
290 287 289 286 289 287 288 287 288 289 290 289 289 288 287 289 290 289 286 288 289 290 290 290 291 291 291 290 290 289 289 289 289 288 289 289 288 288 288 287 287 286 286 284 283 283 282 281 281 281 280 279 278 278
287 288 282 278 284 284 288 286 288 289 288 288 286 284 285 287 287 287 285 287 287 288 289 289 289 289 289 288 288 288 287 287 287 287 287 287 286 286 286 286 285 284 283 282 282 281 281 280 280 279 278 278 277 277
280 283 288 288 288 287 284 286 287 286 285 286 283 283 284 287 286 284 286 286 287 287 287 288 288 288 288 287 287 286 286 286 286 285 285 285 285 284 284 283 282 282 281 281 281 280 280 279 278 278 278 277 277 277
287 287 284 289 286 286 280 279 279 282 282 284 284 282 284 285 285 285 286 286 287 287 288 287 287 287 286 286 285 285 284 284 284 283 283 283 283 283 282 282 281 281 280 280 279 279 278 278 277 277 277 277 277 276
288 287 288 287 284 284 281 281 281 287 288 287 282 281 280 285 286 286 286 287 286 286 286 286 286 285 284 284 283 283 282 282 282 282 282 282 282 281 281 280 280 280 279 279 278 277 277 277 276 276 276 276 276 276
287 287 284 282 281 284 286 288 288 287 287 288 287 286 285 285 284 285 285 285 285 285 285 285 285 284 283 282 282 281 281 281 281 281 282 282 281 281 279 279 279 278 278 277 277 276 276 276 276 276 276 276 276 276
287 287 284 283 278 284 285 286 286 286 286 286 286 285 284 283 282 282 283 283 283 283 283 282 282 281 281 280 280 280 280 280 281 281 281 281 280 279 278 278 277 277 276 276 276 276 276 276 276 276 276 275 275 275
286 288 284 279 279 282 283 284 284 284 282 283 282 282 281 281 280 279 278 279 279 280 279 279 279 279 279 279 279 279 279 280 280 280 280 279 278 278 277 276 276 276 276 276 276 276 276 276 275 275 275 275 275 275
283 283 281 280 278 278 281 282 281 278 278 278 277 277 278 280 278 276 276 276 276 276 277 277 277 277 278 278 278 279 278 278 278 277 277 277 277 277 276 276 276 276 276 276 276 276 276 275 275 275 275 275 275 274

GFSWCAN_850_thetae_006.txt.gz
Theta_e
297 298 300 301 304 309 314 315 314 313 312 311 312 313 313 315 316 317 316 317 318 312 312 312 311 310 309 309 307 306 309 309 308 313 314 312 312 311 312 310 309 310 310 311 311 314 316 310 312 314 310 310 310 310
296 297 299 300 302 305 315 313 313 313 313 311 311 312 314 315 315 317 317 318 316 313 312 311 312 312 313 313 310 306 310 307 309 309 308 307 310 307 310 315 308 313 310 311 311 312 309 310 311 311 311 310 310 310
296 297 298 299 302 305 313 314 313 314 312 310 311 312 314 315 314 316 317 317 317 314 312 313 313 312 313 313 311 313 311 311 312 311 306 307 312 307 312 311 310 309 308 311 311 310 309 310 310 310 310 310 310 310
295 296 298 301 302 305 313 314 313 314 311 311 310 311 313 314 314 315 317 317 317 316 312 312 314 314 313 314 315 315 315 314 313 313 309 310 312 306 307 308 309 307 308 309 309 308 309 309 310 310 310 310 309 309
295 296 298 302 303 305 312 313 313 314 310 310 310 310 312 313 313 315 316 317 317 316 314 312 312 313 314 313 315 314 314 314 313 310 308 310 309 308 304 306 309 306 308 310 310 309 309 309 309 309 309 308 308 307
295 296 297 304 305 307 313 313 314 313 309 309 309 309 311 312 313 314 316 316 316 316 314 311 311 312 312 311 312 312 313 313 312 310 307 309 310 308 304 307 306 309 310 309 309 309 309 309 308 308 308 307 306 304
295 295 296 305 307 309 313 314 314 310 309 308 307 309 310 311 312 312 312 314 314 313 312 308 308 310 312 312 312 313 313 312 311 309 307 309 309 308 305 307 306 307 309 309 309 308 307 307 307 306 306 305 302 300
294 295 296 303 308 311 313 313 313 309 308 307 308 308 309 310 311 310 310 314 313 311 310 305 307 308 310 309 310 311 311 311 309 308 309 308 308 307 307 304 306 307 308 307 308 308 308 307 306 305 303 300 300 300
294 295 296 301 304 311 313 313 310 309 307 307 308 309 310 310 309 309 310 311 311 311 305 305 306 307 308 307 308 307 309 309 308 309 308 307 307 304 304 305 306 307 307 307 306 307 306 306 303 299 299 299 299 299
294 295 295 300 305 309 312 312 307 307 307 307 308 307 307 308 308 309 310 311 311 309 308 303 306 307 307 306 305 305 305 306 308 308 307 305 303 306 307 307 307 307 307 307 306 306 305 300 300 300 299 299 298 298
294 295 295 297 302 307 310 308 306 307 307 308 307 305 307 308 307 306 304 303 303 301 305 304 304 305 305 306 305 303 299 299 300 302 306 301 300 298 303 306 307 307 306 306 305 301 300 300 300 299 298 297 297 297
294 294 295 296 299 303 307 306 306 307 308 307 306 306 306 305 303 300 304 298 301 298 301 304 304 304 304 304 302 301 297 295 303 302 305 298 296 300 300 302 304 306 306 303 300 300 300 299 299 299 298 297 296 296
293 294 295 295 297 301 305 304 307 307 306 305 305 304 304 301 301 301 302 301 293 296 303 303 303 303 303 302 300 299 301 299 300 302 303 296 297 300 299 300 303 304 301 300 300 300 299 300 300 300 298 297 295 295
292 294 294 295 296 299 306 304 304 304 303 302 300 301 303 301 301 295 293 293 298 300 303 303 301 301 302 301 301 302 300 300 301 301 297 290 300 302 299 298 298 299 299 299 299 299 299 299 299 299 298 297 296 294
292 294 294 294 296 296 298 303 301 301 301 300 301 303 300 292 293 293 295 297 300 302 303 301 300 301 298 300 298 297 300 301 301 294 291 297 301 301 299 299 299 299 299 298 298 298 297 296 297 298 298 297 296 294
292 293 294 294 295 295 297 300 300 301 300 300 298 295 294 291 293 294 296 299 302 303 303 301 296 295 298 298 300 298 297 297 294 289 298 300 301 299 299 298 299 299 299 299 299 298 297 296 296 296 297 296 294 293
292 293 294 294 294 295 296 299 300 300 300 298 296 296 296 294 293 295 298 300 302 302 296 296 298 299 295 298 296 294 294 291 294 298 301 300 300 299 299 299 298 298 299 298 298 298 297 297 296 296 296 294 293 292
292 293 293 294 294 295 296 297 298 298 298 297 296 295 296 297 296 297 299 302 302 298 296 295 294 296 297 295 293 291 297 296 299 301 300 300 299 299 299 299 298 298 298 297 297 297 297 296 296 295 294 292 292 291
291 292 293 293 293 295 295 296 296 297 297 296 295 297 297 296 297 298 300 301 301 301 297 295 293 294 293 290 288 296 299 299 299 300 299 299 299 299 299 298 297 297 297 296 297 296 295 295 295 293 292 291 291 289
292 293 293 292 293 294 295 295 296 296 295 295 297 296 295 296 296 298 299 299 299 300 295 293 294 295 296 297 297 298 298 298 299 298 298 297 297 296 296 295 295 295 296 296 295 294 294 293 292 291 290 289 289 288
291 291 292 292 293 294 295 294 295 295 295 294 294 295 294 296 296 298 297 299 299 297 293 295 296 297 297 297 297 297 297 297 296 296 295 295 294 294 294 294 294 294 294 293 292 293 292 291 290 289 288 287 287 286
290 291 292 292 293 293 294 294 294 294 294 293 294 294 294 295 295 296 297 297 296 296 296 296 296 296 296 296 296 296 295 294 294 293 293 293 293 293 293 293 293 292 291 291 292 291 290 288 287 287 286 285 283 283
290 291 292 292 292 292 292 293 292 292 294 292 293 293 292 292 293 296 294 295 294 296 296 296 296 296 296 295 294 293 292 292 292 292 292 292 292 291 291 291 291 290 291 290 289 288 287 287 286 284 283 282 282 282
290 290 290 290 290 290 291 290 291 291 291 292 292 291 289 290 293 294 294 290 292 294 296 296 295 294 293 292 292 291 291 291 291 291 291 290 290 290 290 290 289 289 289 288 287 286 285 284 283 282 282 281 281 280
289 286 288 281 289 288 289 289 289 288 289 289 289 289 288 289 291 289 289 287 290 292 293 292 292 292 292 291 289 289 289 289 289 289 289 289 289 289 288 288 287 287 286 286 285 284 283 282 281 281 280 279 279 278
282 287 283 277 282 283 286 288 289 288 289 288 287 285 286 289 290 290 285 285 286 287 288 289 289 289 289 289 288 288 288 288 288 288 287 287 287 287 286 286 285 284 284 282 281 281 281 281 280 279 278 278 278 277
280 283 287 287 287 286 284 287 288 288 288 288 287 286 286 288 288 284 284 285 286 286 286 287 288 288 289 288 288 287 287 287 287 286 286 285 285 285 284 284 283 282 281 281 281 281 280 280 278 278 277 277 277 277
286 286 282 288 286 284 279 279 279 282 283 284 285 285 287 288 287 283 284 285 285 285 286 286 287 287 287 287 287 286 286 285 285 284 284 283 283 283 282 282 281 281 281 280 280 279 278 278 277 277 277 277 277 276
287 287 288 287 284 282 279 279 280 286 287 286 283 282 281 284 284 284 284 284 284 284 285 286 286 285 285 285 284 284 283 283 282 282 282 282 281 281 281 280 280 280 280 279 278 278 277 277 277 277 276 276 276 275
286 286 283 283 283 284 285 286 286 286 287 287 286 285 284 284 284 284 284 284 284 284 285 285 284 284 283 283 283 282 282 281 281 281 281 281 281 281 280 279 279 279 278 277 277 277 277 276 276 276 276 276 276 276
286 286 283 282 277 282 284 285 285 286 285 285 285 285 284 283 283 283 284 284 283 283 282 282 282 282 282 281 281 281 280 280 281 281 281 281 281 280 279 279 278 277 277 277 277 277 276 276 276 276 276 276 275 275
285 286 283 281 279 280 281 282 283 284 283 283 282 282 281 282 281 281 281 282 282 281 281 281 281 280 280 280 279 279 280 280 280 280 280 280 280 279 278 277 277 277 277 277 276 276 276 276 276 276 275 275 275 275
283 283 281 280 278 279 281 282 280 277 278 277 276 277 278 280 278 277 277 278 278 278 278 279 279 278 279 279 279 279 279 279 279 279 278 278 278 277 277 276 276 276 276 276 276 276 276 276 275 275 275 274 274 274

GFSWCAN_850_thetae_009.txt.gz
Theta_e
294 295 296 298 298 300 301 304 312 314 313 312 311 311 311 313 314 315 314 314 315 311 310 311 309 308 308 307 307 306 309 308 309 316 317 313 314 311 311 309 309 311 311 312 311 313 314 310 312 314 311 310 311 310
294 295 296 297 298 299 300 303 310 314 313 312 311 311 311 313 314 315 315 315 316 311 311 310 310 310 311 312 308 305 309 307 309 309 308 307 310 307 310 315 307 312 309 311 311 311 308 309 310 310 312 310 310 310
293 295 295 296 297 299 300 303 308 312 313 311 311 310 311 312 314 315 316 316 313 312 312 312 312 312 311 310 309 311 310 310 311 311 306 307 311 306 311 311 310 308 307 310 310 310 308 309 310 310 311 311 310 309
293 294 295 296 297 299 302 303 305 312 312 312 310 310 310 313 314 314 316 316 316 314 310 311 313 313 313 313 313 314 315 313 312 312 308 308 310 305 308 308 309 307 308 308 308 307 308 309 309 310 310 310 309 309
292 295 295 296 297 300 302 304 306 312 312 312 310 310 310 313 313 314 316 316 316 315 313 312 312 313 313 314 315 314 313 313 313 309 308 310 306 307 305 305 308 305 307 309 310 308 309 309 309 309 309 309 308 308
292 294 295 296 297 299 304 305 309 312 312 311 309 309 310 312 313 315 315 316 316 315 314 312 311 311 311 312 313 313 313 313 312 310 305 308 309 307 304 309 306 308 309 310 308 309 309 309 309 309 309 308 307 305
292 294 294 296 296 300 305 306 311 312 312 310 309 309 310 311 313 314 313 315 316 314 313 308 309 311 312 312 312 313 313 312 312 308 306 307 308 307 304 308 305 308 309 309 309 310 306 307 307 307 307 305 304 300
292 294 294 296 296 301 306 307 311 313 311 308 308 308 309 311 312 311 312 313 313 311 310 306 307 309 311 310 310 311 311 311 309 308 308 307 307 305 307 304 305 307 307 307 307 308 309 308 306 306 305 301 299 299
292 294 294 295 296 300 305 310 311 311 308 308 308 308 310 311 311 310 311 312 310 311 305 303 308 310 308 308 308 308 309 310 308 309 308 307 305 304 305 303 305 307 308 306 306 307 306 306 305 302 299 299 299 299
292 293 294 295 296 299 305 310 311 309 308 308 309 309 308 309 309 309 310 311 311 309 307 304 305 308 307 306 305 306 305 307 308 308 306 306 302 304 306 307 308 307 307 307 305 304 305 302 299 300 299 299 298 298
292 293 294 295 296 298 303 309 309 307 308 310 307 306 307 309 308 306 305 303 303 302 304 303 304 305 305 306 305 303 303 301 305 301 307 302 301 300 305 305 306 306 307 307 307 306 302 300 299 299 298 298 297 296
291 293 294 295 295 297 300 305 308 307 308 308 307 307 307 306 304 301 296 296 302 302 302 304 303 304 304 304 302 301 296 293 298 300 305 300 297 299 302 305 305 306 306 305 301 300 299 299 299 299 298 298 297 296
289 293 294 294 295 297 302 306 305 307 307 307 307 305 305 302 301 302 303 302 292 295 303 302 302 302 302 302 296 295 292 295 298 303 301 298 296 300 300 302 305 304 304 300 300 299 299 299 299 299 299 298 297 296
289 292 293 294 295 296 301 307 305 306 304 302 300 302 303 302 301 296 295 295 298 300 303 302 300 301 301 295 298 301 297 298 299 297 297 293 299 300 299 301 304 304 301 300 300 299 299 299 298 298 298 297 297 296
289 292 293 294 295 296 299 304 305 303 303 300 301 304 301 292 292 293 295 297 300 303 303 301 299 300 298 301 299 298 300 300 300 294 291 295 300 298 298 300 302 300 299 299 298 298 297 297 296 296 297 297 296 295
290 293 294 294 294 295 297 300 301 301 300 300 298 296 294 292 293 295 297 299 302 302 303 302 292 293 298 297 300 294 298 296 295 290 297 299 301 298 297 298 298 298 298 298 298 298 297 297 296 296 296 296 295 294
291 293 293 294 294 295 297 299 300 300 299 299 295 295 295 293 294 295 298 301 302 301 292 292 296 295 295 298 298 290 292 291 293 297 298 301 299 298 298 298 298 298 298 298 298 297 297 296 296 296 295 295 293 292
291 292 293 293 294 295 296 297 298 298 298 295 297 295 296 295 296 297 300 302 302 298 296 294 295 295 293 294 292 290 294 295 297 298 300 299 298 298 298 298 298 298 298 297 297 297 296 296 295 295 294 293 292 291
291 292 293 292 293 294 295 296 296 296 295 295 294 296 295 296 297 298 301 302 302 299 298 295 293 289 291 289 287 294 295 295 295 297 297 298 298 298 298 297 297 296 296 296 296 296 295 294 294 294 293 291 291 290
291 291 292 292 294 294 295 295 296 296 295 295 296 295 295 295 297 299 300 300 300 301 299 295 293 294 295 296 298 298 298 298 299 298 298 298 298 297 296 296 295 295 295 295 295 294 293 293 293 292 291 290 289 288
290 290 292 293 294 294 294 294 294 294 294 293 295 295 295 296 296 298 298 299 300 297 294 295 296 296 297 297 297 297 297 298 299 298 297 296 295 295 294 294 294 294 294 294 293 292 292 292 291 290 289 288 287 287
290 291 292 292 293 293 293 293 293 293 294 293 294 295 295 295 296 297 297 297 296 295 295 295 295 296 296 296 296 296 296 296 295 295 294 294 293 293 293 293 293 293 293 292 291 292 291 290 288 287 287 286 284 283
290 290 291 291 292 291 291 292 292 292 293 292 293 293 292 292 294 296 294 294 293 294 295 296 296 295 296 295 295 295 294 293 293 293 293 292 292 292 292 291 291 291 291 291 290 289 288 287 286 285 284 282 282 282
290 290 289 290 290 288 290 290 290 291 291 292 291 289 289 290 293 294 293 290 290 293 295 295 295 295 293 292 292 292 292 291 291 291 291 290 290 290 290 290 290 289 289 289 288 287 286 285 283 282 282 281 281 280
289 285 287 278 287 285 288 289 289 289 290 289 290 289 288 288 292 292 291 288 288 290 292 292 291 292 291 291 290 290 290 290 290 290 290 290 290 289 289 288 288 287 286 286 285 285 283 282 281 281 280 280 279 278
281 285 283 275 282 283 285 289 289 289 289 288 287 286 287 290 292 291 287 284 285 287 289 290 291 290 290 289 289 289 289 289 289 289 289 288 288 287 287 287 286 285 285 283 283 282 281 281 280 280 279 278 278 278
279 282 286 286 286 285 284 286 287 286 288 289 288 288 288 291 290 285 282 283 284 285 286 287 287 288 289 288 288 288 288 288 288 287 287 286 286 286 285 285 284 284 282 281 281 281 280 280 279 278 278 278 277 277
286 286 280 287 285 284 278 278 280 282 282 285 286 287 288 287 286 282 282 283 284 284 285 286 287 288 288 288 287 287 287 287 286 286 285 285 284 284 284 283 282 281 281 280 280 280 279 278 278 277 277 277 277 277
286 286 287 282 283 282 277 279 278 285 285 286 282 283 281 280 281 281 282 283 284 285 286 286 287 287 287 286 286 286 285 284 284 284 283 283 282 281 281 280 281 280 280 280 279 278 278 277 277 277 277 277 277 276
286 286 283 282 282 283 283 284 284 285 285 285 284 283 282 281 281 282 283 283 284 284 285 285 285 285 285 285 285 284 283 283 282 282 283 282 281 281 280 280 280 279 279 278 277 277 277 277 277 277 276 276 276 276
285 285 282 280 277 281 282 282 283 284 284 285 285 285 281 281 281 282 282 282 282 283 283 284 284 283 283 283 282 282 282 281 281 281 281 281 281 281 280 279 278 278 277 277 277 276 277 277 277 277 276 276 275 276
284 285 282 282 278 280 280 282 282 283 282 283 282 283 281 281 279 279 279 279 280 280 280 281 281 281 280 280 280 280 280 280 281 281 281 281 280 279 278 278 277 277 276 276 276 276 276 276 276 276 276 275 275 275
283 284 281 279 277 277 280 282 279 277 278 277 276 277 279 280 278 277 276 277 277 277 278 278 278 278 278 278 278 279 279 280 280 279 279 278 278 278 277 276 276 276 276 276 276 276 276 276 276 275 275 275 275 275

GFSWCAN_850_thetae_012.txt.gz
Theta_e
293 293 293 295 296 297 298 299 300 302 305 313 312 312 311 312 313 313 314 311 312 310 310 309 308 307 307 311 313 308 313 312 314 320 320 317 318 318 315 314 316 317 319 318 320 322 321 312 312 317 315 312 313 313
293 293 293 295 296 297 298 298 300 302 306 312 312 312 310 311 313 313 313 313 314 313 311 310 309 309 310 309 310 310 314 311 315 316 316 314 315 312 316 317 310 317 318 316 317 317 312 310 312 311 313 312 310 310
292 293 293 294 296 296 297 298 300 303 305 312 312 312 311 311 313 313 314 315 313 311 311 311 311 311 310 309 309 312 310 310 311 313 312 314 317 313 317 317 314 310 310 315 313 312 310 309 309 310 310 310 310 309
293 292 292 294 296 296 297 298 300 303 305 312 312 311 311 311 312 313 314 316 313 312 314 312 312 313 312 311 308 312 313 311 312 312 314 316 317 308 315 314 315 312 312 313 312 310 309 309 309 310 310 310 309 309
293 292 292 294 295 296 297 298 301 303 305 312 312 311 310 311 312 313 314 315 315 314 315 312 312 312 312 313 314 314 312 313 313 315 316 317 310 312 309 311 314 310 313 316 317 313 313 311 309 309 309 309 309 308
293 292 292 294 295 296 297 298 302 304 308 312 312 310 310 311 312 314 314 315 315 314 313 315 311 311 311 311 312 312 313 313 312 313 312 310 309 312 318 318 313 309 309 310 312 310 310 309 309 309 309 308 308 307
293 293 292 294 295 295 297 298 304 305 311 311 311 310 309 311 313 314 314 315 316 313 312 310 312 311 311 312 312 312 313 312 312 310 311 311 311 310 313 317 311 309 309 309 310 310 306 307 307 308 309 307 306 304
292 293 292 294 295 296 297 300 305 305 310 312 310 309 309 311 312 312 311 314 315 312 310 307 309 310 311 311 312 311 312 311 310 310 309 311 309 309 314 311 306 307 307 307 307 308 308 308 308 307 306 305 303 300
292 292 292 294 294 295 297 301 305 308 311 309 308 308 310 311 311 311 312 312 310 311 306 307 310 312 310 308 308 309 310 312 308 311 311 310 312 314 315 309 306 305 308 307 307 308 307 308 306 305 305 301 300 300
292 292 290 293 294 295 297 301 307 309 310 308 308 308 309 309 310 311 311 312 312 310 307 307 306 310 308 307 306 308 306 309 311 309 307 308 312 308 308 308 308 307 308 307 306 303 305 305 305 303 300 300 299 298
292 292 289 294 294 295 297 302 308 309 307 308 308 307 308 309 309 307 306 308 305 306 305 304 306 308 306 308 306 304 305 305 311 308 310 309 307 306 305 306 307 307 308 307 309 308 307 306 301 300 299 298 297 297
291 291 290 294 294 295 297 300 304 307 307 308 307 308 309 307 304 305 306 301 304 308 303 305 304 305 304 304 304 302 304 302 308 303 307 307 305 299 302 304 306 307 306 306 307 306 302 300 299 298 298 297 297 297
291 289 292 293 295 295 297 300 306 306 308 307 309 306 306 303 305 306 306 305 303 300 302 301 303 302 302 302 300 301 304 305 302 305 305 305 299 299 302 304 305 305 305 305 303 300 299 299 299 298 298 298 297 297
290 288 293 294 294 295 297 301 306 306 306 305 301 305 305 305 305 304 304 303 300 302 302 302 301 303 301 303 301 302 300 301 302 302 303 301 298 299 301 303 305 304 300 299 299 299 299 299 298 298 298 297 297 297
289 289 293 294 293 295 297 299 303 304 301 300 302 306 305 296 292 292 295 298 300 303 302 301 301 301 301 302 301 300 301 302 302 301 301 297 298 299 300 302 304 299 299 299 299 298 298 297 297 297 297 297 296 296
288 291 293 293 293 294 297 299 302 301 300 300 298 298 295 296 295 295 296 300 303 303 304 302 299 301 300 302 301 301 301 301 302 300 297 298 297 300 301 303 304 300 299 298 297 297 297 297 296 296 296 295 295 294
289 292 293 293 293 295 297 299 300 300 299 298 297 295 294 294 296 296 299 301 303 302 301 300 303 302 299 300 301 298 300 300 297 295 297 298 298 299 302 302 298 297 297 298 298 297 297 296 296 295 295 295 294 293
290 292 292 292 293 295 296 297 298 298 297 295 298 296 296 295 296 298 300 302 303 299 297 300 297 299 301 301 300 298 294 294 294 295 298 297 297 297 297 298 298 298 298 297 297 297 296 296 295 295 295 294 293 292
290 291 291 292 293 294 295 296 296 296 295 295 295 295 295 296 298 299 301 302 302 299 297 297 298 298 298 296 296 292 294 294 294 296 297 297 298 298 298 298 297 297 297 296 296 295 295 294 294 294 293 292 291 290
289 289 291 293 294 294 295 295 295 295 296 295 295 295 295 296 298 300 300 300 299 300 300 299 297 295 295 295 296 297 296 296 296 295 296 297 298 298 297 296 296 295 295 294 294 294 294 293 293 292 291 290 289 289
289 290 291 293 294 294 293 293 294 294 294 294 295 295 295 297 297 298 298 299 301 299 298 294 294 295 296 296 297 296 295 296 297 298 298 297 296 295 295 294 294 293 294 294 293 293 292 292 291 290 289 288 288 287
289 290 291 292 293 293 293 292 292 293 294 293 294 295 296 297 297 297 299 297 296 294 295 295 294 295 295 295 296 297 297 298 298 298 296 295 294 293 293 293 293 293 293 292 292 292 291 290 289 288 287 287 285 283
289 290 290 291 291 291 291 292 292 292 294 293 293 294 293 294 294 296 295 293 292 292 294 295 295 295 295 294 294 294 294 294 294 293 293 293 293 292 292 292 292 292 292 292 291 291 290 289 287 287 285 283 282 282
290 289 289 289 288 287 290 290 290 291 291 292 292 291 290 291 293 295 293 290 289 291 294 294 294 294 293 292 293 292 292 292 292 292 292 292 292 292 292 292 291 291 291 290 290 289 287 287 286 284 282 282 282 281
288 285 286 279 286 285 288 290 290 290 291 290 291 290 290 288 294 293 291 288 287 289 291 293 293 294 294 292 291 291 291 291 292 292 292 291 291 291 291 290 290 289 289 288 287 286 285 284 282 281 281 281 280 279
282 284 283 280 283 283 286 289 290 290 290 289 288 287 288 292 293 290 286 282 284 286 288 291 292 291 290 290 290 290 290 291 291 291 290 290 289 289 289 289 288 286 286 285 285 284 282 281 281 281 280 279 278 278
281 281 286 286 286 285 285 286 287 289 290 290 289 289 291 292 290 284 281 281 283 284 286 288 290 290 290 289 289 289 289 289 289 289 288 288 287 287 286 286 286 285 284 283 281 281 281 281 280 279 278 278 278 278
285 285 282 285 284 283 279 280 282 285 285 285 289 289 290 287 285 279 279 281 282 284 286 287 287 287 288 288 288 288 288 288 287 287 286 285 285 285 284 284 283 282 282 281 280 280 280 279 278 278 278 278 278 278
286 286 286 278 281 281 278 280 281 283 283 284 285 285 281 277 278 279 281 282 283 284 285 286 287 287 287 288 287 287 286 286 285 285 285 284 283 282 282 282 281 281 280 280 280 279 278 278 278 278 278 277 277 277
285 285 282 282 282 282 281 281 282 283 283 283 282 281 279 278 278 279 281 282 283 284 284 285 285 285 285 285 285 284 284 284 283 283 284 284 283 282 281 280 280 280 279 279 278 278 277 277 278 278 277 277 277 276
284 284 281 279 279 280 280 280 282 283 284 284 283 283 281 281 281 280 281 282 282 283 283 284 284 284 284 284 284 283 283 282 282 282 282 282 281 281 280 280 280 279 278 277 277 277 277 277 277 277 277 277 276 275
283 284 283 282 278 279 279 281 282 282 282 283 281 282 281 281 280 280 281 282 282 282 282 283 283 283 283 283 282 282 282 281 281 281 281 281 281 280 279 279 278 278 277 277 277 277 277 277 277 277 276 276 275 275
282 283 281 278 277 277 279 280 278 277 277 276 276 277 278 279 277 278 278 279 280 280 281 281 281 281 281 281 281 281 281 280 280 280 280 279 279 279 279 278 277 277 276 276 276 276 276 276 276 275 275 275 275 275

GFSWCAN_850_thetae_015.txt.gz
Theta_e
294 294 294 293 294 295 296 298 298 299 300 303 305 312 311 312 311 313 313 313 311 313 313 310 309 309 311 312 315 309 316 316 319 321 321 321 322 320 321 322 321 321 321 322 323 324 325 315 314 318 318 315 315 315
294 294 294 293 294 295 296 298 298 299 300 302 304 312 311 311 311 313 313 313 310 312 313 310 310 308 310 314 314 310 314 315 318 319 319 318 318 317 320 319 314 322 321 322 321 322 314 314 314 314 315 315 314 314
294 294 294 294 294 295 296 297 298 298 300 303 304 311 311 311 311 312 313 313 312 312 313 311 312 310 309 311 315 313 313 314 316 317 316 318 319 317 321 320 317 313 312 318 315 314 314 313 311 312 314 313 312 311
294 294 294 294 293 294 295 297 297 298 300 303 304 311 311 311 311 312 313 313 313 314 316 314 312 312 311 310 311 315 316 314 314 315 316 318 320 313 318 317 317 314 313 316 315 313 311 311 311 311 310 310 309 309
294 294 293 293 293 294 295 296 297 298 300 304 306 311 311 311 311 313 313 313 313 315 316 313 312 312 312 312 308 310 311 312 314 316 319 320 313 314 313 314 317 313 316 316 317 315 315 314 311 310 309 309 308 308
295 294 293 293 293 294 295 296 297 298 302 304 307 311 311 311 311 312 312 313 314 314 313 315 311 311 311 311 311 312 312 313 315 318 318 314 311 315 320 320 317 313 313 312 315 313 313 311 309 309 309 308 308 308
294 294 293 293 293 293 295 295 297 299 302 305 310 311 311 310 311 312 313 314 315 314 312 313 312 311 311 312 312 313 313 313 316 315 317 316 314 314 318 321 317 313 312 310 310 311 310 309 309 308 308 308 307 306
294 294 293 293 293 293 295 295 297 299 303 305 310 311 310 310 311 312 313 313 313 313 312 312 311 311 311 314 314 312 315 315 313 314 312 316 312 313 318 317 313 312 310 309 308 309 310 309 307 306 308 307 305 302
293 293 293 293 292 294 295 296 297 301 304 307 310 309 309 310 311 312 312 312 312 312 308 308 311 314 310 309 310 311 312 317 311 316 315 314 317 318 318 317 311 311 310 308 306 308 307 307 306 307 306 304 302 300
293 293 293 292 290 294 295 296 297 303 306 310 309 309 309 311 311 312 309 308 310 309 307 310 310 311 309 308 307 309 308 312 313 311 308 312 315 315 312 312 311 309 309 308 306 303 305 305 306 305 303 300 300 300
293 293 292 290 291 294 295 296 299 305 309 308 308 307 309 310 310 309 308 311 309 308 307 307 310 309 307 310 308 305 308 307 314 312 313 314 312 311 308 308 309 308 309 308 309 309 308 308 305 302 300 300 299 298
293 293 290 288 293 295 295 296 298 301 308 307 307 309 308 308 306 307 310 305 305 311 305 308 308 308 305 305 306 304 308 306 313 306 310 310 309 302 304 306 306 307 307 307 308 306 306 305 302 300 299 298 297 297
293 291 289 289 294 295 294 296 300 300 306 307 309 308 306 304 307 308 308 306 306 305 304 304 306 304 303 303 304 305 308 310 304 306 308 309 301 301 303 304 304 304 305 306 304 305 303 300 299 298 298 298 297 297
292 289 288 293 293 294 294 296 300 303 306 304 303 305 308 306 307 308 308 308 305 304 303 304 304 306 304 306 305 307 304 304 306 306 306 305 301 302 302 302 303 303 304 305 302 299 299 298 298 298 298 297 297 297
289 288 290 293 293 293 295 297 300 299 300 300 303 309 306 301 296 296 298 300 302 303 304 304 304 303 304 304 303 301 302 305 305 306 305 301 299 300 301 302 301 302 302 299 299 298 298 298 298 298 297 297 296 296
288 290 292 292 293 293 296 297 300 300 300 300 299 301 298 300 297 296 298 301 303 303 305 304 303 304 302 305 303 304 304 306 308 305 301 298 298 299 301 301 300 300 299 298 298 298 298 297 297 296 296 296 296 295
288 291 291 291 292 294 296 298 300 300 299 299 299 298 298 300 301 299 300 302 303 303 307 306 306 306 302 303 304 303 304 305 301 298 298 298 299 300 301 300 299 299 298 298 297 297 297 296 296 296 296 296 295 294
288 289 289 291 293 295 296 297 298 298 298 297 300 297 297 297 299 300 301 303 304 302 302 305 300 301 304 304 304 303 299 294 296 297 296 297 298 300 303 299 299 299 298 297 297 297 296 296 296 296 295 295 294 292
288 288 289 291 293 294 295 296 296 297 296 296 295 296 297 297 298 299 302 303 302 300 299 300 302 304 303 302 301 297 296 295 296 296 295 297 300 302 301 298 297 297 297 297 296 296 296 295 295 294 294 293 292 291
288 289 290 292 294 294 295 295 295 296 297 295 296 296 296 297 298 299 301 300 298 299 302 302 299 297 297 296 296 297 297 296 295 295 295 296 297 297 297 297 297 297 297 296 295 295 294 294 293 293 292 291 290 289
289 289 290 292 293 294 293 292 294 293 294 296 295 296 296 297 297 298 298 300 301 300 299 295 294 294 295 296 296 297 296 296 296 296 295 296 297 297 297 296 296 295 294 294 294 293 292 292 292 291 290 289 288 288
289 289 290 291 292 293 292 292 292 293 294 294 295 296 298 299 299 298 299 298 297 294 295 295 295 296 295 295 295 296 296 296 296 297 298 297 296 295 294 294 293 293 293 293 292 292 291 291 290 289 289 288 287 285
289 289 289 290 291 291 292 291 293 292 295 295 294 295 295 296 294 296 296 294 291 291 292 293 294 294 294 294 295 296 296 297 298 297 297 295 294 293 293 292 292 292 292 291 291 291 291 290 288 288 287 285 284 283
289 289 288 287 287 289 290 291 291 292 292 293 293 294 292 293 293 295 294 291 288 290 292 292 293 293 292 292 293 293 294 295 295 293 292 292 292 292 291 291 291 291 291 291 290 290 289 288 287 286 284 283 282 282
288 286 286 284 286 288 289 292 292 292 292 291 293 293 292 289 295 293 292 288 285 287 289 290 291 291 292 291 290 291 291 291 292 292 291 291 292 292 291 290 290 290 290 290 289 288 287 286 285 283 282 282 281 280
284 285 286 286 286 288 288 291 291 292 292 291 290 290 290 294 293 290 285 281 282 285 287 288 289 290 289 289 290 290 290 291 291 292 291 290 290 291 291 290 289 288 288 287 287 287 286 284 282 282 282 281 280 279
285 286 287 286 285 286 287 288 288 290 291 291 291 292 293 293 290 284 280 280 281 283 285 287 288 289 289 289 289 290 290 290 291 291 290 290 289 289 288 288 288 288 287 286 285 283 282 282 282 281 280 279 279 279
286 286 285 286 285 283 285 285 287 288 288 287 290 289 290 287 285 277 278 280 281 283 285 287 289 290 290 290 290 290 289 289 289 289 288 288 287 287 286 286 286 285 284 283 282 282 281 281 280 279 279 278 278 278
286 285 286 279 282 284 283 284 285 283 282 283 287 286 281 276 277 277 279 280 281 282 284 286 287 288 288 288 287 287 287 287 287 287 286 286 285 284 284 283 283 282 281 281 281 280 280 279 278 278 278 278 278 278
285 285 284 283 280 284 282 281 281 281 281 281 281 280 278 277 278 279 280 281 282 283 284 285 286 286 286 286 286 285 285 285 285 285 285 285 284 283 282 281 281 280 280 280 280 279 278 278 278 278 278 278 278 278
284 284 282 282 282 280 280 281 282 282 283 282 282 281 279 280 280 280 281 282 283 283 284 285 285 285 285 285 285 284 284 284 284 284 284 284 283 282 281 280 280 280 280 279 279 278 278 278 277 277 277 277 277 276
284 284 284 283 280 279 280 280 281 281 282 282 280 280 280 280 279 281 282 282 282 283 284 284 284 284 284 284 284 284 284 283 283 283 282 282 281 281 280 280 280 279 279 278 277 277 277 277 277 277 277 276 276 276
282 282 280 279 278 278 279 280 279 278 278 277 276 277 278 279 278 278 279 280 281 281 282 282 282 282 282 282 282 282 281 281 281 281 281 280 280 280 280 279 279 278 277 277 277 277 277 277 277 276 276 276 275 276

GFSWCAN_850_thetae_018.txt.gz
Theta_e
294 295 295 294 294 295 294 296 297 298 298 299 301 302 305 312 312 312 312 312 312 312 313 313 311 310 313 311 313 311 314 315 318 318 320 322 321 319 321 320 318 320 321 323 321 323 322 314 314 317 316 315 315 316
294 295 295 295 294 294 294 295 296 298 298 299 300 303 305 312 312 311 311 312 313 312 314 313 311 310 309 315 311 312 314 316 319 319 318 317 318 317 318 323 318 321 319 320 320 321 315 314 314 314 315 314 314 313
294 294 294 294 294 294 294 295 296 297 298 299 300 303 306 311 312 311 311 312 312 311 311 313 313 311 309 310 313 313 314 315 317 317 316 316 319 316 317 317 315 315 312 316 316 313 312 313 313 314 315 314 313 312
294 293 294 294 294 294 294 294 296 297 297 298 300 303 307 311 311 311 311 312 313 313 315 314 312 311 311 310 313 315 315 315 316 317 316 317 320 314 319 315 315 312 311 314 313 312 311 312 312 313 313 312 311 310
294 294 294 294 294 293 293 294 296 297 297 298 301 304 308 311 311 311 311 312 313 314 316 313 312 312 311 311 312 314 315 315 314 315 317 318 313 313 312 312 315 311 313 315 316 314 314 312 312 311 311 310 309 309
294 294 293 295 295 293 293 293 295 296 297 299 302 305 309 311 311 311 311 312 312 313 313 314 312 311 311 311 309 309 311 312 315 318 317 315 313 314 314 316 316 313 314 314 313 313 314 311 310 310 309 308 308 307
295 294 294 295 294 294 293 294 295 296 297 298 303 305 310 311 311 312 312 313 313 313 312 311 311 311 312 313 313 312 312 313 316 316 316 315 313 312 317 320 316 313 313 313 312 312 309 310 309 309 308 308 307 306
295 294 294 294 294 294 293 294 295 296 297 299 303 305 310 311 311 311 312 313 313 313 312 310 311 311 311 314 313 313 315 315 314 314 313 314 312 313 315 315 314 312 311 311 311 311 310 310 309 308 308 307 305 302
294 294 294 293 294 293 291 294 295 296 297 301 303 308 310 310 311 311 312 312 312 313 309 308 310 313 311 310 311 312 314 316 312 315 313 313 314 312 315 315 312 311 310 309 309 310 309 308 307 307 306 304 303 300
294 294 294 293 293 291 294 295 296 296 299 302 305 310 309 310 311 311 311 311 311 309 310 310 310 311 309 309 308 310 309 311 311 311 309 310 310 315 316 315 314 311 311 309 308 306 306 306 306 305 304 303 302 300
294 294 293 293 291 289 294 295 295 296 303 303 308 308 309 311 311 310 308 308 308 307 307 309 310 309 308 310 308 306 307 305 312 309 311 311 312 310 310 311 311 311 310 309 309 310 308 308 306 303 301 301 300 298
293 292 292 290 288 293 294 295 295 296 298 301 303 307 307 307 307 307 308 305 306 307 306 308 309 309 306 306 306 305 307 305 312 305 309 309 306 303 305 308 309 309 308 307 309 308 306 305 304 303 300 298 298 297
292 291 289 288 290 293 293 295 295 297 300 303 307 303 306 304 307 306 307 306 306 305 305 306 305 305 304 304 303 304 305 309 303 306 308 304 301 303 305 306 306 306 306 306 305 306 305 303 301 300 298 297 297 297
290 289 288 291 292 293 293 294 296 298 300 302 300 305 306 306 305 304 304 303 304 305 304 305 304 304 304 303 303 300 302 302 302 302 302 300 301 303 304 305 305 304 304 305 305 303 301 299 298 297 297 297 297 296
288 288 291 291 290 292 293 295 297 299 299 299 300 308 305 300 297 298 302 302 303 304 305 304 303 303 301 300 300 301 301 298 302 303 301 301 302 303 303 302 301 301 302 302 300 299 298 298 298 297 297 297 296 296
288 288 288 288 290 292 294 296 297 299 300 299 299 301 300 301 297 298 300 302 304 305 306 304 300 297 299 299 298 297 299 300 301 299 300 300 301 302 301 300 300 301 300 299 298 298 298 298 297 297 296 296 296 295
288 288 288 289 290 293 296 297 297 298 299 299 299 299 300 301 299 299 301 303 304 305 303 300 300 298 300 297 298 298 299 300 299 298 298 299 301 301 299 300 300 299 298 298 298 298 297 297 296 296 296 295 295 294
288 288 288 289 291 294 296 296 297 297 298 297 300 298 298 299 300 300 302 303 305 304 304 303 300 300 298 298 298 298 298 297 298 298 298 299 301 301 301 299 298 298 298 298 297 297 296 296 296 295 295 295 294 293
288 288 289 290 292 294 294 295 295 297 296 296 296 296 297 298 300 300 302 304 303 302 301 301 301 298 298 295 296 298 296 296 296 296 297 299 301 300 298 298 298 298 297 297 296 296 295 295 295 295 294 294 293 292
289 289 289 290 293 294 294 294 295 295 297 295 296 297 297 297 298 300 302 302 299 299 300 298 298 296 296 297 297 299 297 296 295 294 295 297 298 297 297 298 297 297 297 296 296 295 295 294 294 293 293 292 292 291
289 289 289 290 293 293 293 292 293 293 294 296 295 297 297 297 298 299 299 299 301 300 298 295 294 294 295 295 296 297 296 296 296 297 296 296 296 297 297 297 297 296 296 295 295 294 293 293 293 293 292 291 290 289
289 289 289 290 291 292 293 292 291 292 294 294 295 296 298 299 299 298 299 298 296 294 295 295 294 295 295 295 295 296 296 296 297 297 297 296 296 297 297 296 296 295 294 294 294 293 293 293 292 291 290 290 289 288
289 289 289 289 290 291 292 291 292 292 294 294 294 296 295 296 295 296 295 293 290 290 293 294 295 295 296 295 295 296 296 296 297 297 297 297 296 296 295 294 293 293 293 292 292 292 292 291 290 290 289 288 286 284
289 288 288 287 287 284 290 292 292 292 292 293 293 294 292 292 293 294 293 290 288 289 290 291 292 293 294 293 294 294 295 297 297 296 296 296 294 293 293 293 292 292 292 292 292 291 291 290 289 288 286 285 283 283
288 285 287 279 287 285 283 289 291 292 292 291 292 292 291 290 295 292 290 286 285 286 288 289 290 291 292 291 291 291 292 295 296 294 292 292 292 292 291 291 291 291 291 291 290 290 289 288 287 285 284 283 282 282
282 286 283 282 282 283 285 286 289 291 292 292 291 291 290 293 291 287 283 279 280 283 286 287 288 288 288 289 289 290 291 291 292 292 290 291 291 291 291 292 291 290 290 289 289 288 287 286 284 283 282 282 281 280
282 281 287 286 286 286 285 288 288 289 289 289 290 291 292 292 287 282 279 279 279 281 284 286 287 288 288 288 289 290 290 290 291 291 290 289 289 290 290 291 290 289 288 288 287 286 285 283 282 282 281 280 279 279
286 286 281 286 285 284 281 281 282 283 286 285 289 287 287 284 282 276 277 278 279 281 283 285 288 288 288 288 289 289 289 289 289 289 288 288 288 288 288 288 288 287 286 285 284 283 282 282 282 281 280 279 279 279
286 286 286 277 282 284 280 280 281 282 281 282 285 284 280 276 276 277 278 279 280 280 282 284 285 287 288 289 288 288 288 287 288 287 288 287 287 286 286 286 285 285 284 283 282 281 281 280 280 279 279 279 278 278
285 285 284 279 277 280 281 281 280 281 281 280 280 279 278 277 277 278 279 280 281 282 282 283 283 285 286 287 286 286 285 286 286 287 287 286 285 285 284 283 283 282 282 281 281 281 280 279 279 278 278 278 278 278
284 285 283 283 278 280 280 281 282 282 282 281 281 280 278 279 280 280 281 281 281 282 283 283 284 284 285 285 285 285 285 285 285 285 285 285 284 284 283 282 281 281 281 281 280 279 279 278 278 278 278 278 278 277
283 284 277 278 277 279 280 281 281 281 281 281 280 280 280 279 279 280 281 282 282 283 283 283 284 284 284 284 284 285 285 284 284 284 284 284 283 282 281 281 281 280 280 279 278 278 277 277 277 277 278 277 276 276
282 282 280 279 278 278 280 280 280 279 279 277 276 277 278 279 278 280 281 281 282 282 283 283 284 284 284 283 283 283 283 283 283 282 281 281 281 280 280 280 280 279 279 278 277 277 277 277 278 277 276 276 276 275

GFSWCAN_850_thetae_021.txt.gz
Theta_e
294 295 294 295 295 294 295 295 295 296 297 298 299 300 303 306 310 312 312 313 312 312 312 312 311 310 312 312 313 311 313 314 316 318 320 321 320 318 317 319 317 320 321 322 320 322 319 313 313 316 313 313 312 311
293 295 294 294 295 294 295 294 294 296 296 298 298 299 302 305 311 311 312 312 312 312 313 313 312 312 310 311 312 311 313 315 317 317 316 318 318 314 316 321 315 320 318 321 318 319 315 313 313 315 315 314 311 311
294 295 295 294 294 295 295 294 294 295 297 298 298 299 302 305 310 311 312 311 311 311 312 311 312 312 311 308 311 313 314 315 316 316 315 316 317 313 315 315 316 315 311 315 315 313 312 312 313 315 314 314 312 312
294 295 295 294 294 295 294 294 294 295 296 297 298 299 302 306 311 311 311 311 312 312 313 313 312 312 311 309 312 314 315 315 316 317 316 315 317 312 317 313 313 310 310 313 312 311 311 312 312 314 313 312 311 310
294 295 295 295 294 295 295 294 294 294 296 297 298 299 302 306 311 311 311 311 312 312 314 313 312 311 311 311 311 314 314 314 316 316 316 318 314 312 311 312 313 309 311 313 315 312 312 311 312 312 312 311 310 309
294 294 295 295 294 294 294 294 294 294 296 296 298 298 303 307 311 311 311 311 311 312 313 313 312 311 311 310 311 312 312 313 314 316 317 315 313 314 311 313 313 313 313 315 312 313 313 312 311 311 311 309 309 308
295 294 294 295 294 294 294 294 292 294 296 297 297 299 304 308 310 311 312 312 311 311 312 309 311 311 312 311 311 310 311 313 315 315 315 313 312 313 315 317 315 312 313 313 313 313 309 310 309 310 309 308 307 306
294 294 294 294 294 293 294 290 292 296 297 296 297 301 305 308 311 311 312 313 312 312 312 308 310 311 312 313 312 313 314 314 314 314 313 312 311 311 315 313 311 311 311 311 311 312 311 310 309 308 308 307 305 303
294 294 295 294 293 294 290 288 294 295 296 296 299 303 307 309 311 311 311 312 312 313 309 308 310 311 311 311 312 312 314 313 312 311 311 311 313 313 313 312 310 310 311 309 310 310 309 309 308 307 306 304 303 300
294 294 294 293 293 290 288 293 294 296 296 301 303 306 308 311 311 311 311 311 312 311 310 309 310 311 310 309 308 308 307 309 311 310 309 308 309 312 314 315 314 311 312 310 308 306 307 307 307 305 304 302 301 300
291 292 292 291 289 288 291 293 293 295 297 300 301 306 309 310 311 310 308 308 308 306 307 309 309 309 308 309 309 306 305 305 312 310 311 310 311 309 309 313 313 311 311 310 311 310 309 309 307 304 301 300 300 299
291 290 289 288 288 292 292 294 294 295 295 296 297 301 306 309 308 307 309 305 307 309 307 308 309 310 307 308 307 306 306 304 310 304 308 310 306 304 306 309 310 310 310 309 309 309 307 306 304 303 301 299 298 297
289 288 288 288 290 291 291 293 294 295 297 299 298 300 300 304 307 308 308 307 306 304 306 306 305 305 305 305 302 302 301 302 301 302 305 304 301 303 306 308 307 307 307 308 307 307 306 303 302 301 299 297 297 297
288 288 288 288 288 289 292 294 294 295 297 299 300 303 304 303 303 303 306 302 304 305 305 306 304 304 304 303 303 301 301 300 300 302 301 298 300 304 305 306 306 305 306 306 305 304 303 301 299 298 297 297 296 296
289 288 288 288 288 289 292 294 296 297 298 298 299 306 305 298 297 299 302 302 304 305 306 304 302 302 297 302 298 299 299 297 301 302 299 300 302 304 304 305 304 304 304 303 302 301 299 298 297 297 296 296 296 295
289 289 288 288 288 290 293 296 296 296 298 298 299 301 300 299 297 298 300 302 304 305 307 304 296 293 296 295 295 294 298 299 300 298 301 301 303 303 302 303 303 303 302 301 299 298 297 297 297 296 295 295 295 295
289 289 289 288 289 291 295 296 297 297 298 298 298 299 300 299 297 299 301 303 305 306 301 296 296 297 294 292 295 293 297 297 298 300 300 302 302 301 301 301 301 301 299 298 297 297 297 296 296 296 295 295 295 294
289 289 289 288 289 292 295 296 296 297 297 296 298 298 298 299 299 300 302 304 305 304 303 298 297 294 295 295 294 294 296 298 299 299 299 301 301 300 300 300 299 298 297 297 297 297 296 296 296 295 295 294 294 293
289 289 289 289 289 293 294 295 295 296 296 296 296 297 297 299 300 301 303 304 304 303 302 300 295 293 296 293 292 297 297 298 297 298 300 301 300 299 299 298 297 297 297 297 296 296 295 296 296 295 295 294 293 292
290 289 289 289 291 294 293 294 294 294 295 295 296 297 297 297 298 301 302 302 301 301 298 294 296 295 295 298 299 301 299 298 297 297 297 298 298 298 297 297 297 296 296 295 295 295 295 295 294 294 293 293 292 290
289 289 289 289 291 293 293 292 292 293 293 294 295 296 297 297 298 299 300 300 301 299 293 295 294 294 295 295 297 298 297 297 297 297 295 294 296 297 296 296 296 296 296 295 295 294 294 294 293 293 292 291 290 289
289 289 289 289 291 291 292 292 292 292 292 294 294 295 297 298 298 298 299 297 294 293 295 294 294 294 295 296 296 297 296 296 296 297 297 296 295 295 296 296 296 296 295 295 294 294 293 293 292 291 291 290 289 289
289 288 288 289 289 290 290 291 291 292 292 292 293 294 294 294 294 296 293 291 289 289 292 294 294 294 296 296 296 295 296 297 297 297 296 295 296 296 296 296 295 295 294 293 293 293 292 291 290 290 290 289 289 287
289 288 287 287 287 281 288 290 291 291 292 292 292 292 292 291 292 293 290 287 286 288 289 291 293 293 293 294 295 294 294 297 297 295 295 296 295 294 294 294 293 293 293 293 292 292 291 291 290 289 288 287 285 284
287 285 287 276 286 282 279 281 281 286 289 291 290 291 290 290 293 290 287 283 282 284 287 288 289 290 291 292 293 294 293 295 296 295 294 295 295 293 292 292 292 292 292 292 291 291 290 289 288 287 285 284 284 283
280 286 282 276 278 280 280 281 281 284 289 290 291 290 291 291 288 285 281 278 278 280 283 285 286 288 288 289 290 291 292 293 295 295 292 292 292 293 292 292 292 291 290 291 291 290 289 288 286 285 283 283 282 281
280 278 286 286 286 286 283 285 285 283 283 286 288 289 290 289 285 281 278 278 278 280 282 284 286 287 287 288 289 290 291 291 292 292 292 291 291 291 292 292 291 291 290 289 288 288 288 286 284 283 282 282 280 280
285 285 281 285 285 284 278 277 278 278 281 284 285 285 285 282 282 277 277 278 278 280 281 283 286 287 288 288 289 290 290 290 290 291 291 290 290 290 289 289 289 289 288 287 286 285 284 283 283 282 281 280 279 279
286 286 285 275 280 281 277 276 277 281 280 280 281 282 279 277 276 277 278 279 279 280 281 283 285 287 288 288 288 288 288 289 290 289 290 289 287 287 287 287 287 286 285 284 282 282 282 281 281 280 279 279 279 279
285 285 281 274 275 278 281 281 280 280 280 280 280 279 278 277 277 278 278 279 280 280 281 283 283 285 286 287 286 286 287 288 289 290 289 288 286 285 285 285 284 283 283 283 282 281 281 280 280 279 279 279 279 279
284 284 282 280 274 279 280 281 281 281 281 280 280 280 278 278 278 279 279 280 280 281 281 282 283 284 285 285 286 287 286 286 286 286 286 286 285 284 283 283 282 282 281 281 281 280 280 279 279 279 279 279 279 279
283 283 276 275 275 279 280 280 281 281 281 280 280 279 279 278 278 279 279 280 280 281 282 282 283 283 284 285 286 286 286 286 285 285 285 285 284 282 282 281 281 281 281 280 280 280 279 279 279 279 279 279 278 277
282 282 279 278 277 277 279 280 279 277 278 277 277 277 278 278 278 280 280 280 281 281 282 282 283 283 283 284 284 284 284 284 283 283 282 282 282 281 281 281 281 280 280 280 279 279 278 278 279 278 278 277 276 276

GFSWCAN_850_thetae_024.txt.gz
Theta_e
294 294 294 296 295 295 295 295 295 295 295 296 297 299 299 302 305 307 312 311 312 312 312 312 312 310 312 311 312 311 313 313 316 318 318 321 320 317 317 318 316 320 321 321 318 319 316 313 313 316 311 312 311 310
294 295 294 296 295 294 295 295 295 295 294 296 297 299 299 301 305 309 312 311 313 312 312 313 312 313 311 311 311 311 313 314 316 317 316 315 319 313 314 318 314 318 317 318 317 316 312 313 313 314 313 313 310 309
294 295 294 294 296 295 295 295 295 295 294 295 297 298 299 301 306 309 311 311 311 312 312 312 312 313 313 312 311 311 312 314 316 316 315 315 318 314 319 316 316 314 311 316 317 314 313 312 314 314 313 313 312 311
294 295 295 294 295 295 294 294 294 295 294 295 297 297 299 301 306 308 311 311 311 311 312 312 312 312 312 311 308 310 314 315 315 316 315 315 317 311 316 312 313 312 310 312 312 311 311 312 312 313 313 312 311 310
295 295 296 295 294 295 295 295 294 294 293 295 297 297 298 302 306 309 311 311 311 312 314 313 312 312 311 311 310 313 313 314 315 316 316 318 314 312 310 309 311 307 311 314 315 312 311 310 312 312 312 311 310 310
295 295 294 294 294 295 294 294 294 291 293 296 297 298 297 301 306 309 311 311 311 312 311 313 312 311 311 310 310 312 313 312 313 316 316 315 314 313 311 313 312 313 312 314 312 313 312 311 311 311 311 310 309 308
294 294 294 294 294 294 294 294 290 288 294 295 297 296 297 301 304 309 311 311 311 311 312 309 310 311 311 310 310 310 312 312 313 314 314 313 312 312 313 316 314 311 312 313 313 312 308 309 309 310 310 308 307 306
295 294 294 294 294 294 294 290 288 293 294 295 297 297 299 303 307 309 312 312 311 311 312 308 310 311 312 313 312 312 312 313 313 313 312 312 311 310 314 313 311 310 310 311 311 312 312 310 309 309 308 307 306 305
291 291 292 292 292 290 289 288 292 294 294 296 299 300 303 306 309 311 311 311 311 312 310 308 309 310 311 311 311 312 313 314 311 311 310 310 311 312 313 311 309 310 311 310 310 310 309 309 308 307 307 306 305 303
291 290 289 289 288 287 290 293 293 294 295 301 303 305 306 310 311 311 311 311 311 312 311 310 310 311 310 310 308 309 307 310 310 310 308 308 309 312 314 314 314 311 311 310 308 305 307 306 307 306 305 304 303 301
290 289 288 287 288 289 290 290 293 293 296 298 299 302 307 309 311 311 309 309 308 306 308 310 310 308 308 309 309 306 306 305 311 309 311 308 310 307 309 312 314 311 311 311 312 311 309 309 307 305 303 301 300 299
290 288 288 288 288 288 288 291 293 294 296 295 295 298 303 307 309 307 308 305 307 309 307 309 309 309 307 308 307 305 305 304 311 303 308 310 307 306 306 309 311 310 310 309 310 310 308 307 306 304 301 300 299 298
290 289 289 288 288 288 290 293 293 294 295 297 297 297 299 303 307 309 309 307 308 305 307 306 305 307 307 308 303 304 308 309 301 304 306 305 301 304 305 307 307 307 307 309 308 308 307 306 304 302 300 299 297 297
291 289 289 289 288 288 289 292 294 295 295 297 298 302 302 305 305 305 306 303 306 306 306 307 303 304 304 304 302 299 301 300 300 302 304 297 301 304 306 306 307 306 307 307 306 306 305 303 301 300 298 297 297 296
290 290 290 289 288 288 289 292 296 296 296 297 298 302 304 300 299 299 299 301 303 306 307 304 303 303 301 302 298 299 300 300 302 303 299 299 302 304 305 305 306 305 305 305 304 303 302 301 299 297 297 296 296 296
290 290 289 289 289 288 289 295 296 295 297 297 298 300 300 300 299 298 300 301 303 306 307 304 298 302 303 298 295 296 299 300 302 296 301 302 303 304 304 304 304 303 303 302 302 301 300 298 297 296 296 295 295 295
290 290 289 289 288 289 291 296 296 296 297 298 298 298 298 299 297 299 300 303 305 305 303 294 301 300 292 290 295 293 297 296 295 300 301 302 303 303 302 302 301 301 301 301 301 298 297 296 296 296 295 294 294 293
291 290 289 289 289 289 293 295 295 296 296 296 296 296 297 298 299 299 301 303 304 304 301 300 297 297 296 296 294 294 294 298 300 301 301 302 302 301 301 301 300 301 301 299 298 297 296 296 295 295 294 294 293 292
291 290 289 288 289 291 293 294 294 290 296 295 295 296 297 298 299 299 301 303 304 304 302 299 294 294 296 292 288 295 298 299 298 299 301 301 301 300 300 300 301 300 298 297 296 296 296 295 295 294 294 293 293 291
291 290 289 289 289 293 293 293 293 294 288 294 294 295 296 297 298 300 301 303 302 301 299 294 295 296 296 298 299 300 300 299 299 299 297 297 298 299 299 299 298 297 296 296 295 295 295 294 294 294 293 293 292 291
290 289 289 288 290 292 292 292 292 293 293 292 294 294 296 297 298 298 299 300 301 297 292 295 295 295 296 296 296 298 299 298 299 299 297 294 295 297 296 296 297 296 296 295 295 294 294 294 293 292 292 291 290 290
290 289 289 288 290 291 292 291 291 292 291 293 293 293 295 296 298 298 297 297 293 291 293 293 294 295 295 297 298 297 297 297 298 299 299 297 295 295 295 296 296 295 295 295 295 294 294 293 292 291 291 290 290 290
289 289 288 288 288 289 289 289 291 291 286 288 292 293 293 293 293 294 292 289 287 287 288 291 293 294 295 296 296 296 296 297 298 298 298 296 295 295 295 295 295 295 295 294 294 293 293 292 291 291 290 290 289 288
289 288 287 287 287 279 287 288 289 290 290 287 287 292 292 291 292 291 288 285 283 284 287 289 291 292 293 293 294 294 295 296 297 297 297 296 294 294 294 294 294 295 294 293 292 292 292 291 290 290 289 289 287 286
288 286 286 277 285 280 276 279 277 280 282 282 286 290 290 290 291 287 285 282 281 282 283 286 288 290 292 291 292 293 293 294 296 294 292 294 294 293 293 293 293 293 292 292 292 292 291 290 289 289 288 286 285 284
280 285 282 275 277 280 279 280 279 279 282 282 286 288 289 290 288 285 281 278 278 280 280 282 283 285 288 290 290 290 291 292 293 294 293 294 295 296 294 292 292 291 291 291 292 292 291 289 288 287 285 284 284 283
280 278 286 286 286 285 281 283 283 280 278 281 282 284 286 288 287 282 278 278 278 279 281 282 283 284 286 288 289 290 290 291 294 295 294 295 296 293 292 293 292 292 292 291 291 291 291 289 287 285 284 283 282 281
285 284 280 284 284 283 277 276 276 277 277 282 283 281 282 282 282 278 278 278 278 279 280 282 284 284 285 287 288 289 290 291 293 293 291 290 290 290 290 291 292 291 290 289 289 288 288 287 285 284 283 282 281 280
285 285 285 275 279 280 277 276 276 281 280 280 277 281 278 278 277 277 278 278 279 279 280 282 283 284 285 286 287 287 288 290 291 289 290 289 289 290 291 291 290 289 288 287 286 285 284 283 283 282 281 280 280 280
284 285 281 272 275 277 281 281 280 280 280 280 279 279 278 278 278 278 278 278 279 280 280 281 282 284 285 286 286 286 287 289 290 293 292 291 290 290 289 288 288 287 286 284 283 282 282 282 282 280 280 280 279 279
284 284 281 278 274 279 279 280 280 280 280 280 279 279 279 279 279 279 279 279 279 280 280 281 282 283 284 285 285 286 287 287 289 290 291 291 289 288 287 286 286 285 283 283 283 283 282 281 280 279 279 279 279 279
283 283 275 275 275 278 279 279 280 280 280 280 280 279 279 279 279 280 280 280 280 280 281 282 282 283 284 285 286 287 287 288 288 288 287 287 286 285 284 283 282 282 281 281 281 280 280 279 279 279 279 279 279 278
280 280 278 277 276 276 278 279 278 277 278 277 277 278 279 279 279 280 281 281 281 281 281 282 283 283 284 285 286 286 286 286 285 284 284 284 283 282 282 281 280 280 280 280 280 279 279 279 278 279 279 278 278 277

GFSWCAN_850_thetae_027.txt.gz
Theta_e
295 295 295 295 295 296 295 295 295 295 295 294 296 297 299 300 302 304 309 309 313 312 312 312 312 312 312 310 311 310 311 313 314 317 316 318 318 315 317 317 318 318 319 319 316 318 315 310 311 314 310 312 310 309
295 295 295 295 295 294 296 295 295 295 295 295 295 297 298 299 301 304 308 311 311 311 312 313 312 312 311 312 311 311 312 313 315 316 316 316 319 314 313 316 312 317 316 316 314 314 311 312 312 313 312 311 310 309
295 295 295 296 296 295 295 295 295 295 295 294 294 297 298 299 301 303 307 311 311 312 311 312 312 312 312 312 311 310 311 312 315 316 314 315 318 310 314 313 313 312 311 315 315 313 312 312 313 313 312 311 310 309
295 295 294 295 295 295 295 295 295 295 295 290 295 297 298 298 299 304 308 311 311 311 312 312 312 312 312 312 311 311 310 312 313 315 315 315 315 311 313 311 313 312 310 312 312 310 311 312 312 313 311 311 310 308
295 295 295 295 294 294 294 294 294 294 291 288 294 297 299 298 299 306 308 310 310 312 313 312 312 311 311 311 310 309 309 312 314 315 316 318 313 312 309 308 310 307 311 314 315 312 312 311 312 312 311 310 310 310
295 294 293 294 294 294 294 294 294 291 288 290 294 295 296 297 301 307 310 310 311 311 312 313 312 311 311 310 310 310 311 312 313 315 315 315 313 314 311 312 312 312 311 314 313 313 312 311 311 311 311 309 310 310
294 291 291 291 293 293 293 292 290 288 292 294 294 294 296 297 300 304 309 310 311 311 312 309 310 311 311 310 310 311 311 312 313 314 315 313 312 313 313 314 313 312 312 311 312 312 308 309 309 310 310 309 308 307
291 290 289 288 289 289 290 290 293 293 293 293 295 296 298 300 304 307 310 311 311 311 312 308 309 310 311 312 312 312 312 312 312 313 312 312 311 310 313 312 313 310 310 310 310 311 312 311 310 309 308 307 306 305
291 289 288 288 287 288 290 292 292 293 294 296 300 300 301 303 307 310 312 311 311 311 310 308 309 309 311 311 311 311 312 314 311 311 311 310 312 312 313 311 310 310 310 309 310 310 309 310 309 307 306 305 305 303
291 290 288 288 288 287 288 292 292 294 295 300 302 303 306 307 310 310 310 310 311 311 310 310 309 310 310 310 308 309 308 310 311 310 308 308 310 311 314 314 313 311 311 310 308 305 307 307 307 306 306 305 304 303
291 291 289 288 288 288 287 291 293 293 295 296 297 300 303 308 309 308 309 309 308 307 309 309 310 309 309 309 310 307 306 305 310 305 310 310 309 306 309 313 314 311 311 310 311 311 309 310 308 306 305 304 303 301
291 291 290 289 289 288 288 290 292 294 294 295 295 297 302 304 308 306 307 306 307 310 307 309 308 309 308 308 307 305 305 304 310 302 308 309 305 306 307 309 312 310 310 310 310 310 309 308 307 306 304 302 301 300
291 291 290 289 289 288 288 288 291 294 294 296 297 298 298 301 305 308 309 308 307 305 307 306 305 308 308 308 303 302 310 310 301 303 306 303 301 304 305 307 309 308 308 309 309 308 308 307 306 305 302 300 299 297
291 291 290 289 289 288 288 288 291 295 295 296 298 300 301 305 305 305 304 305 305 306 307 308 304 304 305 305 303 308 302 299 301 303 303 297 301 304 305 306 307 306 307 308 307 307 306 305 303 302 300 299 298 297
291 291 290 290 289 288 288 288 295 295 295 296 298 300 303 301 300 300 300 301 302 305 307 305 303 304 302 302 299 300 302 302 302 305 297 300 302 304 305 305 305 305 306 305 305 304 304 303 301 299 298 297 297 296
291 291 290 290 289 289 288 289 296 295 295 296 296 298 299 299 299 299 299 300 302 305 307 305 301 303 304 302 295 297 299 302 304 295 301 302 303 304 305 304 304 304 304 304 303 303 302 301 300 298 297 296 296 296
291 291 290 290 289 288 289 294 295 295 295 296 297 297 297 297 299 299 299 301 303 304 304 301 304 303 293 290 295 293 298 301 296 300 302 302 303 303 303 303 302 302 302 302 302 301 300 299 297 296 296 295 295 295
291 291 290 289 289 288 290 294 294 294 293 296 294 296 295 296 298 299 299 301 303 304 299 300 296 295 296 297 294 294 295 297 300 300 301 302 303 302 302 302 301 301 301 301 301 299 298 297 296 295 295 294 294 293
291 291 290 289 289 289 291 292 293 292 293 294 294 295 295 296 297 298 299 300 302 303 302 298 294 294 297 293 293 295 296 300 299 299 301 301 301 301 300 300 301 301 301 300 298 297 296 296 295 295 294 294 294 292
291 290 289 289 288 291 292 292 292 291 289 293 293 294 294 294 296 297 298 300 301 301 300 300 296 296 297 299 300 300 300 300 300 299 298 298 298 299 299 300 299 299 299 297 296 296 295 294 294 294 294 293 293 291
291 290 289 289 289 291 292 292 291 292 291 290 293 293 294 295 296 297 298 300 299 300 298 294 294 295 295 296 297 297 299 299 299 300 299 296 296 297 298 298 299 298 297 296 295 294 295 294 294 293 293 292 291 290
290 289 289 288 289 290 291 291 290 290 290 291 292 292 292 292 295 295 294 296 291 288 289 290 292 293 295 296 297 298 299 298 298 299 299 299 296 296 296 297 296 296 296 295 295 295 294 294 293 292 291 290 290 290
290 289 288 288 288 288 288 288 290 290 284 283 290 283 287 290 293 293 290 288 285 284 285 286 290 292 294 295 296 296 297 297 298 298 298 298 296 296 296 296 296 296 296 295 295 294 294 293 292 291 290 290 290 289
289 288 287 287 287 280 287 287 287 287 289 283 278 282 286 289 291 290 288 284 282 283 285 287 288 290 292 294 294 295 295 296 297 297 297 298 296 294 295 295 295 296 295 295 294 293 293 292 291 291 290 290 290 289
288 286 286 278 284 279 275 276 273 279 280 277 281 280 285 290 290 288 286 282 281 281 282 284 286 287 287 290 292 293 294 295 296 295 293 295 296 293 293 294 294 294 294 294 293 292 292 291 290 290 290 289 288 286
281 284 281 275 276 279 278 280 277 278 278 278 281 285 287 286 285 286 282 279 279 279 279 280 282 285 287 286 288 290 292 293 293 294 293 292 294 295 294 294 293 293 293 293 293 292 292 291 290 289 288 286 285 285
280 278 285 285 285 284 281 282 282 278 277 277 276 277 281 283 284 281 280 279 278 279 279 280 281 282 284 286 287 288 289 290 291 293 293 292 294 295 295 295 296 293 292 292 292 292 292 291 289 288 287 285 284 283
285 283 281 283 283 283 276 275 274 276 276 282 280 278 280 284 283 280 279 279 279 279 280 280 281 282 283 285 286 287 288 288 289 290 291 292 293 295 297 295 292 292 292 291 291 291 290 290 289 287 286 285 284 282
285 284 284 274 279 280 278 277 276 282 282 281 276 277 277 280 280 279 279 279 279 279 280 280 281 281 282 284 285 286 286 287 288 289 290 289 289 290 290 290 291 292 291 290 289 289 288 287 286 285 284 283 281 281
283 284 281 272 275 277 280 281 281 280 280 280 280 280 280 280 280 279 279 279 279 280 280 280 280 281 281 282 283 284 285 286 287 290 291 289 290 290 291 291 291 290 289 288 286 285 284 284 284 283 282 281 280 280
283 283 280 278 273 279 279 280 280 280 280 280 279 279 280 280 280 280 280 280 280 280 280 280 281 281 281 282 284 285 286 287 288 290 292 293 292 291 290 290 290 288 287 287 286 285 284 283 282 281 280 280 280 280
282 283 276 275 275 277 278 279 280 280 280 280 280 279 279 279 280 280 280 280 280 281 281 281 282 282 283 284 285 286 287 288 289 290 290 290 289 288 288 287 286 285 285 284 284 283 282 281 280 280 279 280 280 280
279 280 277 276 275 275 278 279 277 278 278 278 278 278 279 279 279 281 280 281 281 281 281 282 282 283 284 285 285 286 286 287 287 287 287 287 287 286 285 284 283 283 283 283 282 281 280 279 279 279 279 279 279 278

GFSWCAN_850_thetae_030.txt.gz
Theta_e
294 295 296 296 296 297 296 295 295 295 295 295 295 294 297 299 300 303 308 309 312 312 312 312 312 312 311 311 310 310 310 311 313 315 316 317 317 316 316 315 317 316 319 318 317 318 314 310 311 314 309 310 310 310
294 295 296 296 295 295 295 294 295 295 295 295 294 294 297 299 299 302 306 309 311 311 312 312 312 312 312 312 310 310 312 312 313 314 314 316 318 312 312 315 311 315 314 314 314 313 310 312 311 312 311 310 309 308
294 295 295 295 295 295 295 294 295 294 294 295 292 294 297 299 299 300 305 310 309 310 311 311 311 312 312 312 311 311 310 311 314 315 313 314 315 310 313 311 313 311 309 314 314 313 311 312 312 311 310 309 308 308
295 294 294 294 293 294 294 294 294 294 295 292 289 293 296 297 298 300 304 309 310 311 311 311 312 312 312 312 311 311 311 311 310 313 315 315 316 310 311 310 311 310 310 312 311 310 310 311 311 311 310 308 308 307
295 292 292 290 290 293 293 293 294 293 289 288 291 294 295 295 298 303 307 309 309 312 313 312 312 311 311 311 310 311 310 310 311 314 316 317 314 311 307 307 308 307 312 313 314 312 311 310 311 310 310 309 308 309
294 290 289 289 288 288 291 290 291 291 292 294 294 294 293 294 297 305 308 309 310 310 311 312 312 311 310 310 310 310 310 311 312 314 315 315 314 313 313 311 311 311 311 313 312 312 311 310 309 309 310 309 309 310
291 290 289 288 288 288 289 290 292 293 292 293 294 294 294 294 297 301 307 309 310 311 312 309 309 310 311 310 310 310 311 311 312 314 315 314 312 312 313 312 312 312 312 310 311 311 309 309 309 309 310 308 309 309
291 291 290 288 288 288 289 289 292 292 294 295 296 297 298 298 300 304 308 309 309 310 311 308 309 310 310 311 311 311 312 312 312 313 312 313 311 310 314 312 313 311 310 310 310 311 311 311 309 308 308 307 306 305
291 291 290 289 289 288 288 288 292 293 294 297 300 300 299 301 305 308 310 311 310 311 310 308 309 309 310 311 311 311 312 313 312 312 311 310 313 313 312 311 311 312 310 309 309 310 310 310 308 307 307 305 305 303
291 291 291 290 289 289 288 288 291 293 294 300 301 302 305 306 308 309 310 310 311 311 311 309 309 309 310 310 309 309 308 310 310 310 308 308 310 312 313 313 313 312 311 310 308 306 307 307 307 306 306 305 304 303
291 291 291 290 289 289 288 288 290 292 295 298 297 299 302 306 308 308 307 308 308 307 309 309 309 307 309 309 311 307 306 305 310 306 310 310 309 305 308 311 313 312 311 310 310 311 310 311 308 306 304 304 303 302
291 291 291 290 289 289 288 288 289 292 294 295 295 297 302 305 307 306 306 305 306 309 307 309 308 308 308 308 305 305 305 304 308 301 307 309 303 305 306 308 311 311 310 309 310 310 309 309 308 306 304 303 303 302
291 291 290 290 289 289 288 288 288 293 295 296 296 298 299 301 305 308 309 307 307 304 307 307 305 308 308 307 302 302 309 309 301 303 306 302 300 304 305 307 309 309 308 308 309 308 308 308 306 306 304 303 301 300
291 291 291 290 290 289 289 288 288 296 295 296 297 299 298 303 304 304 303 303 301 303 307 308 304 304 306 305 304 309 303 301 301 303 303 297 301 303 305 306 307 307 306 308 308 307 306 306 305 304 303 301 300 298
291 291 291 290 290 289 289 288 290 294 295 295 297 299 301 300 300 300 300 300 301 304 306 305 303 304 302 304 301 300 303 303 302 304 297 300 301 303 304 305 306 306 306 306 305 305 304 304 304 301 300 299 297 297
291 291 291 290 290 289 289 289 294 294 294 295 295 295 298 298 299 299 300 300 302 304 306 305 302 304 305 300 299 299 300 302 304 295 301 302 302 304 305 305 304 305 305 305 304 304 304 303 301 300 297 297 296 296
290 291 291 290 290 289 288 293 294 295 295 294 296 297 297 297 298 298 299 300 301 303 304 302 305 306 295 290 295 295 300 300 298 300 301 302 303 303 304 304 303 303 303 303 303 302 302 300 299 298 296 296 296 295
290 291 291 290 289 289 289 293 292 292 293 293 292 295 295 295 295 296 298 300 300 303 300 302 298 294 295 296 296 295 296 299 300 301 301 302 302 302 303 304 303 303 303 302 302 301 300 299 297 297 296 295 295 294
291 291 291 290 289 288 290 292 292 291 290 292 293 293 293 294 294 295 296 298 299 300 300 298 298 296 296 292 290 296 297 298 299 300 301 301 301 302 302 301 301 301 301 301 300 299 298 297 297 296 295 295 295 293
291 291 290 289 289 289 291 292 292 290 290 291 291 291 293 292 293 295 296 297 298 300 299 300 300 295 295 296 296 298 299 299 299 299 298 298 299 300 300 300 300 299 299 299 298 298 297 296 295 295 295 294 294 293
291 290 290 289 288 290 291 292 291 291 289 290 290 291 292 292 294 295 297 297 298 299 298 294 293 293 293 294 295 296 297 299 299 300 300 298 298 298 299 298 299 298 299 297 297 296 296 295 294 294 294 293 293 292
291 290 289 288 288 289 290 290 290 289 288 289 290 290 289 290 293 293 293 294 288 285 286 286 288 290 292 294 295 296 296 298 298 298 299 299 298 297 297 297 297 297 297 296 297 296 295 294 294 293 292 291 291 290
290 289 288 287 288 287 287 288 290 289 282 283 287 282 280 286 292 292 289 287 284 283 283 284 286 288 290 293 293 295 296 298 297 297 298 298 299 298 298 297 297 298 297 295 295 295 294 293 292 292 291 291 290 290
290 289 287 287 286 281 286 286 286 286 287 280 276 280 279 286 291 287 285 284 283 283 283 284 285 287 290 291 292 294 295 296 296 296 296 297 296 295 296 297 296 296 296 295 294 294 293 292 292 291 291 291 290 290
289 287 286 279 284 277 276 275 272 278 280 275 278 278 279 288 283 282 282 282 283 282 282 282 283 283 283 286 289 290 293 294 294 295 295 294 295 295 293 294 294 294 294 295 294 293 293 292 292 291 291 291 290 289
282 284 280 276 276 278 278 279 276 277 275 276 276 281 284 281 281 281 281 282 281 281 280 280 280 282 284 283 285 288 289 291 293 293 293 294 294 295 294 294 294 292 293 294 295 294 293 292 292 291 290 289 288 287
280 279 283 284 284 283 281 282 282 278 275 277 274 276 275 280 279 282 283 282 280 280 280 280 280 280 282 283 285 286 288 289 290 291 292 292 292 292 294 295 293 294 293 294 294 293 293 292 291 291 290 288 286 285
286 284 280 283 283 282 276 275 274 277 277 281 279 277 277 279 281 283 282 281 280 280 280 281 281 281 281 283 283 284 286 287 289 289 290 290 290 291 292 294 293 295 297 293 292 292 292 292 292 290 288 286 285 283
284 284 284 274 278 279 278 278 277 283 283 283 277 277 277 282 284 283 282 281 280 280 280 280 281 281 282 283 283 283 284 285 286 287 288 288 288 289 291 293 296 296 292 291 290 291 292 291 289 287 286 284 283 282
283 284 281 273 275 278 280 281 281 281 281 282 282 281 282 283 284 283 282 281 280 280 280 280 280 280 281 281 281 282 282 284 284 286 288 288 288 289 291 292 293 291 290 291 291 289 287 287 285 284 284 283 282 281
282 283 281 279 274 279 279 280 280 280 280 281 280 280 281 282 282 283 282 281 280 280 280 280 280 281 281 281 281 282 283 284 285 286 288 289 290 290 289 290 291 291 290 291 289 287 286 285 284 283 282 281 281 280
281 282 276 274 274 277 277 278 279 279 279 279 279 279 280 280 281 282 282 281 280 280 281 281 281 282 282 282 283 284 284 285 286 287 289 290 290 290 291 291 290 290 290 287 286 285 284 283 282 281 281 281 281 281
278 279 277 276 274 274 277 278 277 277 277 278 278 278 279 279 279 283 282 281 281 281 281 282 282 282 283 283 284 284 284 286 287 287 288 288 289 289 289 288 287 286 285 284 283 282 282 281 281 281 281 281 281 281

GFSWCAN_850_thetae_033.txt.gz
Theta_e
293 293 297 296 296 295 296 295 295 295 294 294 295 292 293 297 300 301 306 308 309 311 312 312 312 312 311 311 311 309 310 310 311 314 313 316 315 315 315 313 315 316 318 320 317 317 315 310 311 314 310 310 310 310
291 294 297 296 295 295 294 294 295 294 294 294 295 291 293 297 299 300 305 308 310 310 312 312 312 312 312 312 310 309 311 311 313 313 311 315 315 313 311 314 310 314 313 315 313 313 310 311 311 311 310 308 308 307
291 294 296 295 294 294 293 294 294 294 294 294 293 290 292 296 297 299 301 306 309 310 310 310 311 312 312 312 312 311 310 310 311 313 313 313 315 313 315 312 311 311 308 313 314 313 311 311 311 311 309 307 307 308
292 295 293 293 290 290 290 293 293 292 291 290 292 293 294 294 295 298 301 305 307 310 310 310 311 312 312 312 312 312 311 310 311 311 312 314 315 310 310 310 310 310 309 312 311 311 310 311 310 310 308 307 307 306
292 295 290 289 289 289 288 292 293 293 293 294 293 293 293 293 292 297 303 308 309 310 312 311 311 311 311 311 311 310 309 310 310 314 314 316 313 310 308 307 308 306 311 313 314 312 311 309 310 308 308 308 307 309
292 291 291 290 289 289 289 291 292 292 293 293 294 295 295 293 293 301 307 308 309 310 311 312 312 311 311 310 310 310 310 309 311 313 315 316 315 313 314 314 311 311 311 313 311 311 311 310 309 308 308 307 307 308
292 291 291 290 289 289 289 290 291 292 293 294 294 295 296 293 295 302 306 308 309 309 311 309 309 310 311 310 310 310 310 311 311 313 314 314 312 314 313 313 311 313 313 312 311 311 309 309 308 308 309 307 308 307
291 291 291 291 290 289 289 289 288 291 293 294 296 298 298 295 298 303 307 308 308 310 311 308 308 309 310 311 310 311 311 311 312 312 312 313 311 310 314 310 313 313 311 310 310 310 310 310 308 307 307 307 307 306
291 290 291 291 290 290 289 288 288 289 293 298 299 300 299 299 302 306 309 310 309 310 309 308 306 307 310 311 310 311 311 312 312 312 311 310 313 312 313 311 312 312 312 310 308 309 309 309 306 306 307 307 307 303
291 290 291 291 290 290 289 288 288 289 297 300 301 302 303 304 306 308 310 309 310 311 310 309 308 306 309 310 309 309 308 310 310 310 308 309 311 312 314 313 312 312 311 309 308 306 307 306 306 306 306 305 304 302
291 290 291 291 290 289 289 288 288 289 297 299 299 301 303 305 308 307 307 308 308 307 309 307 307 305 308 307 310 307 306 305 311 307 309 309 309 305 307 309 312 312 310 309 310 310 309 309 307 305 304 303 302 301
291 291 291 290 290 290 289 289 288 289 295 295 296 300 303 305 306 306 305 305 307 308 307 308 308 308 308 308 304 304 306 305 309 301 307 308 304 306 306 307 309 311 309 309 309 309 309 308 307 305 304 302 301 301
290 291 291 290 290 290 289 289 288 289 296 296 297 300 299 301 304 307 308 308 302 303 306 307 305 307 307 307 301 302 308 308 302 305 306 302 301 304 305 307 308 309 308 308 309 308 308 308 306 305 303 301 301 300
290 291 290 290 290 290 289 289 289 292 295 297 296 296 294 302 303 302 302 300 299 301 304 306 305 304 307 304 303 310 303 302 304 305 301 296 300 303 304 306 308 307 306 307 308 307 307 306 304 303 302 302 301 300
290 290 290 291 290 290 289 289 291 294 294 295 295 295 295 299 299 300 300 300 301 302 305 305 304 304 302 304 301 302 304 305 303 303 298 300 300 303 304 305 306 306 306 307 308 307 306 305 304 302 302 301 300 298
290 290 291 291 290 290 289 289 294 295 294 295 296 293 297 297 298 298 299 299 301 303 305 304 303 303 306 298 303 305 300 302 303 296 301 301 301 303 304 305 305 305 305 305 305 305 305 304 303 302 300 298 297 296
291 291 291 291 290 289 289 292 293 294 295 295 296 296 296 295 295 297 298 299 300 301 304 302 305 307 295 291 295 295 299 300 300 300 301 302 303 303 304 304 304 303 304 303 303 303 303 303 301 299 298 296 296 295
291 290 291 291 290 289 289 292 292 292 293 293 293 294 293 294 294 294 296 298 299 300 301 302 297 298 295 296 296 294 297 299 300 301 301 302 303 303 303 304 303 303 302 302 302 302 302 300 299 298 296 295 295 295
291 291 291 290 289 289 288 291 291 290 291 291 291 292 292 292 293 294 294 295 296 297 298 298 299 300 297 291 290 296 297 296 298 299 300 301 301 302 302 302 302 301 301 301 300 300 299 299 298 297 296 295 295 294
291 291 291 290 289 288 290 291 291 290 290 290 289 290 291 291 292 292 293 294 296 297 298 299 300 294 292 292 292 293 294 295 296 297 299 299 300 301 301 301 301 301 300 299 299 299 298 297 296 296 296 295 295 294
291 291 290 290 289 288 290 291 290 289 288 289 288 288 289 290 291 294 295 295 296 298 298 291 290 290 292 292 292 293 294 294 296 297 298 299 299 299 299 299 299 299 300 299 298 296 296 296 296 295 295 294 294 293
291 290 290 289 288 289 289 288 289 288 287 288 288 288 286 288 289 293 292 292 288 285 285 284 285 286 290 293 294 293 294 294 295 296 297 298 299 299 297 298 298 298 298 298 298 297 296 296 295 295 294 293 292 291
291 290 289 288 287 287 286 287 288 287 283 282 286 282 279 283 291 291 288 286 284 284 285 285 286 286 287 290 292 293 293 294 295 295 296 298 298 298 298 297 297 298 297 296 297 296 296 295 294 293 292 292 291 289
290 290 288 287 286 281 285 285 285 285 285 279 283 277 278 285 289 286 281 284 285 286 285 284 284 286 288 288 289 290 291 292 294 295 295 296 296 296 296 297 296 295 297 297 295 296 294 293 292 292 292 291 290 290
289 287 286 280 283 279 277 276 272 277 279 273 282 277 276 285 279 275 278 282 286 285 283 282 282 282 282 284 286 287 288 289 290 291 294 294 295 294 294 294 294 294 294 296 294 293 293 293 292 292 291 291 290 290
284 285 281 279 276 278 277 278 275 276 274 275 277 280 282 277 279 280 280 285 285 284 282 281 281 281 282 282 283 285 287 287 288 289 291 292 293 294 295 294 293 292 292 294 295 293 293 292 292 291 290 290 290 290
283 281 283 283 283 283 280 281 282 277 273 278 274 275 274 279 276 279 286 286 284 283 282 281 281 281 281 282 283 284 285 285 286 288 289 290 292 292 293 295 294 294 293 293 293 295 294 292 291 291 290 290 291 288
287 284 281 283 283 282 276 275 274 277 277 281 279 277 278 279 281 286 286 285 283 283 282 281 281 281 281 281 282 283 284 285 286 286 287 288 289 290 291 291 293 294 295 292 295 294 292 292 292 291 291 292 288 285
284 284 284 274 278 279 279 278 277 283 284 284 278 277 277 285 287 286 285 284 283 283 282 282 282 281 281 281 282 282 283 283 283 283 285 287 287 288 288 289 291 292 293 293 293 292 292 291 290 292 291 288 286 285
284 283 281 274 277 278 281 282 282 282 282 283 283 283 284 285 286 286 285 284 283 282 281 281 281 281 281 281 281 282 282 283 283 283 284 285 287 287 288 289 291 292 293 293 290 289 289 290 291 289 286 285 284 283
283 283 281 280 275 279 279 280 280 281 281 281 281 281 282 284 285 286 286 284 283 282 281 281 281 281 281 281 281 281 282 283 283 284 284 285 286 287 288 289 291 291 290 290 290 290 290 290 289 286 284 284 282 281
280 282 277 274 274 277 278 279 279 279 279 279 280 280 280 281 283 285 285 284 282 282 281 281 282 282 281 282 282 282 283 283 284 284 284 285 285 286 287 288 289 290 289 291 291 290 290 288 285 284 283 282 281 281
277 278 277 276 275 274 277 277 277 276 277 277 278 278 278 280 280 284 284 284 283 282 282 282 281 281 281 281 282 282 282 283 283 283 284 285 286 286 287 288 289 290 290 290 289 287 285 284 283 282 282 281 281 281

GFSWCAN_850_thetae_036.txt.gz
Theta_e
292 291 294 297 296 293 293 294 295 294 294 295 295 293 290 295 298 301 304 305 306 309 311 312 312 312 311 312 312 310 310 310 312 314 315 314 315 317 317 316 318 317 318 320 319 320 320 312 317 318 315 312 310 310
291 292 297 295 294 290 290 290 294 293 294 294 293 291 289 292 297 299 303 306 308 309 311 311 312 312 312 312 311 309 310 310 310 312 313 315 316 317 316 318 313 318 317 319 317 319 315 313 314 312 309 309 309 308
291 292 297 295 290 289 289 289 292 293 293 292 293 294 295 294 294 296 301 304 307 309 310 310 310 312 312 312 311 310 309 310 310 312 313 315 317 316 319 318 316 315 313 317 318 318 316 313 310 309 308 306 305 307
291 294 296 291 290 289 289 289 293 293 292 293 293 294 293 294 293 293 299 303 305 308 311 311 311 311 311 312 312 312 311 310 310 311 313 315 316 314 317 315 316 316 313 316 317 317 315 310 309 308 308 307 305 306
291 295 295 291 290 290 289 290 293 293 292 293 294 294 294 295 293 293 299 305 306 306 310 311 311 311 312 312 311 311 311 311 310 311 313 314 314 313 313 312 316 313 316 317 319 314 314 311 308 308 307 306 304 305
291 294 292 292 291 290 290 290 293 293 292 293 294 294 295 295 295 300 307 307 308 307 309 312 311 311 311 310 310 310 309 310 310 312 314 313 314 314 317 316 316 313 312 314 316 311 310 309 308 308 306 305 306 304
291 293 291 291 291 290 290 290 291 292 293 294 294 295 296 296 296 301 305 305 307 308 310 311 311 310 310 310 310 310 310 310 310 312 313 315 313 314 316 317 315 313 313 312 312 311 309 308 308 307 306 305 304 306
291 291 291 291 291 290 290 289 288 288 292 294 297 297 298 298 297 302 305 307 307 309 310 310 310 310 310 311 310 310 311 310 311 312 312 313 312 311 315 316 315 313 312 311 311 310 310 310 308 307 306 305 304 305
291 291 291 290 291 290 290 289 289 288 294 299 299 299 299 298 301 304 307 309 308 309 310 308 311 313 310 311 310 311 311 313 311 312 312 310 313 316 316 315 314 313 312 310 308 308 309 310 309 308 307 305 306 305
291 291 291 291 291 290 290 289 289 289 298 300 300 303 302 302 305 307 308 309 308 309 310 310 308 310 310 311 311 310 309 311 311 310 307 309 313 314 314 313 313 312 311 310 308 306 308 307 307 304 304 304 305 306
291 291 291 291 291 291 290 290 289 289 298 299 299 301 303 305 307 307 306 308 308 308 309 308 308 309 308 310 312 307 309 307 313 309 310 313 312 310 308 308 310 313 313 311 309 310 312 311 308 306 304 305 304 303
291 290 291 291 291 291 290 290 289 289 296 297 298 302 304 304 306 306 306 305 307 309 307 308 308 307 307 308 308 306 310 307 311 304 308 311 310 306 305 307 308 310 312 309 309 309 309 309 308 308 307 304 302 301
291 290 290 291 291 291 290 290 289 289 297 297 298 300 300 302 306 307 308 308 307 301 304 306 306 307 307 306 304 307 309 310 304 307 308 309 305 304 304 306 307 308 308 308 309 309 308 308 307 307 305 302 301 300
291 290 290 290 290 291 290 290 289 291 295 296 297 298 300 303 304 302 302 302 301 300 302 304 306 306 306 306 306 311 305 304 309 308 310 307 302 301 304 305 307 306 306 307 308 308 307 307 306 304 303 301 301 300
291 290 290 290 291 291 290 289 290 293 295 295 296 299 299 299 298 299 299 299 300 301 303 304 304 304 304 306 304 305 307 309 307 310 308 301 301 302 304 305 306 306 306 306 306 306 306 306 305 303 301 300 300 299
291 290 290 290 291 290 290 289 292 294 294 295 295 297 297 297 299 297 297 299 300 302 304 304 304 305 307 306 306 309 308 308 310 305 302 301 301 303 304 305 305 305 305 305 305 305 305 304 303 302 300 300 299 298
292 291 291 290 291 290 289 289 293 294 295 295 296 294 295 294 295 296 297 298 298 301 304 302 305 309 300 302 304 303 305 306 299 299 299 300 301 303 303 304 304 304 304 304 304 303 303 302 301 301 300 298 297 296
293 292 291 291 291 290 289 290 292 292 294 294 293 293 293 293 293 293 294 296 298 298 300 302 297 302 304 305 305 299 296 295 296 297 298 300 301 302 303 304 303 303 303 303 302 302 302 301 300 300 299 297 296 295
293 291 291 291 290 289 288 290 291 290 291 291 291 291 291 292 292 292 292 293 294 295 297 298 300 303 302 296 294 292 292 291 292 294 297 298 299 300 302 302 302 302 302 301 301 301 300 300 300 299 297 296 295 294
293 291 291 291 290 289 289 290 290 289 290 290 289 289 289 290 290 290 292 293 294 295 297 299 299 294 292 290 290 290 291 291 293 292 296 298 299 299 300 300 301 301 300 299 299 299 299 298 297 296 296 295 295 294
292 291 291 290 289 289 289 289 288 288 288 288 288 288 287 288 289 292 294 294 295 296 298 290 289 289 289 291 291 292 291 292 293 293 293 294 296 297 299 299 298 299 299 298 299 297 298 297 296 298 295 295 294 294
292 291 290 290 289 288 289 288 289 288 287 287 287 285 285 287 289 291 290 291 292 289 288 288 288 289 290 291 291 292 292 292 294 295 295 295 295 296 297 298 298 298 298 298 297 298 297 297 298 295 295 295 293 293
292 291 290 289 287 287 285 287 287 285 285 285 284 284 284 285 288 290 290 288 288 288 288 288 287 286 287 288 289 289 290 290 292 293 295 296 295 294 294 296 298 298 297 296 297 297 296 295 295 295 294 293 292 291
290 289 289 288 286 283 284 284 285 283 282 284 285 284 282 283 287 285 289 285 287 288 287 285 285 285 286 286 286 287 288 288 289 291 292 293 295 295 293 295 297 296 296 297 296 295 295 294 294 294 293 292 291 290
290 287 286 281 283 281 280 280 278 281 281 277 283 281 282 283 285 283 285 285 288 288 286 285 284 283 283 284 284 285 285 285 286 287 291 290 292 292 291 292 294 295 296 295 295 293 293 293 295 293 292 292 291 290
287 284 282 283 280 281 281 281 280 281 279 280 281 280 281 282 283 285 284 287 289 287 286 285 284 283 284 283 282 283 284 284 284 286 288 289 289 290 291 292 292 292 292 293 295 294 293 295 293 292 291 290 290 291
286 283 283 283 283 282 281 281 281 280 278 280 280 279 280 281 282 283 288 289 288 286 285 284 284 283 283 283 283 283 283 283 283 284 286 288 288 289 289 290 292 293 293 292 292 295 296 293 291 291 290 290 290 290
288 284 285 283 282 282 280 278 278 280 280 282 281 279 281 282 285 288 288 286 286 286 285 284 283 282 282 282 282 282 283 283 283 284 285 287 288 289 289 289 289 290 292 293 293 294 294 292 292 291 291 291 290 290
284 284 284 277 279 279 280 281 280 283 283 284 282 281 280 286 288 287 287 286 286 285 285 284 284 282 282 281 281 282 282 282 281 282 283 284 286 287 288 288 288 289 290 291 292 294 292 292 292 291 290 290 291 287
284 284 282 278 280 281 282 282 282 281 282 283 283 283 284 286 286 286 286 286 286 285 284 283 282 282 282 282 282 283 282 282 282 282 282 283 285 286 287 287 287 288 288 289 291 290 290 290 289 289 289 290 288 285
283 283 281 280 278 279 279 280 280 281 281 282 282 281 283 284 285 286 286 286 285 285 284 283 282 281 281 282 281 282 283 282 282 282 282 283 284 284 285 285 286 287 287 288 289 289 291 289 288 289 290 288 285 284
281 282 279 276 275 277 278 278 279 280 279 280 281 281 281 281 282 285 285 285 285 284 283 282 282 282 282 282 282 281 282 282 283 283 284 283 284 284 284 284 284 285 286 288 290 291 290 289 290 290 286 284 283 282
277 278 277 276 274 274 276 278 277 276 277 278 278 277 278 280 281 284 285 285 284 283 282 282 281 281 281 280 280 281 281 281 282 282 282 282 283 283 283 283 284 285 287 289 289 289 289 289 289 286 284 283 282 282

GFSWCAN_850_thetae_039.txt.gz
Theta_e
293 294 294 296 297 293 290 293 292 288 290 291 291 290 290 292 296 299 303 303 304 305 311 311 312 313 312 313 313 311 311 311 311 314 314 314 314 315 316 317 318 318 318 318 317 319 320 315 318 320 317 314 313 312
293 294 294 296 297 292 290 293 292 289 292 293 293 293 295 293 292 295 302 303 306 307 311 311 312 312 312 312 312 311 312 311 311 312 312 314 316 316 316 318 316 319 317 321 319 320 318 317 317 315 311 311 311 310
291 293 293 296 296 291 292 293 292 291 293 294 294 294 294 294 293 294 299 303 307 308 312 311 312 312 312 312 311 311 310 311 310 311 313 314 316 317 318 317 317 317 316 317 318 319 318 317 315 311 309 308 307 308
291 292 294 295 295 292 294 294 292 292 293 294 293 295 294 294 293 294 297 302 304 305 309 312 311 311 311 311 312 311 311 310 310 311 312 314 316 315 317 316 317 317 316 318 318 318 317 313 311 309 306 305 304 304
291 291 294 296 293 292 295 294 292 292 293 294 293 294 294 295 295 292 296 302 304 304 308 312 311 311 311 312 312 312 312 311 310 311 312 314 314 315 316 315 316 316 316 317 318 316 316 313 310 308 306 303 303 303
291 291 295 296 291 292 295 293 290 292 293 293 293 294 295 295 295 299 305 306 306 306 306 313 311 311 311 311 311 310 310 309 309 310 313 313 314 315 317 317 315 316 316 315 316 312 312 310 309 308 305 302 302 301
291 291 293 295 291 291 293 290 289 289 293 294 295 296 296 295 295 300 303 304 306 307 308 311 313 310 310 311 310 310 310 309 309 310 312 314 315 314 316 317 316 315 315 315 314 312 312 309 309 306 305 302 301 300
290 291 291 292 291 291 291 290 289 289 291 297 298 297 298 295 297 303 304 305 307 308 309 312 312 311 310 311 311 310 310 310 310 311 312 314 313 313 315 316 316 316 315 314 312 311 311 310 307 306 305 304 304 299
290 291 292 292 291 291 290 290 290 289 298 299 299 298 297 298 301 304 306 307 307 308 310 309 311 314 310 311 311 311 311 312 310 312 313 311 314 316 316 316 316 316 313 313 310 308 308 308 306 304 304 305 303 299
290 291 293 291 291 291 290 290 290 290 299 299 301 302 302 302 304 307 307 308 307 308 309 310 310 312 310 312 313 312 309 311 311 310 307 310 313 313 314 315 314 312 311 310 308 306 306 306 306 304 303 303 303 301
290 291 292 291 291 291 291 290 290 290 299 299 300 302 304 305 306 306 306 309 308 308 310 309 308 311 309 311 313 309 311 309 313 309 310 314 314 313 309 307 307 310 312 312 310 310 309 310 306 305 303 303 302 303
290 292 291 290 291 291 291 291 290 290 298 299 300 303 304 305 306 306 306 306 307 310 308 309 309 308 309 308 310 309 311 309 312 306 309 312 313 307 305 305 307 308 308 310 310 309 310 311 308 307 307 305 303 302
290 291 291 291 291 291 291 291 290 291 298 299 300 302 303 303 306 308 308 309 308 303 303 304 308 307 307 307 307 309 310 311 306 308 310 311 309 303 303 305 306 307 308 307 308 308 308 309 308 307 307 305 304 302
290 291 291 291 291 290 291 290 290 292 297 298 299 302 304 305 304 305 304 304 302 301 302 303 305 307 307 308 308 311 308 306 310 310 311 311 304 300 302 304 306 306 307 307 307 307 307 307 306 305 306 305 303 301
293 290 291 290 290 290 291 290 290 293 295 297 298 302 301 300 299 299 298 299 300 300 302 304 305 304 306 306 306 307 309 309 309 312 312 303 300 300 302 303 304 305 306 306 307 306 305 304 304 303 303 301 300 300
292 290 291 290 290 291 290 289 291 293 294 296 296 299 298 299 301 299 297 299 300 300 302 303 305 306 308 309 307 308 309 310 312 306 301 298 298 299 301 302 303 304 305 305 305 305 304 303 302 301 300 299 299 299
292 292 291 290 290 291 290 290 292 293 295 295 296 295 296 296 297 297 296 296 297 299 303 303 306 308 302 306 307 306 307 304 298 297 296 297 298 300 300 301 302 303 303 303 304 303 302 301 301 300 299 298 298 298
293 292 291 291 291 290 289 290 292 293 294 295 295 295 294 294 294 295 295 295 296 298 299 301 297 304 306 308 309 301 297 295 295 295 295 295 297 298 300 301 301 301 302 302 302 302 302 301 300 299 299 299 298 297
293 293 292 291 291 289 288 290 291 292 293 292 292 292 292 292 292 292 292 293 293 295 296 297 301 303 304 298 296 294 292 291 292 293 294 296 297 298 298 300 301 300 300 300 300 300 300 299 301 300 299 299 298 297
293 294 292 291 291 289 288 289 289 290 292 291 290 290 291 290 290 290 291 292 293 295 297 297 299 296 294 292 292 292 291 290 290 291 294 296 296 297 298 298 299 300 299 299 298 298 298 298 297 298 299 298 297 298
294 293 292 291 290 289 288 289 288 289 289 290 289 288 288 288 289 290 293 293 294 295 296 296 293 292 292 292 292 292 292 289 289 290 291 293 296 295 296 297 298 298 298 298 297 297 296 298 298 297 298 296 298 295
293 291 290 290 289 288 288 288 288 288 287 288 288 285 287 289 290 290 290 290 292 294 292 291 291 291 291 291 289 289 289 290 290 289 291 291 292 293 295 296 297 296 297 297 298 298 297 296 296 296 296 298 296 294
292 291 290 289 288 287 286 287 287 286 289 288 285 288 288 287 288 288 289 291 291 290 290 290 289 288 288 288 288 288 287 287 287 287 288 290 291 293 294 295 296 297 295 295 296 296 296 295 294 294 296 297 295 293
292 290 289 288 287 287 284 285 285 285 285 287 288 289 288 288 286 288 291 291 289 290 289 288 287 287 287 287 287 286 286 286 286 287 287 287 289 290 291 293 294 295 296 294 294 295 294 294 293 294 297 294 293 293
291 289 287 286 283 284 286 285 284 286 288 285 287 287 286 284 289 289 289 290 288 289 288 287 286 286 285 286 286 285 285 284 284 284 286 286 286 288 290 291 292 293 296 293 292 293 293 292 292 296 292 293 293 292
290 287 285 287 284 286 286 285 284 286 286 284 285 283 283 287 287 288 289 289 289 290 289 287 286 286 286 286 285 285 284 283 282 283 285 285 285 286 287 288 290 292 294 293 290 292 292 293 292 291 293 293 292 292
290 288 283 283 283 283 283 283 283 285 284 284 285 284 286 286 287 288 289 290 289 287 286 286 286 286 286 286 285 284 283 283 282 283 283 284 285 285 286 286 287 289 291 291 290 290 291 292 292 292 293 291 291 291
288 285 286 283 283 282 283 284 284 284 286 284 285 283 285 286 288 288 289 289 287 286 286 286 285 285 286 285 284 284 283 283 283 282 283 284 285 286 287 287 288 288 288 289 290 289 289 291 293 294 292 291 291 290
285 284 285 282 281 282 283 284 285 284 284 284 287 287 285 286 287 288 287 287 286 286 286 285 285 285 285 284 283 283 282 282 281 281 281 282 283 284 286 287 288 288 287 288 289 289 289 290 293 294 292 291 290 289
285 284 284 282 282 284 283 282 282 282 282 283 284 284 284 286 287 287 286 286 286 286 285 285 285 285 284 283 283 284 283 282 282 281 281 281 282 283 284 285 286 286 287 287 286 286 286 288 289 291 290 289 289 288
284 284 283 283 283 280 280 281 281 281 281 282 282 282 283 284 285 286 286 286 286 285 285 285 285 283 282 282 282 281 283 283 282 281 281 282 282 283 283 283 285 285 286 285 285 285 285 287 291 290 288 289 289 289
282 283 283 282 280 278 278 279 280 280 279 280 280 280 281 281 282 285 286 286 286 285 285 285 284 283 282 281 280 280 279 280 281 282 282 283 283 283 283 283 283 284 284 284 284 285 287 289 289 288 289 288 289 288
278 279 278 277 277 276 277 278 277 277 277 277 277 277 278 279 281 284 285 285 285 286 285 284 283 282 281 280 280 279 279 279 280 281 282 282 283 283 283 283 282 283 283 283 284 285 287 289 289 288 288 288 287 283

GFSWCAN_850_thetae_042.txt.gz
Theta_e
292 293 294 295 295 297 297 295 294 294 294 293 294 293 294 295 293 294 301 304 304 305 310 310 312 313 312 312 312 312 311 311 311 313 314 313 312 314 314 317 315 315 316 316 313 315 314 316 317 319 314 313 312 312
293 294 292 294 295 297 297 295 295 294 294 294 294 294 294 295 294 293 300 302 305 305 310 311 312 312 313 312 313 311 312 311 311 312 312 313 315 313 314 316 315 317 315 317 315 314 314 317 316 313 311 310 310 311
292 292 291 294 295 297 296 297 295 294 294 294 295 294 295 294 294 294 297 302 305 307 311 311 312 312 312 312 312 312 311 311 311 311 312 313 314 314 317 314 316 314 315 315 317 317 317 314 313 310 309 306 307 309
291 291 292 293 295 296 296 297 296 294 294 294 294 295 294 295 294 293 297 300 303 305 308 312 311 311 311 312 312 312 311 311 311 311 311 312 314 315 315 315 315 315 314 315 315 314 315 313 311 309 307 306 305 306
291 290 292 293 295 296 295 297 297 295 294 294 293 294 294 295 296 295 294 299 301 304 307 310 311 311 311 311 312 312 311 311 310 311 311 312 312 313 312 313 314 314 314 314 314 315 315 312 310 308 307 305 304 304
291 291 292 292 295 296 294 294 295 294 294 294 295 295 295 295 295 298 303 305 306 307 306 311 312 311 311 311 311 311 311 310 310 310 311 311 312 314 313 315 314 315 315 315 314 313 313 312 310 308 307 305 304 303
291 291 291 291 295 296 291 293 291 293 293 295 296 296 295 295 296 299 302 303 306 306 306 309 312 311 310 310 310 310 310 309 309 309 310 312 314 313 313 315 314 315 315 315 315 314 312 311 309 307 306 304 302 301
291 291 290 291 295 293 291 291 290 290 290 297 297 297 297 296 297 301 303 304 306 307 308 309 309 310 310 311 311 310 310 309 308 310 311 313 312 313 314 313 315 315 316 315 314 313 312 312 309 306 304 305 303 301
291 291 290 290 296 291 291 291 290 290 292 298 299 298 298 299 301 303 305 306 306 307 308 309 309 312 310 311 311 311 311 311 309 310 312 311 313 314 313 314 315 314 314 313 312 311 310 309 307 305 303 303 304 299
291 291 291 290 296 291 291 291 291 289 296 299 300 302 302 303 304 305 305 307 307 308 309 309 310 311 310 311 312 311 310 310 310 309 307 309 312 312 312 312 312 313 313 312 310 308 307 306 305 304 304 303 302 301
291 291 290 292 292 291 291 291 290 290 297 299 300 302 303 304 306 307 307 308 308 308 309 309 308 310 309 310 312 309 309 306 310 308 309 311 313 310 307 306 306 307 309 311 312 311 310 309 307 306 303 303 303 301
291 291 290 293 291 291 291 291 290 290 297 298 301 304 304 305 306 306 306 306 306 309 307 308 308 308 309 308 308 308 308 307 311 306 308 310 310 303 301 303 305 306 307 308 309 309 309 308 308 307 305 304 303 303
293 291 290 294 292 291 291 291 290 291 298 299 301 304 303 303 306 307 309 308 307 304 303 304 306 307 308 308 307 305 309 310 305 308 309 307 302 300 300 302 304 305 306 308 308 308 308 308 307 306 305 304 304 303
295 296 292 292 292 291 290 291 290 291 298 298 298 299 302 304 305 305 305 304 302 302 303 303 305 306 307 307 306 307 307 304 308 309 307 303 299 298 300 301 303 303 304 305 306 307 306 306 305 305 304 304 303 302
295 296 296 291 291 291 290 291 290 292 296 297 297 300 301 300 300 299 299 300 300 301 302 304 304 304 304 304 305 305 308 308 308 306 305 299 298 298 299 300 301 302 303 303 304 305 305 305 304 303 303 303 301 300
294 295 296 291 291 290 291 290 290 293 294 295 296 298 299 300 299 298 298 300 299 301 302 303 303 305 302 305 306 308 307 308 306 298 298 296 296 296 297 299 300 302 302 302 302 303 303 302 302 302 301 301 300 299
294 295 295 291 290 291 291 290 290 293 294 294 296 296 298 297 298 297 297 297 298 299 302 302 306 307 302 305 305 306 306 301 295 295 295 295 295 296 297 299 299 301 302 301 301 301 301 300 300 300 299 298 298 298
294 295 294 292 292 291 289 290 291 292 293 295 295 295 294 295 295 295 295 295 297 298 299 301 298 302 305 307 305 298 295 293 294 295 296 296 296 296 297 298 299 300 301 301 301 300 299 299 299 298 298 297 297 296
294 295 293 292 291 291 289 289 290 292 293 293 293 292 293 293 293 293 293 293 294 295 297 297 299 302 302 297 296 294 293 292 291 293 295 297 295 296 298 297 297 299 300 300 300 299 298 297 297 297 297 296 296 296
294 294 293 293 291 290 289 289 289 291 292 291 291 291 291 291 290 290 291 292 293 294 295 296 298 297 296 295 294 293 292 292 291 290 292 294 295 295 296 297 296 297 298 299 298 299 298 297 296 296 296 296 296 296
293 294 294 292 291 290 289 289 289 290 290 290 290 289 289 288 288 289 291 292 293 294 289 296 296 296 294 294 293 292 291 290 290 288 289 290 291 292 293 295 296 296 296 297 298 297 297 297 297 296 295 295 295 296
294 294 292 291 290 289 288 288 289 288 288 289 287 286 287 288 288 289 290 290 291 293 294 294 294 293 293 291 290 289 289 289 289 289 288 287 288 288 290 291 293 295 295 295 296 298 297 296 295 294 294 295 295 295
293 292 290 289 289 288 287 287 288 287 289 288 286 286 285 287 288 287 288 290 291 292 293 293 292 290 289 288 287 287 287 287 287 287 287 287 287 288 289 289 290 292 294 295 294 294 297 296 293 293 293 293 294 294
293 291 291 290 289 288 284 286 286 286 286 287 287 286 284 287 286 287 288 291 290 291 291 291 289 287 287 287 287 287 287 286 286 286 285 285 286 287 287 288 289 290 291 293 293 292 294 295 292 291 291 293 293 295
291 290 289 286 285 284 285 284 285 286 288 287 286 285 282 285 282 282 282 289 290 290 290 289 288 286 286 286 286 287 286 286 286 286 285 284 284 285 286 287 288 289 290 291 291 291 291 293 292 290 290 291 293 295
291 289 287 287 282 284 286 287 286 286 286 282 283 284 284 282 282 282 282 289 289 290 290 288 287 286 286 286 286 286 286 285 284 285 286 284 283 283 283 284 286 288 288 289 289 289 290 291 292 291 289 289 292 295
291 287 286 285 285 284 284 284 285 286 285 283 282 280 280 281 280 283 288 290 290 290 288 287 286 286 286 286 285 285 285 284 284 284 284 284 284 284 283 284 285 287 286 287 287 288 288 289 290 290 289 290 292 294
289 287 283 283 283 283 285 284 284 285 284 285 285 281 281 282 282 288 289 290 290 288 286 286 286 286 285 285 285 285 285 284 284 283 283 284 284 284 284 284 285 286 286 287 287 287 287 287 288 289 288 290 292 292
286 285 285 284 283 283 284 284 284 285 285 285 283 282 282 286 287 288 289 288 287 287 286 286 286 285 285 285 285 284 283 283 282 282 282 284 284 285 283 283 284 285 286 286 286 287 287 287 287 288 288 289 292 293
286 286 285 283 284 285 284 284 283 283 283 284 284 284 285 286 286 287 287 286 286 286 286 286 285 285 285 285 285 285 284 283 282 281 281 281 282 282 282 282 283 284 285 285 286 286 285 285 285 285 286 288 290 291
285 285 285 285 284 282 282 282 281 282 282 282 282 282 283 284 285 286 287 287 287 286 286 285 285 285 285 284 283 283 283 282 281 280 279 279 280 281 282 282 283 283 284 284 285 285 284 284 284 284 285 287 289 289
283 285 283 282 279 279 279 280 280 280 280 280 281 281 281 282 283 285 286 286 286 286 286 286 286 285 284 283 282 281 280 280 280 280 280 280 281 282 283 283 283 284 284 283 284 284 284 284 283 284 285 287 288 287
279 281 280 279 277 276 278 278 278 278 278 278 278 278 279 280 281 285 286 286 286 286 286 286 285 284 283 283 282 281 280 280 280 280 280 281 280 281 282 283 283 283 282 283 283 283 284 283 284 285 287 288 287 286

GFSWCAN_850_thetae_045.txt.gz
Theta_e
298 300 295 292 295 295 296 297 297 295 295 295 294 294 294 294 294 292 298 301 302 304 309 310 311 312 311 311 310 311 311 311 311 313 312 312 311 311 313 315 313 313 315 316 315 314 313 311 314 318 313 312 311 312
298 297 293 291 293 295 296 297 296 296 296 295 294 295 294 294 294 294 296 301 301 302 308 311 311 312 312 312 312 310 311 310 311 312 311 309 312 310 312 316 312 315 312 314 311 311 310 313 314 312 311 310 309 310
298 296 292 291 293 295 295 296 296 296 296 296 295 295 295 295 295 294 294 300 301 303 308 311 311 312 312 312 312 311 311 311 311 311 311 312 312 311 313 311 315 314 313 315 314 315 313 313 311 310 309 308 307 309
298 296 292 291 292 294 295 296 296 295 296 295 295 295 293 295 295 295 293 298 299 302 306 311 311 311 311 311 312 311 311 311 311 311 310 311 313 312 313 312 313 311 313 313 313 312 312 311 311 310 308 307 307 308
298 296 293 291 292 293 295 296 296 296 296 295 294 294 295 294 294 295 293 299 300 302 306 309 310 311 311 311 311 311 311 311 311 311 311 312 311 310 308 309 310 312 312 314 314 313 313 312 311 309 308 307 306 307
297 295 292 292 291 293 295 295 295 296 295 294 295 295 296 296 295 296 301 302 302 303 304 310 311 310 311 311 311 312 311 311 310 311 311 310 311 313 313 313 312 313 313 314 312 314 314 313 311 308 307 305 305 305
295 295 292 292 291 294 296 293 294 295 294 294 296 296 296 295 295 298 301 302 305 305 305 308 309 311 310 310 310 310 310 310 309 309 309 310 312 312 312 312 311 312 312 312 314 314 312 311 311 308 307 305 303 302
295 294 292 291 291 294 295 292 291 291 290 297 296 296 296 295 297 300 302 304 305 306 307 307 308 309 310 311 310 310 310 309 309 309 310 311 311 311 314 311 313 313 315 314 313 313 313 313 310 307 305 304 303 302
295 293 291 291 291 294 292 291 291 290 291 299 298 297 297 299 300 302 304 304 305 305 307 308 308 309 310 310 311 310 310 311 308 309 310 310 312 313 310 310 310 310 312 312 311 311 310 309 308 306 304 302 303 301
294 292 291 291 293 295 291 291 290 290 296 299 300 301 301 301 303 304 305 306 307 307 307 309 309 310 310 310 309 311 310 310 308 309 307 309 311 311 303 302 303 304 307 310 311 309 308 307 306 305 304 304 304 302
294 292 291 291 294 293 291 291 290 290 298 299 300 301 303 303 305 305 306 307 307 307 309 309 308 308 309 308 310 309 307 305 310 307 308 307 311 303 300 301 303 305 306 306 309 309 310 310 308 305 303 303 302 302
294 293 292 293 295 291 291 290 290 291 297 298 301 303 303 305 306 305 306 305 306 307 307 308 308 308 308 308 308 307 307 305 309 305 308 309 306 299 299 301 302 304 305 306 308 309 310 309 307 306 305 303 302 303
295 294 294 292 294 291 291 290 290 291 300 301 301 302 303 303 305 307 308 307 307 304 305 305 305 307 308 307 305 304 308 309 305 306 309 305 299 298 298 299 302 303 304 305 307 307 307 308 311 309 307 303 304 303
295 295 296 296 294 291 291 290 290 291 298 298 298 298 301 303 303 304 303 302 301 302 303 304 304 306 307 305 304 306 307 304 307 308 306 300 297 296 297 298 300 301 302 303 304 306 306 307 309 307 305 304 304 303
295 295 295 296 293 291 290 291 290 291 296 296 296 298 300 300 300 299 300 301 300 301 303 304 304 303 302 303 302 304 306 307 307 306 300 297 295 295 296 297 299 300 301 302 303 304 304 304 305 304 304 303 302 302
295 295 296 295 291 290 290 291 290 291 294 294 295 297 299 300 298 299 299 299 299 301 302 303 303 305 305 304 305 307 306 306 305 295 296 295 295 296 295 297 298 299 300 301 301 302 303 302 302 303 302 301 300 300
294 295 295 295 292 291 291 290 289 293 294 293 294 296 297 297 298 298 298 298 299 300 302 301 305 306 301 304 305 304 305 299 295 295 296 295 295 295 296 297 297 299 300 301 301 301 301 300 300 300 300 299 299 298
294 295 295 294 292 291 290 290 291 292 293 293 293 295 295 295 296 296 296 297 297 298 299 301 299 302 304 306 302 297 295 295 296 295 295 295 296 295 295 296 298 297 299 300 300 300 299 299 299 298 298 298 297 296
295 295 294 293 292 291 289 289 290 291 292 293 293 293 293 294 294 294 294 293 295 295 296 297 298 300 300 298 297 295 295 294 293 294 294 294 295 295 294 295 297 297 297 298 299 299 298 297 297 297 297 296 296 295
294 294 294 293 292 290 289 289 288 291 291 291 291 291 291 291 292 292 291 292 292 293 294 295 297 297 298 297 296 295 293 292 291 291 291 291 291 292 293 293 293 295 296 297 297 297 297 297 297 296 295 295 296 295
294 294 294 293 292 291 289 289 289 290 290 290 290 290 289 289 288 287 288 290 291 292 285 294 295 297 296 297 295 294 292 291 290 289 289 289 290 288 289 290 290 290 293 295 295 295 296 296 296 296 295 294 294 293
293 293 294 292 291 289 288 288 289 289 288 289 288 287 287 287 287 288 290 291 291 292 293 294 294 295 295 294 293 291 289 288 288 288 288 287 288 288 288 288 289 288 290 293 293 294 295 295 294 295 294 294 293 293
293 293 293 290 289 288 287 287 288 287 286 286 286 286 286 287 288 287 288 288 289 290 291 293 293 293 292 290 287 287 287 286 287 287 287 287 287 287 287 287 286 287 288 291 291 292 293 294 293 293 293 292 292 291
293 293 291 291 290 288 286 286 287 287 287 286 285 287 285 287 286 286 287 288 290 290 291 292 292 292 288 287 286 286 286 286 287 287 286 286 286 287 286 286 286 287 287 288 290 291 292 292 292 291 291 291 291 290
293 291 290 283 287 283 279 281 282 285 287 287 288 286 282 285 281 280 284 286 290 290 291 291 291 288 287 286 286 286 286 286 286 286 286 285 285 286 286 286 286 287 286 287 288 290 290 290 290 291 290 289 290 290
290 290 286 285 280 281 281 284 284 285 287 286 286 284 284 283 281 284 284 289 289 290 291 291 290 288 286 286 286 286 285 285 285 285 286 285 284 283 284 284 285 288 286 285 285 287 288 288 288 289 289 289 288 289
289 284 287 287 285 285 284 284 286 285 286 285 282 282 283 283 284 284 288 288 290 290 290 289 287 286 286 286 286 285 285 285 285 285 285 285 284 284 283 283 284 285 284 285 285 285 286 287 287 287 288 288 287 288
289 287 282 284 283 284 283 283 283 283 284 285 284 284 285 284 286 288 288 289 290 289 288 287 286 286 286 286 285 285 285 285 285 285 285 285 285 285 284 284 283 283 283 284 285 286 286 285 286 286 286 287 287 287
287 286 286 280 283 283 284 284 284 285 286 285 284 283 283 286 287 288 289 290 290 290 290 288 287 286 286 285 285 285 285 285 284 284 284 284 284 285 283 283 283 282 283 283 284 285 286 286 286 286 286 286 286 286
286 286 285 283 283 284 286 285 284 284 284 285 285 285 285 286 287 287 287 287 287 287 286 286 286 285 285 285 286 285 284 284 283 282 281 282 282 282 282 282 282 282 282 282 283 285 285 286 286 285 285 285 285 285
286 286 285 285 284 283 284 283 283 283 282 282 283 282 283 284 285 286 287 287 287 287 286 286 285 285 285 286 285 285 284 283 282 281 280 280 280 280 280 281 282 282 282 282 283 284 285 285 285 284 284 284 284 284
285 286 284 283 279 280 281 281 282 281 280 281 282 282 282 282 283 286 287 286 286 286 286 286 286 286 286 285 284 283 282 282 281 281 280 280 280 281 281 281 281 282 283 283 283 284 284 284 285 284 284 283 283 284
281 282 281 280 277 276 278 279 279 278 278 278 279 278 279 281 282 285 286 286 286 286 286 286 286 286 285 285 283 282 282 282 281 280 280 280 280 281 281 281 281 282 283 283 283 283 284 284 284 283 283 283 283 284

GFSWCAN_850_thetae_048.txt.gz
Theta_e
299 295 298 298 296 292 292 296 297 296 296 296 295 294 295 294 294 294 294 300 301 302 307 309 311 311 310 311 311 311 310 310 310 312 312 310 310 310 312 312 311 311 311 314 313 314 311 310 312 317 313 312 311 311
296 298 297 295 294 291 292 295 297 295 296 295 295 294 294 295 295 295 293 299 300 301 306 309 311 312 311 312 311 310 310 310 311 311 310 307 309 309 310 317 310 312 309 312 312 311 308 311 313 313 311 310 309 310
297 298 298 297 293 296 292 294 297 296 296 295 295 294 294 295 295 295 294 294 300 300 306 309 310 311 311 312 312 311 311 310 311 310 309 308 310 308 311 310 312 311 310 313 312 313 310 312 312 312 310 308 308 308
298 298 297 297 296 294 294 294 296 296 295 295 295 294 294 294 295 295 295 294 298 300 303 310 311 311 311 311 311 312 311 311 310 311 311 310 313 311 312 310 312 311 311 313 312 311 312 311 312 311 310 308 307 308
298 298 297 297 297 293 294 295 296 296 295 295 294 294 294 295 295 295 295 293 298 299 304 308 310 311 311 311 311 311 311 311 311 310 311 312 310 310 307 307 308 310 311 313 314 313 312 313 313 312 310 308 307 308
298 298 297 296 295 293 294 295 296 296 295 295 294 294 294 295 296 295 297 294 300 299 301 308 311 311 311 311 311 311 311 311 310 310 310 310 310 312 312 313 310 311 312 312 312 313 313 313 312 311 309 307 306 306
298 297 296 296 295 292 295 295 295 296 296 292 295 295 296 295 295 296 300 300 302 301 303 307 307 311 310 310 310 310 310 311 310 309 309 310 311 310 311 312 310 312 313 313 314 314 312 313 312 310 308 307 305 304
297 297 297 296 293 293 293 296 294 293 290 293 295 295 296 296 295 297 300 301 302 304 305 307 307 308 310 311 310 310 310 309 309 309 310 310 310 310 312 311 308 307 310 312 312 311 312 312 311 309 307 305 304 303
297 296 296 292 292 291 294 294 291 290 290 298 297 297 297 298 300 301 303 303 304 304 306 307 307 308 310 310 310 310 310 311 308 308 309 309 312 312 303 301 301 302 303 306 309 310 310 309 309 307 305 303 303 302
296 295 294 294 291 294 295 291 291 290 294 299 299 301 301 301 302 303 304 304 305 306 306 308 308 308 309 310 309 311 310 310 309 308 307 309 311 304 300 300 301 302 304 304 306 308 309 309 308 307 305 304 303 304
296 294 294 293 291 295 293 291 291 290 297 299 300 301 302 303 303 303 305 306 305 306 307 308 309 307 309 307 309 309 307 305 310 307 308 307 309 301 298 299 301 302 303 304 305 306 308 308 309 307 305 303 303 303
296 294 293 294 292 295 292 291 290 290 296 298 300 302 302 303 304 305 306 304 306 307 308 308 308 308 308 308 307 306 307 305 309 305 307 309 305 298 297 298 300 301 302 304 305 306 308 309 308 307 306 305 303 302
295 295 295 296 293 295 292 291 290 291 297 299 301 302 303 303 305 306 307 307 307 304 305 306 305 307 307 307 305 304 308 309 304 306 308 306 298 296 296 297 300 301 301 303 305 306 306 308 308 306 305 304 303 303
295 295 295 296 296 294 292 290 290 291 298 298 299 301 302 303 303 303 297 301 302 302 303 304 305 306 306 305 305 307 306 304 307 308 306 299 296 295 296 297 298 300 301 301 303 305 306 307 309 309 309 308 306 304
295 295 295 296 296 292 291 290 290 291 296 296 296 298 300 300 300 299 300 300 301 302 303 303 304 304 302 304 303 303 306 306 306 306 300 296 295 295 296 296 297 299 300 301 302 303 304 305 305 306 307 305 303 302
295 295 295 295 295 290 291 290 290 292 294 295 295 295 298 299 298 299 300 300 300 301 302 304 302 304 305 304 305 305 306 306 300 297 296 296 296 296 296 297 297 298 299 301 301 301 302 302 303 303 303 302 301 301
295 295 295 295 293 291 291 290 290 292 293 293 294 296 297 297 298 298 299 299 299 300 302 302 305 306 301 304 304 303 305 300 297 297 296 295 296 296 296 295 296 298 299 300 301 301 301 301 301 301 301 301 300 299
295 295 295 294 292 291 290 289 291 292 292 293 292 294 295 296 296 296 297 297 298 299 299 301 299 302 304 306 299 294 296 297 297 297 295 294 294 295 295 294 295 297 298 298 299 300 300 300 299 298 298 298 298 297
296 295 294 294 292 291 289 289 290 291 292 293 293 293 294 294 294 294 295 295 296 296 296 297 298 300 299 296 298 297 296 296 296 295 294 293 293 293 292 292 293 295 296 297 298 299 299 299 298 297 296 296 296 296
295 294 294 294 292 291 289 289 288 291 291 291 292 292 292 292 292 293 293 293 293 294 293 295 296 299 299 299 298 298 297 295 294 293 292 291 290 290 290 290 290 291 292 294 296 296 297 298 298 297 296 295 295 295
294 294 294 294 293 291 290 289 289 290 291 290 290 291 290 289 290 290 291 291 291 291 287 293 295 297 297 297 297 296 294 293 291 290 289 289 288 288 288 288 288 289 290 290 292 294 295 294 295 295 296 295 294 294
294 293 294 293 292 291 288 288 289 289 289 289 289 289 287 286 287 287 289 290 290 291 291 292 292 294 295 296 295 294 292 290 288 287 287 287 287 286 286 286 287 287 288 288 287 290 293 294 294 295 294 294 293 292
294 292 293 293 290 288 287 287 288 288 286 286 286 285 285 286 288 287 288 289 290 291 291 292 293 293 294 294 292 290 288 287 286 286 286 286 287 287 287 287 286 286 286 287 287 288 290 291 292 293 294 292 292 291
293 293 293 291 289 287 287 286 286 286 287 285 285 286 283 286 286 286 283 287 289 290 290 290 291 292 292 292 288 286 286 286 286 286 286 286 286 286 286 287 287 286 286 286 286 287 289 290 291 292 292 292 292 291
293 292 291 282 287 284 279 280 280 283 282 284 286 285 282 285 281 280 282 287 289 289 290 291 291 292 292 289 286 286 286 286 286 286 286 285 285 286 287 287 287 286 285 285 286 286 287 288 289 290 290 290 290 290
291 290 288 284 279 281 281 281 282 282 285 284 284 284 284 280 280 282 284 289 289 290 290 291 291 291 291 288 286 286 286 286 285 286 286 285 285 285 285 286 286 288 285 284 284 284 285 286 287 288 288 288 288 288
290 284 287 287 286 284 282 285 286 285 284 284 280 279 281 283 283 285 288 289 289 289 290 290 290 289 287 286 286 286 286 286 285 285 285 285 286 285 284 284 285 286 284 284 283 284 284 285 285 286 286 286 287 287
291 288 284 285 284 284 279 281 282 283 284 286 284 282 283 283 285 288 288 288 289 289 288 288 287 287 286 286 286 286 286 285 285 285 286 286 286 286 285 284 284 283 283 283 283 283 283 284 284 285 285 286 286 286
287 287 287 276 282 283 283 283 284 287 287 285 282 283 282 286 287 287 288 288 289 290 289 288 288 287 287 287 286 286 285 285 285 286 286 287 286 286 283 283 283 282 281 281 281 281 282 283 283 284 285 286 286 285
286 287 284 281 279 281 285 285 285 285 285 286 285 285 285 286 288 288 287 288 288 288 288 287 287 287 286 286 286 285 285 285 286 285 284 285 284 283 282 281 281 281 280 280 281 282 283 283 284 285 285 285 284 284
287 286 284 284 282 284 285 285 285 284 283 283 284 283 283 285 286 287 287 288 287 287 287 286 286 286 286 286 286 286 287 285 285 283 282 282 282 282 281 281 281 281 280 281 281 282 283 283 284 285 285 285 284 284
285 286 283 281 278 281 282 282 284 284 282 282 283 283 282 283 283 287 287 288 287 287 286 286 286 286 286 286 287 286 286 285 284 283 282 281 281 281 281 280 281 281 280 281 281 282 283 283 284 284 285 285 284 284
282 283 281 279 276 277 280 281 280 279 279 278 279 279 280 281 282 286 287 287 287 286 286 286 286 286 287 287 286 285 285 284 283 282 281 280 280 280 280 280 281 281 281 281 282 282 283 283 284 284 285 284 284 283

GFSWCAN_850_thetae_051.txt.gz
Theta_e
297 298 299 296 298 297 295 292 295 297 297 295 296 296 294 295 295 294 294 297 300 301 305 307 309 311 309 310 308 310 309 310 310 312 311 309 309 311 311 311 311 311 311 312 311 313 311 309 312 317 313 312 311 310
298 299 297 298 298 297 294 295 293 296 297 295 295 295 294 294 295 295 293 296 298 299 304 307 309 311 311 311 310 310 310 310 311 311 310 308 309 307 309 315 309 311 307 309 309 309 308 310 312 313 312 311 309 309
299 298 298 297 297 297 295 296 293 295 297 295 294 295 294 294 295 294 294 294 294 299 303 305 308 310 311 311 311 310 310 311 310 310 309 306 309 306 310 308 311 309 309 310 311 312 309 312 313 312 312 311 309 308
297 297 298 297 297 297 296 296 293 296 297 296 294 295 294 294 294 294 294 294 295 298 300 308 308 310 310 311 312 311 311 311 310 310 310 311 312 309 310 308 311 310 310 311 311 311 313 313 313 313 312 311 309 308
298 298 298 297 296 297 297 295 293 296 296 295 295 294 295 294 294 296 295 294 294 296 300 306 309 310 310 310 311 311 311 311 311 310 311 312 310 309 307 308 308 308 309 311 313 312 311 312 313 312 312 310 308 307
299 298 298 298 297 296 295 293 295 297 295 295 295 295 294 294 295 296 294 294 294 296 297 307 309 310 310 310 310 311 311 311 311 311 311 310 310 310 312 312 309 310 310 310 310 312 311 312 312 312 311 309 308 307
298 298 298 297 297 295 293 293 296 296 296 295 295 294 294 296 295 295 298 298 300 298 299 306 307 310 310 310 310 311 311 311 310 310 309 310 310 310 310 309 307 306 307 310 310 311 311 312 312 311 310 308 308 306
299 299 298 297 296 295 293 293 296 295 293 290 295 295 295 295 295 295 299 299 299 299 302 306 307 308 309 310 310 310 310 309 309 309 309 309 309 310 311 305 302 303 305 308 309 308 308 310 311 310 309 308 306 305
298 298 297 296 296 294 293 295 295 291 290 296 296 295 295 296 297 300 300 300 301 302 305 307 307 308 310 310 309 309 309 310 309 308 309 309 310 311 303 299 300 301 301 302 304 305 308 308 308 308 307 306 304 304
297 297 296 296 294 294 294 295 294 291 290 298 297 298 300 300 301 301 303 303 303 304 305 307 307 306 309 309 309 310 310 310 308 308 307 309 310 301 300 298 299 300 301 302 303 305 306 308 308 308 308 305 303 303
297 296 296 294 295 293 295 295 292 290 295 299 298 300 301 302 303 303 304 305 304 306 306 306 307 307 308 305 307 308 307 305 310 307 308 307 309 302 298 298 298 300 302 302 302 304 305 305 306 308 308 305 303 302
296 296 295 294 295 293 296 294 291 290 296 298 299 301 302 303 301 303 304 304 305 304 307 308 307 307 307 308 307 306 306 305 310 305 307 308 305 297 297 297 299 300 301 302 303 304 305 307 307 308 308 305 303 303
296 296 295 295 295 294 295 293 291 290 295 298 300 300 302 302 304 306 307 305 306 304 304 305 305 307 307 307 305 305 307 309 304 307 306 306 297 296 296 297 298 299 300 301 303 304 305 306 307 306 306 304 303 303
295 295 295 295 295 293 294 293 290 291 297 298 298 302 302 303 302 302 297 301 301 303 303 304 305 305 306 305 305 308 305 303 306 307 306 299 296 295 296 296 298 299 300 300 302 302 303 304 306 307 305 305 306 304
295 295 295 295 295 295 293 291 290 291 296 296 296 297 300 299 300 300 301 301 301 302 303 303 303 304 302 304 304 304 305 306 306 305 299 296 296 297 296 297 297 298 299 300 301 301 302 302 302 304 306 306 306 305
295 295 295 295 295 296 291 290 290 291 293 295 294 292 297 299 298 298 299 300 301 302 303 302 302 303 303 304 304 305 305 305 299 298 297 296 296 297 296 295 295 297 297 298 300 301 301 302 302 301 302 303 303 302
295 295 295 295 295 293 291 290 290 291 292 292 293 294 296 297 298 299 299 300 300 301 302 302 305 303 301 305 305 303 305 300 297 297 296 296 296 296 296 295 294 295 297 298 299 300 301 301 300 300 300 300 299 299
295 295 294 294 293 292 291 290 290 292 292 293 292 294 295 296 297 297 297 298 299 299 300 302 300 302 304 305 303 298 298 298 299 297 296 295 294 294 294 293 292 293 294 295 297 298 299 300 300 299 298 298 298 298
295 294 294 293 292 292 290 290 289 291 291 293 293 293 294 294 295 295 296 296 297 298 298 297 297 301 296 295 294 298 298 299 299 298 296 295 293 292 291 290 290 291 291 291 292 294 296 297 298 298 297 297 297 296
295 294 294 293 292 292 290 290 289 290 291 291 292 292 293 292 293 293 294 294 295 295 294 295 296 297 299 300 301 301 300 299 298 297 295 292 291 290 289 288 288 289 289 289 290 291 293 295 295 296 296 296 295 295
294 294 294 294 293 291 290 289 289 290 291 290 290 291 290 290 290 291 292 292 293 292 289 294 296 298 299 299 299 299 298 297 295 293 291 289 288 287 287 286 287 287 287 287 287 288 289 291 293 294 295 296 295 294
295 294 293 293 293 291 288 288 289 289 289 289 289 289 288 287 287 288 289 290 291 292 294 295 296 295 295 296 297 296 295 294 292 289 288 287 287 286 286 286 287 287 287 287 287 287 287 288 289 291 293 294 295 295
294 294 293 293 291 289 287 287 288 288 284 286 286 284 284 286 287 287 288 289 290 291 292 292 293 292 292 294 295 294 293 291 288 287 286 286 286 286 286 286 286 287 287 287 286 287 287 287 288 289 290 292 293 294
294 294 293 292 289 286 287 286 286 286 286 284 282 283 282 285 286 285 284 286 290 291 291 291 291 291 293 294 294 293 290 287 286 286 286 286 286 286 286 286 286 286 286 287 287 286 286 287 287 287 289 290 291 292
294 292 291 283 287 285 278 278 278 280 281 280 283 281 280 284 279 279 283 287 289 289 290 290 290 290 292 293 292 290 287 286 286 286 286 286 286 286 286 285 286 286 286 286 286 286 286 285 286 286 287 288 289 289
289 290 288 285 279 281 280 278 278 278 279 279 279 282 283 277 278 283 283 288 289 289 289 290 290 291 291 292 291 287 286 286 286 286 286 285 285 285 285 285 287 288 286 284 285 285 286 285 285 285 286 286 287 286
288 284 288 288 287 285 281 284 285 281 278 280 279 279 278 281 281 283 288 288 289 289 290 290 290 290 291 291 289 286 286 286 286 286 286 286 285 285 285 285 286 286 285 285 284 284 284 285 285 284 285 285 285 286
292 289 284 286 284 284 278 278 278 280 280 286 284 281 283 281 284 288 288 288 289 289 290 290 289 289 289 287 286 286 286 286 286 286 286 285 285 286 285 285 284 284 284 284 283 283 283 283 284 284 284 284 285 285
288 288 288 276 282 283 283 281 281 286 287 286 282 282 282 286 288 288 288 288 288 289 289 288 288 288 287 287 287 286 286 286 285 285 285 286 287 286 285 284 283 283 283 282 282 281 281 281 282 282 282 283 284 284
287 287 285 281 278 280 286 286 286 287 287 287 286 285 286 287 288 288 288 288 288 288 289 289 289 289 289 289 288 287 286 285 285 285 286 286 286 285 285 284 283 282 282 281 281 281 281 281 281 282 282 282 283 284
288 287 284 283 280 285 286 285 285 285 285 285 285 284 285 286 287 289 290 291 291 289 288 287 287 287 286 286 286 286 285 286 286 285 285 285 285 284 284 283 282 281 281 281 281 281 281 281 281 282 282 283 284 284
285 285 282 277 277 282 282 283 284 284 282 283 284 284 284 284 285 289 290 290 288 288 288 287 287 286 286 286 286 286 286 286 285 285 285 284 284 284 283 282 281 281 281 280 280 281 280 281 282 282 283 283 284 285
283 284 281 279 277 277 280 282 281 280 280 280 280 280 281 282 282 288 288 289 288 287 287 286 286 286 286 286 287 286 286 286 286 286 285 284 283 282 280 280 280 280 281 281 281 281 281 281 282 282 283 284 284 284

GFSWCAN_850_thetae_054.txt.gz
Theta_e
301 299 299 298 299 298 297 297 294 293 297 297 296 296 296 294 295 294 294 295 299 300 303 304 307 309 309 308 307 309 307 309 309 311 311 310 310 311 310 309 311 310 309 312 309 312 310 308 312 316 313 312 311 310
301 299 300 299 299 298 297 297 295 296 293 296 297 295 295 295 294 295 294 294 295 298 301 304 305 307 310 310 310 310 308 309 309 309 308 309 310 308 308 315 308 310 306 307 307 306 307 309 311 311 312 311 310 309
301 299 299 299 298 297 297 297 296 296 293 295 297 296 295 296 294 296 294 293 293 295 299 301 305 308 310 311 310 309 310 310 310 310 309 306 308 305 309 307 309 309 307 308 310 312 310 311 313 313 312 311 310 309
299 299 299 298 298 297 297 297 296 296 294 296 297 295 295 294 294 295 295 294 293 295 297 304 306 308 310 311 311 310 311 311 310 310 309 309 311 307 307 307 310 308 308 308 308 310 312 312 313 313 312 311 311 309
300 300 298 297 298 297 296 296 296 296 294 296 296 294 294 294 294 294 295 295 294 295 297 300 305 308 310 310 311 311 311 311 310 310 310 310 310 309 305 305 305 307 310 312 313 310 310 311 312 312 312 311 310 309
301 300 298 298 298 296 297 296 295 293 296 296 294 294 294 294 294 295 295 295 295 294 296 301 307 309 309 309 310 310 311 311 311 311 311 310 310 310 310 311 308 309 309 308 309 310 311 312 311 311 311 311 310 308
301 300 299 298 297 296 296 295 294 294 296 295 295 294 294 294 295 295 294 297 295 294 296 300 308 309 310 310 310 311 310 311 311 310 310 310 310 310 311 308 307 304 304 305 307 309 310 309 309 309 310 309 309 308
300 300 299 298 297 296 296 294 294 295 295 294 293 294 295 295 295 295 295 297 296 297 298 304 307 308 309 309 310 310 310 310 309 309 309 309 309 309 310 307 302 302 304 306 306 306 304 307 308 308 308 308 307 307
300 300 299 299 297 296 296 294 294 295 292 290 295 295 295 295 295 298 299 299 299 298 301 306 306 306 309 310 309 309 308 309 308 309 308 309 310 311 306 301 302 301 300 301 304 304 305 305 308 307 307 306 306 306
300 299 298 298 296 296 294 294 295 294 290 295 296 297 298 299 300 300 300 299 298 301 302 306 306 307 309 309 309 310 309 310 307 309 307 307 309 303 302 300 299 299 299 300 300 301 303 305 305 306 307 306 305 304
299 298 298 296 295 294 294 295 295 291 292 297 298 299 300 301 301 301 303 304 304 304 305 305 306 306 308 306 308 308 307 305 310 307 308 307 309 303 300 298 298 299 300 301 301 302 302 303 304 306 306 307 306 304
298 297 296 295 295 294 294 295 293 290 295 298 299 300 301 302 302 302 304 303 304 303 305 307 307 307 307 308 306 305 307 305 310 305 307 306 304 297 297 297 298 299 300 301 300 301 303 304 305 306 306 307 307 304
297 297 296 295 295 294 295 295 292 290 292 296 299 300 301 301 303 304 306 305 306 304 304 305 305 307 307 307 304 305 307 308 304 307 305 303 297 296 296 297 298 298 300 300 301 302 302 304 305 305 305 305 304 303
297 296 296 295 295 294 293 295 292 292 296 297 299 301 301 303 302 303 296 294 301 303 304 305 305 305 306 304 305 308 306 303 306 307 306 299 296 296 296 296 297 297 298 299 299 300 302 304 305 305 304 302 301 302
296 295 295 295 294 295 294 294 291 291 296 295 297 297 300 300 300 300 300 300 301 302 304 304 303 305 302 304 304 304 306 307 306 305 299 297 296 296 295 295 295 297 297 298 299 299 299 300 302 304 304 304 305 305
295 294 294 295 295 295 295 292 290 291 293 295 294 294 296 298 298 299 300 300 302 302 303 303 302 300 304 301 304 305 305 305 298 296 297 297 297 296 296 295 294 294 295 296 297 298 299 300 300 300 300 300 302 303
295 295 294 294 294 294 295 291 290 291 292 292 292 294 295 296 297 299 299 300 300 301 302 302 304 303 301 304 304 303 304 297 299 298 298 297 297 297 296 295 293 293 293 293 294 296 297 298 299 300 299 298 298 298
295 294 294 294 294 293 292 290 290 292 292 292 291 293 295 296 297 297 298 298 299 300 300 302 300 302 304 305 298 295 300 299 300 299 298 297 296 295 294 293 291 291 291 291 291 292 293 295 297 298 298 298 298 298
295 294 294 294 293 293 292 291 291 291 291 292 292 293 294 294 295 295 296 297 298 298 298 297 299 301 297 295 294 299 299 300 299 298 297 297 296 294 293 291 290 289 289 289 289 290 290 291 294 295 296 297 297 296
294 294 293 293 292 293 291 290 291 290 291 291 292 292 292 292 293 294 294 295 295 296 295 295 296 298 299 301 301 302 302 300 300 298 296 295 294 292 290 288 288 287 287 287 287 287 288 289 289 292 294 295 296 296
294 294 294 293 292 291 290 289 289 289 290 290 290 291 290 290 291 291 292 293 293 294 288 296 297 300 300 300 300 300 301 300 299 298 297 294 291 289 287 286 286 286 287 287 287 287 287 287 287 288 289 292 293 294
294 294 293 293 293 290 288 288 289 289 289 289 289 289 289 287 288 289 290 290 292 293 294 296 297 298 298 298 298 298 298 298 297 295 292 290 288 287 286 286 286 286 286 286 287 287 287 287 287 287 287 288 290 293
294 293 293 293 291 289 287 287 288 288 286 286 286 286 286 285 287 286 287 289 290 292 293 293 294 295 295 293 294 296 296 296 294 291 289 287 286 286 286 286 286 286 286 287 287 287 287 287 287 287 287 287 288 290
294 293 293 292 290 285 286 286 286 286 286 284 282 284 283 284 286 285 284 285 289 292 292 292 292 292 292 292 292 293 294 293 291 288 287 286 286 286 286 286 286 286 286 287 287 287 287 287 287 287 287 287 287 287
294 292 292 281 286 285 279 278 277 280 281 279 281 281 280 283 279 279 283 286 289 289 289 289 290 290 290 291 292 293 293 291 288 286 286 286 286 286 286 286 286 285 286 287 287 287 287 286 286 286 286 286 286 286
290 290 289 287 280 281 279 277 277 279 279 279 279 281 282 276 277 282 282 288 288 288 289 289 290 290 290 290 292 293 292 289 286 286 286 286 286 286 286 286 286 286 286 286 286 286 286 285 285 286 286 285 285 285
286 284 288 288 288 286 281 283 284 279 276 280 278 277 277 280 280 282 289 289 288 289 289 290 290 290 290 290 291 292 288 287 286 286 286 286 286 285 285 285 286 286 286 286 285 284 284 284 284 285 285 285 284 284
292 289 285 285 284 284 278 277 277 279 279 284 283 279 280 282 285 289 289 288 288 289 290 290 290 290 290 290 290 290 288 286 286 286 286 286 286 285 285 286 286 285 285 284 284 284 283 282 282 283 283 283 283 283
289 287 288 276 282 283 283 281 280 286 287 287 282 280 281 287 290 290 289 289 289 288 289 289 289 289 289 288 288 287 287 287 287 287 286 286 286 285 286 285 284 284 283 283 283 282 281 281 281 281 281 281 281 282
286 288 286 281 280 281 288 288 286 287 287 287 287 286 287 289 291 291 290 290 291 291 290 289 289 289 288 288 288 288 288 288 288 287 286 285 285 286 286 285 284 283 282 281 281 281 281 280 281 281 280 280 280 281
289 287 285 284 280 287 289 288 286 286 285 285 286 285 286 287 289 291 292 293 292 292 292 290 289 288 288 289 289 288 287 286 286 285 286 286 286 286 285 285 284 283 282 281 281 281 280 280 281 280 280 281 282 282
286 286 282 276 278 284 284 283 284 284 283 284 285 285 285 285 286 289 291 292 292 292 290 289 289 289 287 286 286 286 285 285 286 286 286 286 286 285 285 284 283 281 280 280 280 280 280 280 280 280 281 282 282 283
282 282 281 282 280 279 281 282 280 281 281 281 282 283 283 284 284 290 290 290 291 290 288 287 287 287 287 286 286 285 286 286 286 286 286 286 286 285 283 281 280 279 279 279 280 280 281 280 280 281 281 282 282 283

GFSWCAN_850_thetae_057.txt.gz
Theta_e
310 309 308 302 299 298 298 298 297 297 295 295 297 297 296 296 295 294 294 293 295 299 300 302 304 306 308 306 305 308 307 307 308 310 310 310 309 310 309 308 308 308 308 308 307 309 306 307 311 316 313 312 311 311
311 309 306 305 299 298 299 298 297 297 296 295 295 296 297 295 296 294 296 294 294 294 297 301 302 303 304 306 309 308 306 307 308 308 308 309 309 310 307 315 308 310 306 306 305 305 305 308 311 311 311 311 311 310
310 305 303 301 299 299 299 297 297 297 296 296 295 296 297 295 296 295 296 295 294 293 293 293 294 303 305 307 309 307 309 309 310 310 307 307 307 304 307 306 308 308 306 307 309 310 307 311 313 312 312 311 311 310
310 306 304 300 299 299 297 297 296 296 296 297 295 296 296 295 295 294 295 295 294 293 295 297 304 302 305 308 309 310 309 310 310 310 309 309 310 305 305 305 306 307 307 308 307 307 310 311 313 311 312 311 311 310
308 308 302 300 299 299 298 297 296 296 297 295 295 296 295 294 294 294 294 295 295 294 295 295 299 304 306 308 310 310 310 310 310 310 309 310 309 308 304 303 304 306 307 310 313 309 308 310 311 312 311 311 310 310
309 307 302 300 300 299 298 297 296 296 295 294 296 296 294 294 294 295 295 295 294 295 293 298 301 306 308 310 310 310 310 310 311 311 310 310 310 309 310 309 306 307 308 308 309 310 310 311 311 310 310 309 309 309
309 306 303 301 300 299 297 296 296 295 294 295 296 295 294 294 294 295 295 296 295 295 295 297 301 308 308 309 310 310 310 310 311 311 310 310 310 309 311 311 306 307 305 305 305 307 308 308 308 309 309 309 309 308
307 306 302 300 300 298 297 296 296 295 293 295 294 294 294 295 296 295 295 295 295 295 296 300 303 308 309 308 309 310 310 310 310 310 309 309 309 309 310 309 304 305 305 305 304 304 304 305 305 307 308 308 308 308
306 304 302 300 299 298 297 296 296 294 295 293 294 294 295 295 295 295 295 295 296 296 297 302 304 308 308 309 309 309 309 309 308 309 308 309 309 310 308 306 303 302 302 302 303 303 303 304 304 305 306 307 307 306
305 303 300 300 299 298 297 296 295 295 295 291 296 296 297 298 299 299 298 296 296 298 298 303 306 308 308 309 308 309 308 310 308 309 307 308 308 305 303 301 300 300 299 299 300 301 302 303 303 304 305 306 306 307
305 302 300 299 299 298 296 295 295 295 292 294 297 298 300 300 299 299 301 300 301 303 303 304 305 307 307 307 308 308 306 306 309 307 308 308 308 303 300 299 298 299 299 300 299 300 300 301 303 304 305 305 306 307
303 300 299 298 298 296 295 294 295 295 292 297 298 299 300 300 300 302 303 303 303 303 304 306 305 306 307 308 304 304 306 305 308 305 307 308 303 297 297 298 298 299 299 300 300 300 301 302 303 303 304 306 306 306
301 300 298 298 296 295 294 295 294 293 290 296 297 299 300 301 302 304 304 305 305 304 305 305 305 306 307 307 304 304 307 309 305 307 307 302 297 296 296 297 298 298 299 299 300 300 301 302 303 304 303 303 304 305
300 298 298 296 295 295 295 295 295 291 292 297 297 299 300 303 302 302 298 300 301 302 304 306 305 305 306 303 305 308 306 304 306 307 306 299 297 296 296 296 297 297 298 299 299 299 300 302 303 303 304 302 301 301
298 297 296 295 295 294 294 295 294 292 296 296 296 298 300 299 300 300 300 300 301 302 304 304 304 304 303 304 303 304 306 306 306 304 297 298 297 297 295 294 295 296 296 297 298 299 300 300 301 301 302 303 304 304
297 296 296 294 294 294 294 294 293 291 294 294 294 294 295 297 297 299 300 300 301 302 303 304 302 298 304 299 304 303 303 300 299 292 299 297 298 297 296 294 293 293 293 293 294 295 297 298 300 300 299 300 301 302
295 295 294 295 294 294 294 294 291 290 292 292 291 293 294 295 297 299 300 300 301 302 302 302 304 303 300 302 302 302 297 295 301 300 299 299 299 298 297 295 293 292 291 291 291 291 292 294 296 298 299 299 299 299
295 295 295 294 294 293 293 291 290 291 292 292 291 292 294 295 296 297 298 299 299 300 300 301 301 303 304 304 298 294 301 301 301 301 300 299 298 297 296 295 293 291 290 289 289 289 290 290 292 294 295 297 297 297
295 294 294 293 293 293 292 291 291 291 291 292 292 293 293 294 295 295 295 296 298 298 299 297 300 300 299 295 294 300 300 300 300 299 297 297 296 295 294 293 291 289 288 287 287 287 287 288 289 290 292 293 295 296
294 294 293 293 292 293 291 290 291 291 291 291 292 292 292 292 293 293 294 294 295 296 295 293 293 298 299 301 301 302 302 301 301 299 298 298 296 294 293 291 289 288 287 287 287 287 287 287 286 287 288 289 291 293
294 293 293 292 292 292 290 289 289 290 290 290 290 291 291 291 291 292 293 293 293 294 288 296 297 300 300 300 300 301 301 301 301 300 299 298 296 294 290 288 286 286 286 286 287 287 287 287 287 287 287 287 287 289
293 293 293 292 292 289 289 289 289 289 289 289 289 289 289 288 288 289 290 291 292 293 294 295 295 296 297 298 299 299 299 300 299 298 297 295 292 289 287 286 286 286 286 286 286 287 287 287 287 287 287 287 287 287
293 293 293 292 291 288 286 287 288 287 286 286 287 287 287 286 287 287 287 289 290 292 293 293 293 293 294 295 296 296 297 297 297 297 294 291 288 287 286 286 286 286 286 286 286 286 287 287 287 287 287 287 287 287
294 293 293 291 290 284 286 285 286 286 286 285 283 285 284 284 285 285 285 286 290 291 291 291 291 292 292 292 293 294 294 295 295 294 292 288 287 286 286 286 286 286 286 286 286 286 287 287 287 287 286 286 286 286
294 291 291 283 286 284 278 277 276 280 281 279 281 282 281 283 282 283 285 287 290 289 288 289 289 289 290 291 291 291 292 293 294 292 289 287 286 286 286 286 286 286 286 286 286 287 287 287 287 286 286 286 285 286
287 289 288 287 283 281 278 278 276 278 278 279 278 280 281 278 281 285 285 289 289 288 289 289 289 289 289 290 290 291 292 293 292 289 287 286 286 286 286 286 286 286 286 286 287 287 287 286 286 286 286 285 284 284
286 283 286 287 287 285 281 282 283 278 276 280 278 277 277 281 281 284 290 290 289 289 290 290 290 290 290 290 290 291 292 292 290 288 286 286 286 286 286 286 286 286 286 286 286 286 286 286 286 285 284 285 284 283
291 288 285 286 285 285 277 277 276 278 278 284 282 279 281 283 287 291 291 290 290 290 290 290 290 290 290 290 290 290 291 290 288 287 286 286 286 286 286 286 285 285 286 286 285 285 285 284 284 283 283 283 283 282
288 287 287 277 282 283 282 280 280 286 287 286 281 280 281 290 294 294 292 291 290 290 291 291 290 290 289 289 289 289 288 288 288 287 287 287 287 287 286 285 285 286 285 285 284 284 283 283 283 283 282 281 281 281
287 288 286 281 278 280 288 289 287 287 286 286 287 288 288 290 292 292 292 292 292 292 292 291 291 291 291 289 289 288 288 288 288 287 288 288 287 286 285 285 285 285 284 284 284 284 282 281 281 281 280 280 280 280
288 287 285 285 281 288 290 289 288 287 286 286 286 285 286 287 289 292 292 292 292 292 292 292 292 291 289 289 288 288 288 288 288 288 286 286 285 285 286 285 285 284 283 283 282 282 281 280 280 280 280 280 280 280
286 286 283 277 280 286 286 286 285 285 284 285 286 286 286 285 286 289 291 291 291 292 292 292 291 291 289 288 287 286 286 286 286 286 285 285 286 286 285 285 284 283 282 281 280 280 280 280 280 280 280 280 280 280
282 281 281 283 281 282 282 284 281 281 281 282 285 286 285 285 285 290 291 291 291 291 291 290 289 288 288 288 287 286 285 285 285 286 286 286 286 286 286 285 284 282 280 279 279 279 279 280 280 280 280 280 281 281

GFSWCAN_850_thetae_060.txt.gz
Theta_e
309 311 311 309 307 306 302 296 297 298 298 297 296 296 297 296 295 296 295 294 294 297 298 299 303 305 308 306 310 309 310 310 311 313 312 311 311 310 311 310 310 310 311 310 309 311 311 307 312 317 315 312 311 311
308 308 309 309 309 304 301 298 298 297 297 297 296 295 296 297 296 296 295 294 295 294 294 295 295 299 301 304 305 308 308 308 311 312 312 311 312 312 312 314 310 311 310 311 310 310 308 308 310 310 311 310 311 310
304 308 309 308 307 305 302 299 298 297 297 297 297 296 297 297 296 295 296 295 295 294 294 294 294 295 295 302 304 307 308 309 309 309 311 311 311 311 313 312 312 310 308 310 310 312 309 308 308 313 312 311 310 310
301 304 307 307 308 305 301 299 299 298 297 296 297 297 295 297 296 295 295 295 295 295 294 294 297 300 296 297 302 306 307 309 309 309 311 312 311 308 311 310 311 311 309 311 311 310 310 312 311 314 312 310 310 309
298 299 305 306 306 305 303 299 299 298 296 296 296 295 296 296 295 294 294 294 294 295 294 294 293 296 299 301 306 307 308 308 310 311 312 312 310 309 309 308 311 309 311 312 312 311 312 312 311 312 312 311 310 310
294 294 304 307 306 304 302 300 299 298 296 296 295 295 296 295 294 294 294 294 294 295 294 294 298 300 303 303 305 308 309 309 310 310 311 310 310 310 310 310 309 307 308 308 311 309 309 309 308 309 309 309 309 309
293 296 304 305 307 304 302 300 299 298 296 296 293 295 295 294 294 294 295 295 295 295 294 297 299 303 306 305 308 309 310 310 310 310 311 310 311 310 310 310 309 308 307 306 306 306 308 308 307 307 308 309 309 308
291 293 301 303 305 304 301 300 299 297 296 295 294 294 293 294 294 295 295 295 295 295 294 298 301 306 306 302 309 310 310 310 310 310 309 310 310 309 310 309 307 306 305 305 306 306 306 306 307 306 306 308 308 307
290 291 300 302 304 302 300 299 298 296 296 295 294 294 294 295 295 295 295 295 295 295 295 299 305 308 307 308 309 309 309 310 308 310 309 309 310 310 309 309 307 304 304 304 304 304 303 303 304 304 305 306 307 307
290 292 296 302 304 302 300 299 298 296 295 295 292 295 296 296 296 297 296 295 295 295 295 299 303 306 307 308 308 309 309 309 309 309 308 309 309 307 304 304 303 303 302 301 301 301 301 302 302 303 304 304 305 307
293 298 298 303 302 300 299 298 297 295 295 292 295 297 299 298 298 299 299 298 297 301 300 302 304 307 307 308 309 307 305 305 310 309 309 308 310 304 300 301 300 300 299 299 300 300 300 301 301 303 304 304 305 305
296 298 300 302 301 299 299 298 296 295 294 293 297 298 299 299 298 301 303 302 303 304 303 306 305 306 307 307 307 306 308 306 310 305 308 309 306 299 298 298 298 298 299 300 300 300 300 300 301 302 303 303 304 305
300 300 301 302 299 299 297 296 295 295 293 295 297 298 298 299 303 304 305 305 305 304 305 305 306 306 307 306 305 307 308 308 305 308 308 307 299 297 297 297 298 299 300 300 300 300 300 301 301 302 302 300 302 303
301 301 302 299 299 297 296 296 294 294 290 296 297 300 301 303 303 303 303 302 301 303 304 305 305 306 306 305 306 307 306 306 308 309 308 304 298 297 297 297 298 299 298 300 300 299 299 300 302 302 302 302 300 300
302 300 299 298 296 296 295 295 295 292 294 297 297 300 300 300 300 300 300 300 301 303 304 304 303 304 304 305 304 305 306 308 307 307 305 300 298 298 297 297 297 296 296 296 296 297 298 299 299 300 300 301 302 302
299 297 296 296 295 295 295 295 294 292 295 295 295 295 295 297 299 299 299 300 301 302 303 303 303 304 303 303 304 304 305 305 306 302 300 299 298 297 296 294 294 294 293 292 292 292 293 294 297 298 298 299 299 299
297 295 295 295 295 294 294 294 291 290 293 292 291 293 294 295 296 298 299 300 301 302 303 301 303 304 302 303 303 303 306 305 301 301 301 300 299 298 297 297 294 293 291 291 290 290 290 291 292 294 295 297 298 298
296 295 295 295 295 294 294 292 290 290 290 290 291 292 293 295 295 296 298 299 300 300 300 302 300 304 304 305 305 304 301 301 302 301 300 299 298 298 297 296 294 292 290 289 288 288 288 288 289 290 291 293 294 296
295 295 294 294 294 293 293 291 291 291 290 291 291 292 293 294 294 295 296 297 298 298 299 298 301 302 303 301 301 300 301 301 301 300 299 298 298 297 296 295 293 291 290 288 287 287 287 287 287 287 287 288 289 292
294 294 294 293 293 294 292 291 291 291 290 291 292 292 292 292 293 294 294 295 296 297 297 296 297 299 299 301 301 301 302 301 301 299 298 298 297 296 295 294 292 290 288 287 287 287 287 287 287 287 287 287 287 287
293 292 293 292 292 292 291 290 290 290 290 290 290 291 291 291 291 292 293 293 293 294 293 295 297 299 300 300 300 300 300 301 301 301 300 299 298 297 296 294 291 288 287 286 286 287 287 287 287 287 288 287 287 287
292 292 292 292 292 290 289 289 289 289 289 289 289 289 289 289 288 289 290 291 292 293 294 294 295 295 295 296 297 298 298 299 299 299 299 299 298 297 295 292 288 286 286 286 286 286 286 287 287 287 287 287 287 287
293 293 292 292 290 288 286 288 288 288 289 288 287 288 288 287 286 287 287 289 291 292 293 293 293 293 293 293 293 294 296 297 298 298 298 297 295 292 289 287 286 286 286 286 286 286 286 286 287 287 287 287 287 287
293 293 292 290 288 283 285 285 285 285 286 286 286 287 286 285 285 286 287 287 292 291 290 289 289 290 291 292 292 293 294 295 296 296 295 294 292 289 287 286 286 286 286 286 286 286 286 286 287 287 287 286 286 287
293 289 290 286 286 284 279 279 278 282 283 281 284 285 284 283 286 286 288 289 291 290 289 289 289 289 289 290 291 291 292 292 293 294 294 293 289 286 286 286 286 286 286 286 286 286 286 286 286 286 286 286 286 286
288 287 288 287 284 283 281 281 279 280 280 279 281 280 281 283 285 289 288 291 290 289 289 290 290 290 290 290 290 290 291 291 292 293 293 291 288 286 286 286 286 286 286 286 286 285 286 286 286 286 286 285 285 285
289 287 286 286 286 285 282 281 282 281 278 281 281 280 281 283 285 287 292 291 290 290 290 290 291 291 291 291 290 291 291 292 292 292 291 288 287 286 286 286 286 286 286 286 285 285 286 286 286 286 286 286 285 284
289 287 285 285 285 285 280 278 278 280 281 283 282 281 284 285 290 293 291 291 291 291 291 292 291 290 290 290 290 290 290 291 291 291 289 287 286 286 286 286 286 286 286 285 285 286 286 286 285 285 285 285 285 284
288 288 287 280 282 283 283 282 282 287 287 286 283 283 284 290 293 293 292 291 291 291 291 291 291 291 291 292 290 289 289 290 290 289 288 288 287 287 286 287 287 285 285 285 286 285 285 285 285 285 284 284 284 283
287 288 286 281 278 282 289 289 288 288 286 286 287 287 289 290 292 292 291 291 291 292 292 292 291 291 291 290 291 290 289 289 289 289 288 288 287 287 288 287 285 285 285 285 285 284 284 283 283 282 282 281 281 281
288 287 286 284 281 288 289 288 287 286 285 286 287 286 287 288 290 290 290 290 290 291 292 292 292 291 291 290 290 289 289 288 288 288 288 288 288 288 286 285 285 285 285 284 284 284 283 283 282 281 280 280 280 280
286 286 284 278 282 287 287 286 286 285 285 286 287 287 287 286 286 289 289 290 290 290 290 291 292 292 291 291 291 290 289 287 286 287 287 286 285 285 285 285 285 285 284 283 283 282 281 280 280 279 279 280 280 280
282 280 281 282 282 284 284 285 282 282 281 282 286 286 285 284 285 289 289 289 289 290 290 290 290 290 291 290 289 288 288 286 285 285 285 285 286 286 286 286 285 284 282 281 280 279 279 279 279 279 279 280 280 280

GFSWCAN_850_thetae_063.txt.gz
Theta_e
306 308 309 309 309 309 308 307 305 299 297 298 298 298 296 297 297 296 297 295 296 297 297 298 300 303 305 308 311 311 312 311 312 313 312 311 311 311 312 311 311 312 312 311 311 311 312 309 311 313 316 314 313 313
300 304 306 306 304 305 306 306 305 303 300 298 299 298 296 295 298 296 296 296 295 296 296 296 295 295 296 302 301 309 311 311 311 312 312 312 312 312 311 312 311 311 311 312 310 311 310 310 312 311 312 313 313 312
297 300 303 307 305 307 305 306 305 302 300 298 298 297 297 296 298 297 296 296 296 295 294 296 297 296 294 295 297 304 310 310 310 311 312 312 312 312 313 312 313 311 311 310 311 312 311 309 310 310 314 312 311 310
295 296 298 300 303 307 306 306 305 302 300 299 297 297 297 296 296 297 296 296 296 295 295 296 295 296 298 299 295 297 305 307 309 311 312 312 311 310 312 311 312 312 312 312 312 312 312 313 313 312 313 313 312 310
293 294 294 295 298 306 306 305 305 302 300 299 297 297 296 295 296 296 295 295 295 294 296 296 295 296 296 296 299 298 299 301 307 311 312 312 311 310 311 311 311 311 312 313 313 312 312 313 312 313 312 313 312 310
292 292 292 293 300 302 304 305 305 302 300 299 297 296 295 295 296 295 295 295 295 295 295 296 296 297 301 299 297 301 301 302 307 311 311 311 311 310 311 310 309 310 310 310 311 310 310 310 310 310 310 310 310 309
292 292 291 291 294 300 303 304 304 301 300 299 297 296 294 295 295 295 295 295 295 295 295 296 298 300 300 301 302 304 304 305 308 311 311 311 311 310 311 311 309 310 309 309 307 307 309 309 310 306 307 307 309 309
291 290 290 290 291 295 300 305 303 301 300 298 296 295 294 294 294 294 294 294 294 294 294 297 300 301 304 304 304 305 306 305 310 310 310 311 311 311 311 310 309 309 308 306 306 306 306 307 307 306 307 307 306 308
291 290 289 289 290 292 298 304 303 301 299 297 295 294 294 294 295 296 295 295 295 294 296 298 302 307 305 304 306 307 308 306 308 311 310 310 310 311 310 309 310 309 306 306 305 305 305 305 305 305 305 305 305 306
289 289 289 289 289 291 298 304 301 300 297 296 295 294 296 295 295 296 296 295 295 295 295 297 299 305 305 304 307 308 308 310 309 309 308 309 309 309 307 307 306 306 304 304 303 303 303 302 302 302 302 303 303 304
291 291 290 291 291 294 297 303 300 299 296 295 293 296 298 297 297 298 297 296 296 299 297 298 302 304 306 309 309 307 307 308 311 309 310 309 309 307 303 303 302 302 302 301 301 300 300 300 300 300 302 302 302 303
296 297 295 294 295 297 298 301 299 297 296 295 294 297 298 298 298 300 302 301 301 304 304 306 306 305 307 307 307 307 308 306 312 306 308 309 308 300 299 300 300 300 299 299 298 299 300 301 301 301 302 302 302 301
296 298 298 298 298 298 300 300 298 297 296 293 296 297 297 298 301 303 305 305 306 304 305 305 306 306 306 306 306 307 309 310 305 308 309 308 301 298 298 298 298 299 300 300 300 300 300 300 300 300 301 301 299 299
298 300 298 299 300 299 300 299 297 296 293 294 296 300 300 303 302 304 305 306 304 304 304 305 306 306 306 307 307 308 307 306 308 309 309 307 301 298 297 298 300 300 299 299 299 298 299 299 300 300 301 301 301 299
298 300 300 300 301 300 298 297 296 294 292 296 297 300 301 301 300 299 300 301 301 303 304 304 303 305 305 306 305 306 306 308 307 308 308 303 299 298 297 298 300 297 296 295 295 295 295 297 298 297 298 298 299 300
299 300 301 301 299 298 296 295 295 292 294 296 296 297 298 298 300 299 299 300 301 302 303 303 303 305 306 304 305 306 306 307 308 308 303 300 298 297 298 297 296 295 293 292 292 291 291 291 293 294 296 297 297 298
301 297 297 297 296 296 295 295 293 291 293 292 294 294 295 296 298 299 299 300 300 301 304 301 304 304 303 304 304 303 306 309 306 302 301 301 300 298 296 295 295 294 293 293 291 290 289 289 290 291 292 293 294 296
299 296 296 295 296 296 294 293 292 291 292 291 293 294 293 294 296 297 297 298 299 300 301 302 301 303 303 304 306 308 305 302 301 301 301 301 299 298 298 298 296 295 294 293 291 289 288 288 288 288 288 288 289 291
295 295 295 295 295 294 293 292 291 292 291 292 292 292 293 294 295 296 296 297 298 299 299 299 302 302 304 304 305 302 301 301 300 300 299 299 299 298 298 297 296 294 293 292 289 287 287 287 287 287 287 287 287 287
295 295 295 294 294 293 292 291 291 292 292 292 292 292 293 293 293 294 294 295 296 297 298 298 299 301 302 300 300 300 301 301 300 299 299 299 299 299 298 297 296 294 293 291 288 287 287 287 287 287 288 288 287 287
294 294 294 294 294 293 291 290 290 290 290 292 290 292 292 291 291 292 293 293 294 295 297 296 297 299 299 299 300 300 300 300 300 299 299 300 299 298 297 297 296 294 292 288 287 287 287 287 287 287 288 288 287 287
292 293 293 293 293 291 290 289 289 289 290 290 290 290 291 291 291 291 290 292 294 294 294 294 294 295 295 295 295 296 296 298 299 299 299 299 299 299 298 298 296 294 289 287 286 286 286 286 286 287 287 287 287 288
292 293 293 292 290 288 286 288 288 288 291 290 289 291 290 290 287 288 289 291 292 293 294 294 294 294 293 293 293 294 294 294 296 297 298 298 298 297 297 294 292 289 287 286 286 286 286 286 286 286 287 287 287 287
293 293 292 290 288 285 286 285 286 286 287 289 290 290 289 288 286 288 291 291 295 295 292 290 289 288 289 289 291 293 293 293 294 295 297 297 296 296 293 290 288 287 286 286 286 286 286 286 286 286 286 287 287 287
293 289 290 287 286 286 286 286 285 287 288 286 287 288 286 284 289 289 291 292 292 292 290 289 289 289 289 289 289 291 292 292 293 293 295 295 295 294 291 288 287 286 286 286 286 286 286 286 285 286 286 286 286 286
289 287 289 288 287 288 288 288 286 286 285 285 285 282 282 286 288 291 292 292 290 290 290 290 291 291 291 290 290 290 290 291 291 292 293 293 293 292 290 287 286 286 286 286 286 286 286 285 285 285 286 286 285 285
291 289 287 287 286 285 285 283 284 286 285 285 286 284 285 286 290 291 293 292 290 290 291 291 290 290 290 291 291 291 291 291 291 291 292 292 292 290 287 286 286 286 286 286 286 286 285 285 285 285 285 285 285 284
289 287 288 286 285 285 284 285 285 285 287 285 286 284 286 289 293 293 291 291 291 291 291 292 291 291 291 291 291 291 290 290 291 291 291 291 290 289 287 286 286 286 286 286 286 286 285 285 285 285 284 284 284 284
289 288 287 280 283 284 284 287 287 287 287 286 289 289 288 291 292 292 292 292 292 292 291 291 290 291 291 291 291 290 291 290 289 290 290 290 290 289 288 287 286 286 286 286 286 285 285 285 285 284 284 284 284 284
288 288 286 282 281 286 289 288 287 287 287 286 287 287 288 290 291 291 291 291 290 290 290 289 289 290 290 291 292 291 290 290 289 289 289 289 289 289 288 288 287 287 287 286 285 284 284 284 284 283 282 282 282 282
287 286 286 285 285 288 288 288 288 288 287 287 287 286 287 288 289 289 289 289 289 289 289 290 290 290 290 290 290 291 291 291 289 289 288 288 288 288 288 288 288 287 285 284 285 284 284 283 283 282 282 281 281 280
285 285 284 281 286 286 287 286 286 285 285 285 286 286 286 286 287 289 289 289 289 289 289 290 290 290 290 290 290 291 291 291 289 288 287 287 287 287 287 286 285 284 285 284 284 283 282 282 281 280 279 279 279 279
282 281 282 282 283 284 284 284 283 282 281 281 284 286 285 285 285 289 289 289 289 289 289 289 289 289 289 289 290 290 289 288 287 286 286 286 285 285 285 285 285 285 284 283 282 281 281 280 280 279 279 279 280 280

GFSWCAN_850_thetae_066.txt.gz
Theta_e
302 303 302 303 305 302 304 306 306 305 305 305 303 298 299 297 297 297 297 297 296 297 296 296 297 298 300 303 309 309 312 311 311 313 313 311 311 311 310 311 310 310 310 310 311 312 309 311 310 312 314 313 313 313
297 298 299 300 303 304 304 305 305 306 305 304 302 300 299 297 295 297 298 297 296 296 296 296 296 296 297 298 299 302 307 310 312 311 310 310 310 310 310 312 310 310 309 308 308 309 310 310 311 312 313 313 312 312
296 296 296 296 297 299 301 304 307 305 306 304 301 300 298 298 297 297 298 297 298 296 296 296 297 296 296 295 294 298 303 310 311 310 311 312 311 309 311 310 311 310 310 309 309 309 308 309 311 311 313 313 312 311
295 295 295 295 295 295 296 296 305 304 304 304 301 299 298 298 297 296 297 297 296 296 295 295 295 296 295 297 296 295 297 305 303 308 311 311 310 310 310 310 310 311 310 309 309 309 311 313 311 310 313 312 312 313
294 294 294 294 294 294 296 299 301 304 304 303 301 300 298 297 296 296 296 296 296 296 295 295 295 295 296 296 296 299 297 296 297 306 310 310 310 309 308 308 309 310 310 310 310 311 311 311 312 312 312 312 312 312
294 293 293 293 293 293 293 298 301 301 304 303 301 300 298 297 295 296 295 296 295 295 296 296 296 295 295 299 299 297 298 297 298 306 310 311 311 310 308 309 309 309 310 311 310 310 311 311 311 311 310 310 310 310
294 293 293 292 292 291 291 292 300 303 303 303 301 299 298 297 295 295 295 296 295 294 295 295 297 299 301 300 296 298 299 298 299 302 310 310 311 310 309 309 308 309 309 309 309 309 309 309 310 309 309 308 308 309
293 292 291 291 291 290 290 290 294 300 302 303 300 299 297 296 295 294 294 294 294 294 294 295 296 299 301 302 300 298 301 302 302 306 310 310 310 310 311 309 310 309 309 309 308 307 308 308 308 307 307 307 307 307
292 292 291 290 290 290 289 289 290 296 300 301 300 298 295 294 294 295 296 296 295 295 296 297 299 303 303 304 304 302 304 304 303 308 310 310 310 311 309 309 309 309 308 307 306 306 306 306 305 305 305 305 305 305
291 291 290 290 290 289 289 289 290 296 301 300 297 294 295 296 296 295 295 296 295 295 294 295 297 301 303 304 303 303 304 306 307 307 308 309 309 309 309 309 308 308 308 306 305 303 303 304 303 302 302 302 303 303
290 290 290 292 295 293 291 291 293 298 299 297 296 295 296 297 296 296 297 296 296 297 295 296 297 301 304 304 304 306 305 306 309 308 308 308 307 307 305 305 306 305 304 304 302 301 301 301 301 301 302 302 302 302
290 291 293 295 297 298 296 296 298 299 299 297 295 296 297 297 297 299 300 298 299 300 301 301 304 302 306 307 306 306 305 304 310 306 308 307 306 302 302 301 302 301 300 300 300 300 300 300 301 301 302 302 302 302
291 294 295 297 299 298 297 296 298 298 297 295 296 297 297 297 299 300 301 304 304 304 305 305 306 305 306 306 306 306 307 308 305 307 307 306 302 300 300 299 298 299 300 300 300 300 300 300 301 301 301 301 301 300
294 296 296 297 299 298 298 300 298 297 297 294 295 298 298 301 301 302 302 303 303 304 304 305 303 304 306 306 306 306 306 305 307 308 306 303 301 299 299 298 300 301 301 301 299 299 300 299 300 300 300 300 301 301
298 298 299 298 300 299 300 299 297 297 294 294 296 299 299 299 299 300 300 300 301 302 304 304 302 304 303 304 304 303 306 307 306 305 302 303 300 300 298 299 301 300 299 297 295 295 294 294 296 297 297 297 298 298
300 299 299 299 300 300 298 298 297 296 294 296 296 297 298 297 299 299 299 299 300 302 303 303 302 304 305 304 305 305 305 304 302 299 303 302 300 299 298 299 299 296 294 293 292 292 291 291 291 292 292 293 294 296
300 300 299 300 300 300 297 296 294 293 292 294 294 295 296 295 297 298 299 300 300 301 302 300 304 304 301 304 304 303 301 301 304 302 301 301 301 299 299 298 296 294 294 294 293 292 290 289 289 289 289 289 289 291
300 299 300 300 300 296 295 294 293 291 292 292 293 294 294 295 296 297 297 297 298 299 300 302 301 302 303 303 301 298 304 303 300 300 301 301 299 298 296 295 295 295 295 295 294 291 289 288 288 288 287 287 287 287
297 296 297 296 296 295 294 293 293 292 291 292 292 292 293 294 294 295 296 297 298 298 298 299 302 302 301 301 300 302 301 301 300 300 300 300 300 299 298 298 297 296 296 295 294 292 289 288 287 287 287 288 288 288
295 295 296 296 295 295 292 291 292 292 292 292 291 292 293 293 292 293 294 294 296 297 298 299 299 300 301 300 299 299 299 299 299 299 299 299 299 299 299 299 298 297 296 295 294 290 287 287 287 287 287 287 288 287
295 295 295 294 294 293 291 290 290 291 291 291 291 291 291 291 291 292 293 293 294 295 292 297 299 299 299 298 298 299 299 299 299 298 299 299 299 299 299 298 297 296 296 295 293 288 287 287 287 287 287 287 287 287
293 294 294 294 293 291 290 290 290 290 290 290 290 290 291 291 291 291 290 291 293 294 295 295 295 295 295 295 295 295 295 295 296 297 299 299 299 299 299 298 297 297 296 295 290 287 287 287 286 286 286 286 287 287
293 293 293 293 290 289 287 289 288 289 290 289 289 288 288 290 288 288 289 291 292 294 294 295 295 295 294 293 292 293 294 294 294 294 295 296 297 298 298 298 297 296 294 291 287 286 287 286 286 286 286 286 287 287
293 293 292 290 289 285 286 285 286 287 288 286 285 287 287 288 287 288 287 291 294 295 295 293 291 289 289 289 289 289 290 292 293 293 293 294 296 296 296 296 295 292 289 287 286 286 286 286 286 286 286 286 286 286
292 289 290 286 286 285 282 282 281 283 284 283 284 284 283 285 286 289 291 294 294 293 290 290 290 290 290 290 290 290 290 291 292 292 293 293 295 295 295 295 293 290 287 286 286 286 286 286 286 286 286 285 286 286
287 288 288 288 285 285 283 281 280 280 281 280 281 283 284 283 284 286 289 292 291 290 290 290 290 290 290 290 290 290 290 290 291 291 291 292 293 294 294 294 291 288 287 286 286 286 286 287 286 286 285 285 285 286
289 288 287 287 286 286 284 284 285 283 279 279 279 279 280 283 283 287 293 291 290 291 291 292 292 292 291 291 291 291 291 291 290 291 291 292 292 293 292 292 290 288 286 286 286 286 286 287 286 285 285 285 285 285
289 288 283 286 285 285 281 281 280 280 281 286 285 279 280 284 287 293 291 290 291 291 292 291 291 291 290 290 290 290 291 291 291 291 290 291 291 291 291 290 289 287 286 286 286 286 286 286 286 285 285 285 285 284
289 288 287 279 284 285 285 282 282 288 287 287 282 282 284 290 292 292 291 291 291 291 290 290 290 289 289 289 289 289 290 290 290 290 290 291 291 291 290 290 289 288 287 286 286 285 286 286 285 284 284 284 285 284
287 287 286 283 280 283 288 288 288 288 288 287 287 288 289 290 291 290 290 290 290 290 289 289 289 289 289 289 289 289 289 289 290 290 289 290 290 290 290 289 289 288 287 287 286 286 286 285 284 284 284 283 283 282
287 287 287 286 283 288 288 288 288 288 287 287 288 286 288 288 289 289 289 289 289 289 289 289 289 289 289 289 289 289 289 289 290 290 290 290 289 288 287 287 287 287 287 287 287 286 284 284 284 283 283 282 282 280
285 285 285 280 285 287 287 287 286 286 286 286 287 287 286 286 286 288 289 289 289 289 289 289 289 289 289 289 289 289 289 289 290 290 290 289 288 287 287 286 286 286 286 285 284 284 284 283 283 282 281 280 280 279
283 283 283 283 283 285 285 285 284 282 282 281 284 285 285 285 285 288 289 289 289 289 288 288 288 289 289 289 289 288 288 288 289 289 288 287 286 286 286 285 284 284 284 284 284 283 282 281 280 280 280 280 280 280

GFSWCAN_850_thetae_069.txt.gz
Theta_e
306 306 306 305 301 300 302 304 304 304 304 304 303 303 302 300 298 297 297 297 297 296 296 296 296 296 297 297 301 304 307 309 309 311 311 311 309 310 309 307 308 309 310 309 308 311 309 310 309 313 313 312 313 313
302 303 303 299 298 299 303 305 304 304 301 304 303 303 301 300 298 296 297 298 298 297 297 297 297 296 296 297 297 299 304 303 310 309 308 307 308 306 306 309 306 308 307 307 306 307 307 310 311 313 313 313 312 313
298 298 297 298 297 296 297 297 303 301 305 303 302 303 302 299 298 298 298 297 297 297 296 296 296 296 296 295 296 297 297 298 303 300 308 309 310 306 307 308 310 308 307 307 307 308 307 309 311 312 313 313 312 312
296 295 296 296 296 296 296 295 298 301 298 303 303 302 302 300 299 298 297 297 297 297 297 296 295 295 296 295 296 296 295 297 297 297 299 309 310 307 307 307 307 307 307 307 307 307 309 309 309 311 312 312 311 311
295 295 295 294 294 294 295 295 297 301 302 302 303 304 301 300 299 298 297 297 296 297 295 295 295 296 296 295 296 296 296 296 297 297 302 310 308 308 305 306 307 308 308 307 308 308 308 311 311 310 311 312 312 312
294 294 294 294 293 292 292 292 292 292 298 301 300 303 302 300 299 297 296 295 295 295 295 295 295 295 296 296 295 297 296 297 297 297 300 305 311 309 306 307 307 309 309 311 309 310 311 311 311 311 312 311 311 310
294 294 294 293 293 292 292 291 291 291 293 301 302 303 302 300 298 297 296 295 295 295 294 294 292 295 298 299 298 296 296 297 297 297 299 300 305 310 308 308 307 308 309 309 309 309 309 310 310 310 310 309 309 308
294 294 293 293 292 291 291 291 291 290 290 297 303 302 301 299 297 297 297 295 295 295 294 295 292 295 300 299 296 297 298 298 298 300 302 306 308 309 311 308 309 309 309 309 309 309 308 308 308 308 308 307 308 307
293 293 293 292 292 292 292 291 290 289 289 295 301 301 299 297 296 295 296 296 295 295 295 295 290 292 300 301 301 297 298 300 300 302 303 305 309 309 308 308 309 308 309 309 308 308 307 306 306 306 305 305 305 305
293 292 292 292 292 291 291 292 289 289 294 298 299 298 296 295 295 296 296 296 296 295 294 295 295 295 299 303 302 302 302 304 304 303 307 308 308 308 309 309 309 309 308 308 306 305 305 304 304 304 303 302 302 303
292 292 292 292 291 293 296 295 292 295 296 297 298 297 296 297 296 296 296 296 296 296 294 295 295 295 299 304 304 301 303 304 309 307 307 307 308 305 305 306 305 306 306 305 305 304 304 303 302 302 302 302 302 302
292 292 291 291 293 295 297 296 295 295 296 296 297 296 296 296 296 297 298 297 297 297 298 298 299 297 300 302 304 305 305 304 309 306 308 308 306 302 302 302 302 302 302 302 301 301 301 301 301 301 302 302 302 302
292 291 292 293 295 297 298 298 296 297 297 296 296 296 296 296 297 299 293 301 302 301 302 303 304 304 304 305 305 305 306 307 305 307 306 305 302 301 301 301 300 300 300 300 300 300 300 300 301 301 301 301 301 301
291 292 294 295 296 296 299 298 297 296 296 296 296 297 298 298 299 298 299 302 302 302 303 304 302 300 303 305 306 304 306 305 306 307 305 302 302 300 299 299 300 301 300 300 300 300 300 300 300 300 298 298 299 300
294 296 297 297 298 298 298 298 297 297 297 295 295 295 294 297 299 300 300 299 300 301 302 303 302 302 301 303 303 302 304 305 305 305 301 303 302 301 299 299 301 300 300 298 296 294 293 294 295 295 295 295 295 296
298 299 299 298 298 299 299 298 297 296 296 295 295 297 297 296 296 298 298 299 299 300 301 302 301 303 305 303 302 303 303 304 301 299 303 301 300 299 299 301 300 299 295 293 292 292 291 290 290 291 291 291 291 292
300 300 301 299 298 300 299 297 296 296 295 294 294 295 296 296 296 297 298 299 299 300 302 300 303 303 301 302 302 302 303 298 300 302 301 300 300 299 298 300 298 295 293 294 294 294 292 290 289 288 288 288 288 288
302 302 301 299 298 298 296 295 295 293 292 293 292 294 294 295 296 296 296 297 297 299 299 301 299 299 303 303 301 299 300 302 299 300 300 300 300 299 298 298 296 295 295 296 296 295 293 289 288 288 288 288 288 288
299 300 299 298 298 296 295 294 294 292 291 292 292 293 293 294 294 294 295 296 296 297 298 298 301 294 298 300 300 299 299 299 300 299 300 300 299 299 297 296 296 296 295 295 295 295 293 290 288 287 288 288 288 288
298 297 297 296 296 295 293 292 292 292 291 291 291 292 292 292 292 292 293 293 294 296 297 297 297 299 300 301 301 299 299 299 299 299 299 299 299 299 298 297 297 297 296 296 295 295 293 288 287 287 287 287 287 287
296 295 295 296 295 293 291 290 291 292 291 291 291 291 291 291 290 290 291 292 293 294 291 297 298 299 299 299 297 296 296 297 298 298 299 299 299 299 298 298 298 297 297 296 295 295 292 287 287 287 287 286 287 287
294 295 295 295 294 292 291 289 290 290 290 290 289 290 290 290 290 290 289 289 291 294 295 295 297 296 295 295 295 295 295 295 295 295 295 296 298 298 299 299 298 297 296 296 296 295 289 287 286 286 286 286 286 286
294 295 294 294 291 290 287 289 289 289 289 289 288 287 284 288 288 288 287 290 292 293 294 294 294 294 294 293 290 289 289 290 292 293 294 294 294 295 297 297 298 297 297 297 295 291 287 286 286 286 286 286 286 286
294 294 292 290 289 285 287 286 287 287 288 284 279 282 281 288 287 287 282 290 294 293 292 293 291 290 290 290 290 290 289 289 289 291 293 293 293 293 295 296 296 296 295 292 290 288 286 286 286 286 286 286 286 286
293 290 290 285 286 285 282 280 278 280 280 276 279 279 279 285 280 280 284 292 294 294 293 294 294 294 292 291 291 291 291 291 291 292 292 292 292 293 294 295 295 295 293 291 288 286 286 286 286 286 287 286 286 285
288 287 287 286 284 285 283 282 278 278 277 277 276 282 284 277 280 283 284 293 294 290 290 290 291 291 291 291 291 292 292 292 291 291 291 291 291 292 293 294 294 294 292 289 287 286 286 286 286 287 287 286 285 285
288 287 286 287 287 286 283 284 285 280 276 278 274 276 274 281 280 284 292 291 290 291 292 292 292 292 291 291 290 290 289 290 291 291 291 291 290 291 292 292 292 292 291 288 286 286 286 286 286 286 286 286 285 285
288 287 284 286 285 285 279 278 277 278 278 285 283 278 279 282 285 292 291 291 289 290 291 291 291 291 290 290 289 289 289 289 289 289 290 291 291 291 291 290 290 290 290 288 287 286 286 286 285 285 286 286 285 284
288 287 287 280 283 284 285 281 281 287 287 286 280 279 282 290 292 291 291 291 291 291 291 291 291 290 289 289 289 289 289 289 289 289 289 289 290 290 290 290 290 290 290 289 288 286 285 285 285 285 286 286 284 284
287 287 286 282 279 283 288 288 288 288 288 288 288 288 288 289 289 289 289 289 289 289 289 289 289 289 289 289 289 289 289 288 288 289 289 289 289 289 290 290 289 288 288 288 287 286 285 285 285 286 286 284 283 283
286 287 286 286 283 288 288 288 288 288 288 288 288 287 288 288 289 290 290 290 290 290 290 289 289 289 289 289 289 289 289 289 289 289 289 289 289 290 290 290 288 287 286 287 287 286 286 286 285 284 283 283 283 282
285 285 285 281 285 287 287 287 287 287 286 286 287 287 286 286 287 289 289 289 289 289 289 289 289 289 289 288 288 288 288 289 289 289 288 289 289 289 289 288 287 286 285 285 285 285 284 283 283 283 283 282 281 281
283 284 284 285 285 285 285 286 285 283 282 282 284 284 284 284 285 289 289 289 289 289 289 288 288 288 288 288 288 288 289 289 288 288 288 288 288 288 287 286 286 285 284 283 283 283 283 283 282 281 281 281 281 280

GFSWCAN_850_thetae_072.txt.gz
Theta_e
313 312 312 310 306 306 308 306 303 301 300 303 302 303 303 301 300 298 298 297 297 297 297 297 296 296 296 296 297 298 298 308 310 311 311 311 308 307 306 306 307 309 311 311 310 311 309 308 309 312 311 312 312 309
312 311 310 307 302 301 303 305 302 299 299 301 302 301 302 302 300 299 299 297 297 296 298 297 297 297 297 296 296 297 299 299 301 308 308 307 307 304 305 308 304 308 305 307 307 307 306 308 309 310 312 313 313 313
312 309 307 301 299 298 299 303 299 297 300 299 303 302 301 301 300 299 299 298 297 297 297 296 297 297 295 295 296 296 296 297 299 298 298 307 307 304 306 305 306 305 305 306 306 306 305 308 310 313 313 313 313 312
308 305 301 300 298 297 297 296 296 296 296 302 299 302 302 303 300 300 300 299 297 296 297 297 295 295 295 295 295 295 295 298 296 295 296 299 310 306 305 306 305 305 305 305 305 305 308 309 309 311 312 312 312 311
300 299 298 296 296 296 296 295 295 296 295 299 303 302 300 303 300 301 300 299 297 296 296 297 295 296 296 295 295 295 295 295 295 296 297 299 303 307 304 305 306 306 306 306 307 307 307 308 310 309 311 312 312 312
296 295 295 295 294 294 294 293 293 293 292 293 297 302 301 302 301 300 299 296 295 296 296 293 294 294 295 298 296 295 295 295 296 297 298 298 299 303 308 307 306 309 310 310 308 310 311 311 311 310 309 311 312 312
295 295 294 294 293 294 294 293 292 291 291 291 292 301 302 302 302 300 298 296 296 295 295 292 291 294 295 298 298 296 295 295 296 296 297 300 301 301 306 306 307 308 308 309 309 310 310 311 311 311 311 310 310 309
294 293 293 293 293 293 292 292 292 291 290 290 290 295 300 302 300 298 299 297 296 295 294 292 292 293 298 299 296 296 296 297 297 297 298 301 303 302 308 307 308 308 308 308 309 309 309 309 309 309 309 308 308 307
293 293 293 292 293 292 292 292 291 290 289 289 294 300 301 300 298 298 296 296 295 294 293 294 291 291 299 300 297 296 297 297 297 297 300 301 304 307 306 307 308 309 308 308 308 307 307 308 307 307 307 306 306 306
294 293 292 293 292 292 291 291 293 290 290 294 296 297 298 297 297 297 296 295 295 295 294 294 295 294 296 298 300 298 298 301 300 299 302 303 305 305 308 308 308 308 308 308 306 304 305 306 306 305 305 305 304 304
292 293 293 292 291 291 292 296 295 293 293 296 296 297 297 296 296 296 295 295 295 294 294 294 294 294 295 298 303 300 303 302 305 303 306 307 308 305 304 306 306 307 307 307 307 307 306 305 305 304 304 303 302 302
292 292 292 291 291 292 294 297 296 295 294 295 296 296 296 296 296 297 297 297 295 294 296 296 297 295 296 299 301 302 304 303 309 303 306 307 306 302 302 302 302 303 303 304 304 304 303 302 302 301 301 301 302 302
292 292 291 291 292 293 297 297 297 296 296 295 296 296 296 296 297 296 290 294 295 298 299 300 301 301 301 302 304 304 306 306 305 307 306 304 301 301 300 300 300 300 301 301 301 301 301 300 300 300 300 301 301 301
292 291 291 292 293 294 298 298 298 296 295 296 295 295 296 296 294 292 292 297 301 301 300 300 302 300 301 302 304 305 306 305 306 306 302 301 302 300 299 299 300 300 300 300 299 299 299 300 300 300 300 300 300 298
291 291 293 294 295 295 297 299 298 296 295 296 295 293 294 296 297 299 299 298 299 299 300 301 302 301 301 302 302 303 303 303 304 303 299 301 300 300 299 299 300 300 300 299 297 297 296 295 295 295 294 294 294 294
292 295 295 296 297 297 297 298 297 297 297 296 294 294 294 296 292 297 297 297 298 299 300 300 301 303 304 303 302 303 304 303 303 300 300 300 299 299 299 300 301 300 299 294 292 291 291 291 291 291 290 290 289 289
298 299 298 298 298 298 298 297 296 296 296 295 292 294 296 296 296 297 298 298 298 298 301 300 303 302 300 298 299 299 301 302 300 299 300 299 299 299 298 301 301 297 293 293 293 293 292 291 289 289 288 288 288 288
300 300 300 300 298 298 297 297 297 296 293 293 292 293 294 295 296 296 297 297 297 298 298 301 298 298 299 298 298 299 300 300 300 298 299 300 300 299 298 300 298 295 293 294 295 294 293 291 289 288 287 287 288 288
299 300 301 300 298 297 296 295 295 292 292 292 292 293 293 294 294 294 294 295 295 296 296 297 299 300 298 299 300 300 300 299 299 299 299 300 299 298 298 297 296 294 294 294 294 294 294 293 289 287 287 287 287 287
299 300 300 298 298 297 295 293 293 292 291 292 291 292 292 292 292 292 292 292 293 294 296 297 296 298 299 301 300 300 300 299 299 299 299 299 299 299 298 296 296 296 296 295 295 295 295 294 289 287 287 287 287 287
298 296 297 297 296 295 293 291 290 292 291 291 291 291 291 291 290 290 291 291 292 291 292 297 298 299 299 300 298 295 295 295 295 296 297 298 299 299 298 298 298 297 297 297 297 296 295 294 289 287 287 286 286 286
296 295 295 296 294 292 290 290 290 290 290 290 290 290 290 290 290 290 290 290 290 292 294 295 295 296 297 297 295 295 295 295 294 294 295 295 295 296 297 298 298 298 298 297 296 295 295 294 288 286 286 286 286 286
294 295 295 294 292 290 288 289 289 289 288 288 288 289 286 287 288 288 286 288 290 292 293 294 294 295 294 294 294 293 291 290 289 289 291 293 294 294 294 294 296 297 297 298 296 295 295 292 287 286 286 286 286 286
295 295 294 291 290 285 287 286 287 287 287 285 281 285 281 286 286 286 281 289 293 294 293 294 293 292 291 290 290 291 291 291 290 290 290 292 293 294 293 293 294 295 296 296 295 294 292 289 286 286 286 286 286 286
294 290 291 283 286 285 284 284 283 283 284 279 280 280 279 284 278 277 281 290 294 293 292 294 295 295 292 292 292 292 291 291 291 291 291 291 292 292 292 293 294 295 295 295 295 292 288 286 286 286 286 286 287 286
288 287 286 286 284 287 286 286 283 282 281 279 278 280 282 274 278 281 281 294 295 294 293 291 294 292 291 291 290 290 289 289 290 291 291 291 290 291 291 292 293 294 294 294 293 290 287 286 286 286 286 286 286 286
285 285 287 287 287 286 284 284 284 281 278 280 276 276 274 280 278 283 292 292 292 292 291 292 292 292 291 291 290 289 289 289 289 289 289 290 291 291 291 291 291 291 292 292 291 288 287 286 286 286 286 286 285 285
288 287 286 285 285 285 281 279 279 281 280 283 282 280 280 281 284 291 290 291 290 290 292 292 291 291 291 291 290 289 289 289 288 288 288 289 289 289 290 291 291 290 290 291 290 290 288 286 286 285 285 285 284 284
287 286 287 280 283 284 284 281 282 286 287 286 281 280 282 289 291 291 290 290 290 290 290 290 291 291 290 289 289 289 289 288 288 288 288 289 289 289 289 289 289 289 290 290 290 290 289 288 286 285 284 284 284 284
286 287 285 282 280 283 287 287 288 288 287 287 288 288 289 290 290 289 290 290 290 290 290 290 289 289 289 289 289 289 289 288 288 288 288 288 288 289 289 289 289 289 289 289 288 288 288 287 286 284 284 284 285 285
286 286 286 285 284 287 287 287 287 287 287 288 288 287 288 288 289 289 290 290 290 290 289 289 289 289 288 288 288 288 288 288 288 288 288 288 289 289 288 288 289 290 289 288 287 286 286 286 285 285 285 285 283 282
285 284 284 282 285 287 287 287 287 287 287 287 287 287 286 286 286 288 289 289 289 289 289 289 289 289 288 288 288 288 288 288 288 288 288 288 289 289 288 288 288 288 288 286 285 285 285 285 285 284 283 283 282 281
284 284 284 285 285 286 285 286 284 283 283 283 284 285 285 285 286 288 288 288 288 288 288 288 287 287 288 288 288 288 288 288 288 288 288 288 288 288 287 287 287 286 285 285 285 284 283 283 283 282 282 281 281 281

GFSWCAN_850_thetae_075.txt.gz
Theta_e
318 318 316 314 312 310 310 308 307 300 298 298 299 299 301 302 301 300 299 298 297 297 297 297 297 296 296 296 295 296 296 301 305 310 310 312 308 306 305 306 307 308 311 311 309 310 309 306 308 310 308 311 312 309
317 317 315 313 312 310 307 307 303 298 298 298 298 299 300 300 300 300 299 299 298 297 297 297 297 297 297 296 296 296 296 297 299 301 300 301 309 304 304 306 303 308 306 307 306 307 305 307 310 310 310 312 312 312
317 315 314 312 311 307 306 307 302 302 297 295 297 299 302 301 301 300 299 298 298 297 297 297 297 297 297 296 296 296 295 296 298 297 298 300 304 304 305 304 305 304 303 305 306 306 304 307 308 310 312 313 313 312
314 314 313 312 308 308 307 304 305 303 295 295 295 301 301 301 301 301 300 299 299 298 297 297 297 296 296 295 295 295 295 296 296 296 296 296 299 300 306 303 305 303 303 304 304 304 306 308 309 309 311 312 312 312
312 312 311 309 308 307 303 298 303 297 296 296 296 301 302 302 302 301 300 299 299 298 296 296 296 295 294 295 294 295 295 295 295 296 296 296 298 301 304 303 304 304 303 305 305 306 307 308 309 309 309 311 312 311
313 312 307 304 303 299 298 297 296 295 294 293 294 294 299 301 302 302 300 299 297 296 296 294 294 294 294 296 298 296 295 294 295 296 296 297 298 298 300 308 306 307 308 308 307 309 309 311 311 311 309 310 311 311
309 306 304 299 296 296 295 293 294 292 292 292 291 291 294 302 301 300 300 297 297 296 295 293 291 293 294 295 298 295 294 295 295 296 296 296 297 299 302 307 306 305 307 309 309 309 310 310 311 311 309 310 310 311
302 298 296 295 294 294 293 293 292 292 292 291 290 290 295 300 301 300 299 298 298 295 294 293 292 292 297 299 296 296 295 295 296 296 296 298 298 298 299 301 302 305 306 307 308 308 309 309 310 310 310 310 309 309
295 294 295 293 292 292 292 293 292 291 291 290 290 292 297 299 299 298 297 297 295 295 293 293 291 288 296 299 297 296 296 297 296 297 296 297 298 303 302 302 305 307 307 307 308 308 308 308 308 308 308 307 307 307
294 293 293 293 292 293 292 291 291 292 292 291 294 296 298 298 297 297 296 296 296 295 294 293 294 294 295 297 297 296 297 298 298 297 297 298 298 300 300 306 306 307 308 307 306 305 306 307 307 307 307 306 306 305
292 293 293 292 293 292 292 293 294 293 293 295 296 297 296 295 296 295 295 295 295 294 294 294 294 294 294 295 297 298 301 301 303 301 301 303 304 303 301 303 305 306 307 306 306 306 306 306 306 305 304 303 303 303
293 293 292 292 291 291 293 295 295 294 294 295 296 296 296 296 295 295 294 296 294 293 295 295 296 296 295 296 299 301 302 302 307 301 303 307 304 300 301 302 303 303 304 304 304 304 304 304 303 303 302 302 302 302
292 292 291 291 291 292 294 297 296 295 294 295 295 296 295 295 295 295 294 291 295 296 297 299 299 300 299 298 299 302 306 306 302 306 307 304 301 300 300 301 301 301 301 302 302 302 301 301 301 302 302 301 301 301
291 291 290 291 292 293 295 297 297 296 295 296 295 294 294 294 295 291 289 289 299 301 300 300 300 301 301 301 302 306 306 305 304 306 304 301 300 300 300 300 300 300 301 301 301 300 300 301 301 300 300 301 300 300
291 291 291 291 292 294 296 297 298 297 295 295 293 291 290 295 295 297 297 296 297 298 298 298 301 301 302 302 302 303 303 301 303 303 299 299 298 299 299 299 299 299 299 299 299 299 299 298 297 297 295 294 293 292
291 291 291 293 293 295 296 297 297 297 296 296 293 293 292 293 293 295 295 296 297 297 298 298 300 302 302 302 301 303 304 301 303 300 299 298 298 298 298 299 300 299 299 296 293 292 292 292 291 291 290 290 288 288
294 296 292 294 296 296 296 297 296 296 296 294 294 293 293 294 294 296 297 297 297 297 299 299 300 302 300 296 295 294 295 299 300 300 298 298 298 299 299 300 300 299 294 293 294 294 293 292 290 289 288 288 288 288
297 297 297 298 297 297 297 297 297 296 293 293 292 294 293 295 296 295 295 295 296 295 298 299 296 300 297 297 296 296 299 300 300 298 299 299 298 298 298 300 300 296 293 294 295 294 294 294 292 289 288 287 287 288
298 299 300 299 297 297 297 297 296 293 293 292 293 293 293 294 294 295 295 296 294 295 296 295 296 299 298 298 300 299 300 299 300 299 299 299 299 298 298 298 299 296 294 294 294 295 295 294 293 289 287 287 287 287
299 299 300 300 298 298 296 294 294 294 291 292 291 292 293 292 293 293 293 293 292 294 295 296 295 298 299 300 300 299 299 298 299 298 298 299 298 298 298 297 296 295 295 295 295 294 295 294 294 291 287 287 287 287
298 298 298 298 297 296 293 292 291 291 291 291 291 292 291 291 291 290 290 291 291 292 293 294 297 298 298 298 300 300 296 294 295 295 295 296 296 298 298 298 298 297 296 296 296 296 296 295 294 293 287 286 286 286
295 296 295 296 295 292 291 291 291 290 290 290 290 290 290 290 290 290 289 290 290 291 293 295 295 295 295 296 297 296 295 295 295 294 293 293 294 295 295 295 297 298 297 298 297 296 296 294 294 294 287 286 286 286
295 295 296 295 293 291 288 290 290 290 288 288 289 289 288 287 288 287 286 288 289 292 292 293 294 294 294 294 294 295 294 294 292 290 290 289 289 290 293 294 294 294 294 296 296 297 296 295 294 294 287 286 286 286
295 296 294 292 291 286 288 287 288 287 287 286 285 286 282 284 286 285 284 288 292 293 293 293 293 292 292 293 291 291 291 291 291 291 291 291 291 292 292 293 293 293 294 294 295 296 296 296 294 291 287 286 286 286
295 290 291 286 287 285 281 283 284 285 288 285 285 282 280 283 281 279 283 290 294 293 291 292 293 292 292 291 291 290 291 290 290 290 291 291 291 290 291 292 292 293 293 294 295 295 295 292 289 287 286 286 286 286
290 288 286 284 282 286 286 286 285 286 285 284 282 280 281 278 280 284 282 293 295 294 294 295 295 295 294 291 290 290 290 289 289 289 289 289 290 291 291 291 291 291 292 293 294 294 294 291 288 286 286 286 286 286
284 282 287 287 287 286 285 284 285 284 283 283 280 278 277 282 281 284 292 292 293 294 294 292 291 292 292 291 291 290 290 289 289 289 288 288 288 288 288 289 290 291 291 291 291 292 291 289 287 286 286 285 285 285
287 287 286 285 285 286 284 282 282 283 282 282 282 280 282 283 285 291 290 290 290 290 291 291 292 292 292 292 291 291 290 289 289 288 288 288 289 289 288 288 289 289 290 290 290 290 290 290 289 287 286 285 285 285
287 286 287 283 283 283 284 283 283 286 286 285 281 280 282 289 291 291 290 289 289 289 290 289 289 290 290 289 289 289 288 288 288 288 288 288 289 289 288 288 288 288 288 288 289 289 289 289 290 289 288 287 285 284
286 286 285 282 282 284 287 286 287 286 286 287 287 288 289 289 289 289 289 289 289 289 289 289 289 288 288 288 289 289 289 289 288 288 288 288 288 288 288 288 289 288 288 288 289 289 289 289 288 288 287 285 284 284
286 286 285 284 283 286 287 287 287 287 286 287 287 287 287 288 288 288 289 289 289 289 289 289 288 288 288 288 288 288 288 288 288 288 288 288 288 288 288 288 289 289 288 288 288 288 288 287 286 286 285 285 285 285
285 285 284 283 284 286 286 287 287 287 286 286 287 286 286 286 287 288 289 289 289 288 288 288 288 287 287 287 287 287 287 287 287 287 287 287 287 287 288 288 288 288 288 287 287 287 286 285 285 285 285 284 283 283
284 284 284 286 285 286 286 286 285 284 284 284 284 285 285 284 286 288 288 288 287 287 287 287 287 287 286 286 286 287 287 288 288 287 287 287 287 287 287 287 287 287 286 286 285 285 285 284 284 283 283 282 282 281

GFSWCAN_850_thetae_078.txt.gz
Theta_e
322 322 318 317 315 312 312 310 309 305 304 298 297 298 298 299 301 299 299 299 298 297 297 297 297 297 296 295 296 296 295 299 301 305 309 309 309 307 306 305 306 308 308 310 309 311 309 305 307 308 307 311 311 311
322 320 319 316 313 312 312 310 309 306 304 298 299 297 298 299 299 300 299 299 298 297 297 297 297 297 297 297 296 295 296 295 297 298 299 300 306 306 305 307 303 307 305 307 306 306 304 306 309 310 310 309 312 312
321 320 317 315 315 313 312 310 308 306 299 298 299 298 300 300 300 300 300 299 298 298 298 297 298 298 297 296 296 296 295 295 296 297 296 299 300 301 307 305 304 304 303 304 306 305 303 306 307 308 309 311 312 312
321 319 314 316 315 313 310 309 306 302 298 297 298 301 301 301 300 301 299 300 299 298 297 297 297 296 295 295 295 296 295 295 296 296 296 297 298 299 301 302 304 302 302 303 303 303 305 308 308 308 308 311 312 311
319 314 314 315 314 312 310 307 306 305 304 302 303 303 302 301 301 301 301 298 300 299 297 297 296 295 294 295 295 295 295 295 295 295 295 295 297 298 300 302 303 303 302 304 304 305 306 307 308 309 308 309 311 311
318 313 314 312 312 311 308 307 306 306 303 302 302 302 299 301 302 302 299 300 300 299 297 294 294 295 295 295 295 296 295 294 294 295 295 295 295 298 298 301 305 306 305 305 304 307 308 308 310 310 309 309 310 311
316 315 313 313 312 308 306 305 298 297 296 296 295 293 293 297 299 302 299 298 299 296 296 293 291 293 293 295 297 297 295 294 294 295 295 295 297 299 299 301 303 306 305 305 308 308 307 309 310 310 310 309 310 310
312 312 312 311 308 306 301 297 296 294 293 292 291 290 294 298 299 302 300 299 297 296 294 293 290 291 296 298 297 296 294 294 295 296 296 296 295 296 296 297 298 301 301 304 307 307 308 309 310 310 309 309 309 309
312 311 311 307 303 299 295 294 293 292 292 292 290 290 296 298 298 298 298 296 295 296 294 293 289 288 294 297 297 296 296 296 295 297 297 297 296 298 297 297 297 299 305 307 307 307 307 308 308 309 309 308 308 307
308 305 303 298 295 294 294 293 292 292 292 290 293 297 297 298 297 297 295 296 295 295 294 293 293 294 294 295 296 297 296 295 294 297 296 297 295 296 296 299 301 304 306 307 307 306 306 307 307 306 306 306 306 305
302 296 294 293 293 293 292 292 292 292 292 296 295 295 295 295 295 295 294 295 295 293 293 294 294 294 295 295 296 298 296 297 300 299 298 299 301 301 299 298 298 301 304 304 305 306 306 306 306 306 305 305 305 304
293 293 293 293 293 292 292 293 294 294 293 294 296 296 295 295 295 295 295 295 293 293 293 294 295 295 295 295 296 298 301 301 303 297 300 304 303 299 298 299 300 302 303 304 304 305 305 305 305 304 303 302 302 302
293 294 292 292 292 292 293 295 295 294 294 295 295 294 295 295 295 294 293 294 295 294 295 298 300 298 298 296 297 301 304 306 299 302 306 305 299 298 299 299 299 300 301 301 302 302 302 302 302 302 302 302 302 301
291 291 291 291 292 292 294 296 295 294 295 296 295 294 294 295 295 291 288 288 296 297 298 297 298 300 301 301 302 304 305 305 302 301 303 300 298 297 298 298 299 299 300 300 300 300 300 301 301 301 301 301 300 300
291 292 292 292 292 295 298 297 296 295 295 295 293 292 292 294 294 295 294 295 296 296 296 298 298 299 301 301 301 302 301 299 302 303 299 299 298 298 298 299 299 299 299 299 299 299 299 299 299 299 297 296 293 292
296 295 293 294 294 294 297 297 296 296 296 295 294 293 291 292 291 293 295 295 296 297 297 298 299 301 302 302 301 300 301 301 302 300 299 298 298 298 298 299 299 299 299 298 296 294 293 293 292 291 291 290 289 288
296 295 294 295 294 296 297 297 296 297 296 294 294 294 293 293 293 295 294 296 297 297 297 298 300 300 300 297 297 297 300 300 299 299 298 298 299 299 298 299 300 297 295 293 293 294 293 293 291 290 289 288 287 288
295 294 292 293 296 296 298 297 297 296 294 294 292 294 292 293 295 295 296 296 297 296 296 298 296 298 299 295 296 297 299 299 299 299 298 298 298 298 298 299 299 297 294 294 295 294 293 294 293 292 289 288 287 287
294 295 297 295 296 297 297 296 297 294 293 293 293 293 293 293 294 295 295 295 295 294 295 295 295 297 297 296 299 300 300 299 299 299 300 299 298 298 297 298 299 299 296 293 293 294 294 295 295 294 291 288 287 287
297 298 298 297 296 297 296 295 295 294 291 293 292 292 293 293 293 293 292 293 292 293 293 294 295 295 298 300 300 300 300 299 297 295 298 299 299 299 298 298 297 296 296 295 294 294 295 295 295 295 294 290 287 287
298 299 299 297 297 296 294 293 292 292 291 291 291 291 291 290 291 291 291 291 291 292 292 294 295 296 297 298 297 299 300 298 295 295 295 295 295 295 295 296 297 297 297 296 296 296 296 296 294 294 294 292 287 286
298 298 296 296 295 293 292 291 291 291 290 290 290 290 290 289 290 289 289 290 290 291 292 293 294 294 295 295 295 297 297 296 295 295 294 292 291 291 290 292 294 295 295 297 297 297 297 296 295 295 294 293 288 286
295 296 296 295 293 291 288 290 290 289 285 288 289 289 288 288 288 287 287 288 289 291 292 292 291 292 293 294 294 294 294 294 292 291 291 291 290 290 290 289 290 293 294 294 293 294 295 295 295 294 294 294 289 286
295 296 294 292 291 286 288 287 288 288 287 283 280 281 280 283 285 284 281 287 292 293 294 294 293 293 292 292 293 293 291 291 291 291 291 291 291 291 291 292 292 293 293 293 293 293 294 295 295 295 294 292 289 286
295 291 292 286 287 285 281 281 280 282 282 281 282 281 278 283 278 276 281 289 293 294 293 291 291 290 290 291 291 290 289 289 289 289 289 289 289 289 290 291 291 291 291 292 293 294 294 294 294 293 291 288 287 286
285 288 287 285 282 283 281 280 279 280 280 280 282 280 281 278 280 284 283 292 294 294 293 293 294 294 295 292 290 290 290 290 290 290 289 289 288 288 288 288 289 290 290 291 291 292 293 294 294 293 290 287 286 286
284 284 287 286 287 286 283 285 285 282 281 283 280 280 279 283 282 285 292 292 293 294 294 293 293 292 293 294 291 290 290 290 290 290 289 289 289 289 288 288 288 288 288 289 290 290 290 291 291 290 288 287 286 285
286 286 283 285 286 287 282 281 282 283 284 283 282 281 283 283 285 292 290 290 290 290 290 290 291 291 291 291 291 290 290 290 289 289 289 289 289 289 289 288 288 288 288 288 288 289 289 289 289 290 290 290 288 286
286 286 287 281 284 285 286 283 283 286 286 285 283 282 283 289 291 291 290 289 289 288 289 289 288 289 289 289 289 289 289 289 288 288 289 289 289 289 288 288 288 288 288 288 288 288 288 288 289 289 288 289 289 288
286 286 286 285 283 285 286 286 286 286 285 286 286 287 288 289 289 289 288 288 288 288 288 288 288 288 288 288 288 288 288 288 288 288 288 288 288 287 287 287 287 287 287 288 288 288 288 288 288 288 288 287 286 285
286 286 285 285 285 285 286 286 286 286 286 286 286 286 287 288 288 288 288 288 288 288 288 288 288 288 287 288 288 288 287 287 287 287 287 287 287 287 287 287 287 287 287 287 288 288 287 287 287 287 286 285 285 284
285 285 284 281 283 285 286 286 286 286 285 285 286 285 285 286 287 287 288 288 288 288 288 288 288 288 287 287 286 286 287 287 286 286 286 286 286 286 286 286 286 286 287 287 287 287 287 286 286 285 285 284 284 283
283 284 283 284 285 285 285 285 284 284 284 284 284 283 284 284 286 287 288 288 287 288 288 287 287 286 285 285 285 284 285 285 285 285 286 286 287 286 286 286 286 286 286 286 286 286 286 285 284 284 283 283 282 282

GFSWCAN_850_thetae_081.txt.gz
Theta_e
321 323 323 322 321 317 313 311 310 310 308 306 300 298 298 298 299 297 298 299 299 298 297 297 297 297 296 295 295 296 295 296 297 301 299 303 306 305 306 306 306 309 309 309 309 310 310 304 304 307 306 309 310 311
320 322 323 323 320 316 311 311 311 310 309 304 298 297 298 298 298 299 299 299 299 298 298 298 298 298 297 297 296 296 295 295 295 293 293 292 300 302 305 309 303 309 304 306 306 306 304 305 307 308 309 309 311 311
321 321 322 322 319 315 311 311 311 310 305 303 297 296 297 299 299 299 299 299 298 298 298 298 298 297 297 296 296 296 295 295 295 296 296 295 296 297 304 305 304 304 302 304 306 305 303 306 307 307 308 309 311 312
320 321 321 321 316 314 312 311 311 309 306 301 297 296 298 301 300 300 299 298 299 299 298 297 297 297 296 295 295 296 296 295 295 296 296 294 298 298 298 299 299 302 301 302 302 303 304 307 307 308 308 307 311 312
320 321 321 319 316 312 312 312 311 309 307 297 296 300 302 301 301 301 300 300 299 300 299 298 297 295 294 294 295 295 295 295 295 295 295 295 294 294 295 297 298 301 302 303 304 304 305 307 308 308 308 308 310 311
320 321 320 317 313 312 312 311 309 306 300 299 302 303 302 301 302 302 300 298 299 297 297 294 295 295 295 294 295 294 294 295 295 294 295 294 295 295 294 299 300 302 304 304 304 305 306 306 309 309 309 308 309 310
320 320 319 314 313 312 311 309 308 305 305 304 303 302 301 300 302 300 299 298 299 298 296 293 292 294 294 296 296 295 295 294 294 294 295 295 296 296 294 296 299 301 302 303 303 304 307 307 309 309 309 308 309 309
320 319 316 314 312 310 310 308 305 305 304 302 301 300 298 300 300 298 299 300 298 297 294 291 289 292 295 297 297 296 294 294 294 294 295 295 295 295 295 295 296 297 297 298 304 305 306 308 308 309 308 308 309 309
320 317 314 312 311 309 308 304 304 302 299 296 292 292 298 299 297 298 298 296 296 296 294 292 289 287 294 295 297 296 296 295 294 294 295 296 297 296 295 295 295 296 297 302 304 306 305 307 307 308 308 307 307 307
318 315 310 309 309 306 300 301 300 296 292 292 293 295 297 297 297 296 295 295 295 295 294 293 293 291 294 295 295 296 296 295 291 295 296 296 297 296 296 296 296 298 299 303 304 305 305 306 307 306 307 306 306 306
315 314 311 308 305 300 299 295 292 292 291 292 295 295 296 296 296 295 294 294 295 292 293 293 293 293 295 295 294 295 293 293 293 294 296 295 298 300 298 298 298 296 297 298 300 304 305 305 306 306 305 305 304 304
312 310 307 303 299 294 292 292 292 293 292 294 295 295 295 294 295 295 293 294 292 293 293 293 294 294 296 295 295 297 300 299 298 297 297 296 303 298 298 298 299 300 301 302 303 303 304 304 304 304 304 303 303 302
305 303 299 296 293 293 292 293 293 294 294 294 295 295 294 295 292 293 292 293 291 293 294 295 298 298 298 296 296 299 302 303 297 299 299 304 299 298 298 298 299 300 301 301 301 301 301 302 302 302 302 301 302 302
299 294 292 292 292 293 294 294 294 294 295 296 295 294 293 293 294 293 290 289 294 296 297 298 297 298 299 300 300 301 303 304 304 300 301 298 298 297 298 298 298 298 299 300 300 300 300 301 301 301 300 300 300 299
291 292 292 293 295 295 295 295 294 295 296 296 295 294 293 293 293 294 294 295 296 296 296 297 297 298 300 301 301 302 301 299 302 303 297 299 297 297 297 297 298 298 298 298 299 299 299 299 299 299 297 295 292 290
292 295 296 297 296 297 296 295 295 295 295 295 293 291 290 292 291 293 294 294 296 296 296 297 298 299 301 300 300 298 302 301 301 300 299 297 298 298 298 298 298 297 297 296 296 296 296 295 294 293 291 289 288 288
299 297 297 298 297 296 295 295 296 296 297 294 294 294 293 293 293 293 294 295 296 296 295 297 295 299 298 297 295 294 299 299 299 299 298 297 298 299 298 298 298 297 295 294 294 292 292 293 292 292 290 288 288 288
300 296 296 296 297 298 297 297 296 296 294 294 293 293 293 294 294 294 295 295 296 296 296 294 296 296 298 297 293 294 299 299 300 299 299 299 298 298 297 299 299 298 296 294 297 294 293 295 295 295 294 290 288 287
297 296 295 296 296 297 297 296 296 295 293 293 293 293 292 293 293 294 295 295 295 295 295 295 295 296 297 296 295 299 300 299 299 299 299 300 299 298 297 297 298 299 298 297 294 293 294 294 295 294 295 294 291 288
296 294 295 296 296 297 296 295 295 295 292 293 292 292 293 293 293 293 293 294 294 293 294 293 294 296 296 299 300 299 299 299 299 297 296 296 295 295 296 297 298 298 297 297 296 295 294 294 294 294 295 295 294 289
297 297 296 296 296 296 294 293 293 293 291 291 290 292 291 290 290 290 291 292 292 292 291 293 294 295 296 297 297 298 296 297 298 297 296 297 296 295 293 292 293 294 296 297 297 296 295 296 295 295 295 295 294 292
297 297 296 296 296 294 292 291 292 291 290 290 290 290 290 289 289 289 288 289 291 291 292 293 293 293 294 294 295 295 296 296 296 296 295 294 293 292 291 290 289 289 291 294 294 295 296 296 296 296 296 295 294 293
296 296 296 295 293 291 288 290 290 289 285 287 289 289 288 288 287 286 286 288 289 291 292 292 292 292 292 293 293 294 294 294 294 294 291 291 291 291 291 291 291 291 291 292 293 293 294 294 294 295 295 295 294 294
296 297 295 292 291 286 288 287 288 287 287 283 281 282 279 283 284 284 280 286 291 292 292 292 292 292 292 292 293 293 293 293 291 290 290 289 290 289 290 291 291 291 291 291 292 292 293 293 293 294 295 295 294 292
296 291 293 284 287 285 283 282 279 281 281 277 279 280 277 282 278 275 281 288 292 293 293 293 292 292 290 290 291 291 290 289 288 289 289 289 289 289 289 288 288 288 290 291 291 292 293 294 294 294 294 293 292 289
286 287 288 286 284 285 283 279 281 281 279 279 279 279 281 274 277 282 281 292 294 293 292 292 293 294 294 292 290 289 289 290 291 291 290 290 290 290 290 289 289 289 288 288 288 290 290 291 292 293 293 292 290 287
283 283 287 286 287 286 282 285 285 280 277 280 277 275 277 281 280 284 291 291 292 294 294 293 293 293 293 292 292 292 290 290 290 290 290 290 291 291 290 289 289 289 288 288 288 288 288 289 289 290 290 290 289 288
287 287 283 285 286 286 280 279 278 281 281 284 282 280 282 283 285 291 289 289 289 289 289 289 289 290 290 290 289 289 290 290 289 289 290 290 290 289 288 288 288 288 288 288 288 288 288 288 288 288 288 288 288 289
287 286 287 279 284 285 286 282 282 287 286 285 283 282 284 288 290 290 289 289 288 288 288 288 288 288 288 288 288 288 288 288 288 288 288 288 288 288 288 288 288 287 287 287 287 287 288 288 288 288 288 288 288 288
286 286 287 284 279 281 286 286 286 285 285 285 286 286 287 289 289 288 288 288 288 288 288 288 288 288 288 288 288 288 288 288 288 287 287 287 287 287 287 287 286 286 286 286 286 286 287 287 288 288 288 287 287 287
286 286 285 285 283 285 285 286 286 285 285 286 286 285 286 287 288 288 287 287 287 287 287 287 288 288 288 288 288 287 288 287 286 286 286 286 286 286 286 286 286 286 286 286 286 286 286 287 287 287 287 286 286 285
285 285 284 280 283 285 285 285 285 285 285 284 284 284 285 286 287 287 287 287 287 287 287 288 288 288 287 286 285 285 285 285 284 284 285 285 285 285 285 285 285 285 285 285 286 286 286 286 286 286 285 285 285 284
283 284 283 283 284 284 284 284 284 283 284 284 283 283 284 284 286 286 286 286 287 287 287 287 287 286 284 284 284 284 284 284 283 283 283 283 283 283 283 284 285 285 285 285 285 285 285 285 285 284 284 284 283 283

GFSWCAN_850_thetae_084.txt.gz
Theta_e
303 305 306 320 320 322 321 316 310 309 309 306 303 300 298 298 298 298 298 298 298 298 298 297 297 297 296 296 298 297 298 298 299 301 301 302 305 307 308 308 309 311 312 312 311 312 311 305 306 309 310 310 310 312
303 305 310 318 323 322 321 313 310 309 308 307 305 300 297 297 297 297 298 298 298 298 298 298 298 298 297 297 296 297 297 296 297 298 298 298 300 302 304 308 306 311 309 310 311 310 307 306 308 308 309 310 311 312
304 306 314 319 322 322 319 313 310 309 309 307 304 298 296 296 296 297 298 299 299 298 299 298 297 297 297 296 296 296 296 296 296 295 296 296 298 300 303 306 305 306 302 308 308 309 308 306 306 308 308 308 309 311
304 306 313 320 321 321 315 313 310 309 310 308 301 297 296 297 297 298 299 299 299 297 299 297 296 297 295 295 295 296 296 295 295 296 296 296 298 299 300 301 301 303 302 306 307 307 306 307 307 307 307 307 306 310
305 305 310 317 319 318 314 310 310 310 310 306 298 296 297 299 299 300 299 300 298 298 299 298 296 295 294 294 295 295 295 295 295 296 296 297 296 297 297 297 298 298 301 306 308 304 305 306 306 306 308 308 307 310
306 308 313 317 319 315 311 310 310 309 307 303 298 300 301 301 300 301 299 299 298 298 297 298 296 295 295 294 294 294 295 295 295 296 296 295 295 296 297 297 298 299 299 300 303 303 304 305 306 307 308 308 307 310
306 308 314 316 319 312 310 310 309 308 307 299 301 302 302 302 301 299 299 298 298 297 297 296 296 294 293 296 296 295 294 295 295 295 295 295 295 295 297 297 298 299 301 300 298 301 305 306 307 308 309 308 308 309
307 310 317 316 316 312 311 310 309 307 301 303 303 302 301 300 300 299 298 299 297 297 295 295 296 294 294 296 297 296 294 294 294 295 295 296 296 296 297 297 296 296 296 296 297 298 303 304 305 307 308 308 308 308
309 312 319 316 314 311 309 309 306 303 303 303 302 301 299 300 298 297 297 297 296 296 295 294 296 298 293 295 296 296 295 296 295 296 296 296 297 297 297 297 296 296 296 297 301 303 304 305 305 306 307 307 307 307
311 315 316 313 311 310 307 305 304 304 303 302 301 294 297 297 297 296 295 295 295 296 294 295 293 296 295 295 296 297 297 297 297 297 296 297 298 297 297 297 297 297 296 298 298 300 304 304 305 305 306 306 306 306
313 314 312 312 310 308 306 305 303 303 301 293 295 296 296 296 295 294 294 294 294 293 294 294 294 295 295 297 297 296 299 297 298 299 298 298 299 300 298 297 297 297 296 296 296 298 302 303 304 305 305 305 304 304
312 311 312 310 308 307 305 302 302 298 292 293 298 296 296 295 294 295 294 294 294 295 293 294 294 294 296 295 296 297 299 300 300 297 299 300 302 299 297 298 298 299 300 301 301 302 302 303 304 305 304 303 303 303
311 312 310 308 307 305 303 298 294 293 295 297 296 295 294 294 294 294 294 295 296 294 293 294 298 297 297 296 296 298 300 302 299 301 302 303 300 298 297 298 298 298 300 300 301 300 301 302 302 303 302 301 301 301
311 310 308 306 303 300 296 292 293 296 299 297 297 295 295 294 294 295 295 295 294 294 295 298 298 298 299 298 298 302 301 303 306 304 305 302 299 297 297 297 298 298 298 298 299 299 300 300 300 300 300 300 300 299
308 306 303 300 296 292 292 293 296 298 297 296 295 297 294 293 292 293 293 295 296 297 297 297 297 297 300 300 300 302 303 303 304 305 303 299 297 298 297 297 297 297 297 297 298 298 298 298 298 296 295 294 291 290
302 296 292 292 292 293 294 295 298 301 296 295 293 292 291 293 290 292 293 295 296 296 296 296 297 300 300 301 302 302 303 303 304 302 300 298 297 298 297 297 297 296 296 296 296 295 296 295 294 292 290 289 288 288
295 296 294 293 295 294 295 299 298 296 296 294 294 294 293 293 293 293 294 295 296 296 296 297 297 298 298 300 299 300 302 302 300 299 299 299 297 297 297 297 297 297 297 297 296 292 292 291 291 291 290 288 288 287
297 296 298 300 298 296 296 296 296 295 294 293 294 293 293 294 293 293 294 295 296 296 296 296 296 297 299 299 300 299 300 299 299 299 299 299 298 298 297 297 298 297 297 297 297 293 293 293 293 294 294 293 291 288
297 297 297 297 297 295 296 295 295 294 292 293 293 293 293 293 294 295 295 295 296 296 296 295 295 297 297 298 298 298 299 299 299 299 298 297 297 297 297 298 297 298 298 298 299 297 293 293 294 294 294 294 294 292
298 297 296 296 296 297 295 294 296 295 292 292 292 292 292 292 293 294 294 295 295 295 294 294 295 295 296 297 298 298 299 299 299 299 298 297 296 295 295 294 293 294 297 299 299 298 297 295 294 294 294 294 294 294
297 296 297 296 296 296 294 293 293 292 291 291 290 291 289 289 290 291 292 293 293 293 293 294 295 295 295 295 296 297 297 297 296 296 297 297 296 295 294 292 290 290 290 292 294 296 296 297 296 295 296 296 295 295
296 296 296 295 296 294 293 291 292 290 290 288 290 290 288 287 287 288 289 291 292 293 293 294 294 294 294 294 294 294 295 295 295 296 296 295 294 292 291 290 291 291 290 289 289 290 293 294 294 295 295 295 295 295
296 296 296 296 294 292 288 291 290 289 289 288 288 288 287 287 287 287 286 288 289 291 292 292 292 292 291 292 292 292 293 294 295 295 294 292 291 291 290 290 290 291 291 291 292 292 293 293 293 293 294 294 295 295
296 296 295 292 291 286 289 287 288 287 287 286 288 287 284 284 284 283 285 286 291 292 292 292 292 291 291 292 292 292 292 293 293 293 290 289 289 288 289 289 288 288 288 290 291 291 292 292 293 293 293 294 294 295
296 291 292 285 287 286 285 285 284 284 285 282 281 281 281 281 283 282 284 288 292 293 293 292 293 293 292 289 290 292 292 292 291 289 289 290 291 291 291 291 291 289 289 288 288 288 290 291 292 293 293 294 293 293
290 288 289 286 285 286 285 286 283 283 282 281 281 278 280 280 281 286 285 291 293 293 292 291 291 291 292 291 290 289 289 289 289 289 290 290 290 290 291 291 291 290 288 288 288 288 288 288 289 290 291 291 291 290
286 285 286 286 287 286 284 284 284 283 281 283 280 279 281 283 284 285 291 291 292 293 292 292 292 292 293 292 293 293 293 291 290 290 290 290 290 289 289 289 289 288 288 288 288 287 287 287 287 288 288 289 289 289
287 287 286 285 285 286 282 280 281 283 283 283 282 280 284 285 287 290 289 289 289 289 289 289 289 290 289 289 290 290 289 289 289 289 289 289 289 288 288 288 288 288 288 288 288 288 287 287 287 287 287 287 287 287
287 286 287 281 284 285 285 283 284 287 287 285 283 283 284 288 289 289 288 288 288 288 287 288 288 288 288 288 288 288 288 288 287 287 287 287 288 288 288 287 287 287 287 287 287 287 286 287 287 287 287 287 287 287
285 287 286 281 280 283 286 287 286 286 286 286 286 286 287 288 289 289 288 288 287 287 287 287 287 287 288 288 288 288 288 288 288 287 287 287 287 287 287 286 286 286 286 286 286 285 286 286 286 287 287 287 287 287
286 287 286 285 283 285 285 286 286 285 285 285 286 285 286 287 288 288 287 287 287 287 287 287 288 288 288 288 287 286 286 286 285 285 284 284 284 284 284 285 285 286 285 285 285 285 285 285 285 286 286 286 286 286
285 286 283 279 282 283 284 284 285 285 284 284 284 284 284 285 286 286 286 286 286 287 287 287 287 287 287 287 287 285 285 285 284 284 284 284 284 284 283 283 283 283 284 284 284 284 284 284 284 285 285 285 284 284
283 283 283 283 282 282 283 284 283 283 282 283 283 283 283 284 285 285 285 285 286 287 287 287 287 287 287 286 285 284 284 284 284 283 283 283 283 283 282 282 281 281 281 282 283 283 283 283 283 283 283 284 284 283

GFSWCAN_850_thetae_087.txt.gz
Theta_e
298 300 300 306 306 312 316 318 315 310 307 307 303 299 299 299 299 299 299 299 300 302 299 298 298 299 298 299 301 300 300 300 301 302 302 305 306 306 307 308 310 311 312 313 313 313 311 308 308 309 311 311 311 312
298 300 302 303 305 309 317 318 314 309 307 305 302 299 298 298 298 299 300 299 298 301 300 298 298 298 298 298 299 298 299 298 299 301 302 301 303 304 305 307 308 310 310 312 311 311 308 308 309 309 309 310 311 313
297 298 300 302 305 306 315 318 313 308 307 305 303 299 298 298 298 299 299 299 300 300 299 299 299 297 297 297 297 299 298 298 298 298 298 299 300 301 303 305 306 307 304 309 309 309 309 309 308 308 309 309 310 311
297 297 299 304 305 309 312 318 312 308 306 305 303 299 297 297 297 298 299 300 300 300 303 299 297 297 296 296 296 297 297 296 297 297 298 298 299 300 302 302 302 302 304 307 308 308 308 308 308 308 308 308 307 308
296 298 300 305 307 310 312 316 309 306 307 306 303 298 297 296 297 298 300 299 298 302 302 299 297 295 294 294 294 295 296 296 296 297 298 298 297 298 299 299 300 300 301 302 305 307 307 307 306 306 307 307 307 307
297 300 303 304 307 311 313 313 308 307 306 305 301 297 297 298 298 300 301 298 297 297 301 301 296 294 295 294 295 295 296 295 296 297 297 297 296 297 298 300 300 299 299 299 300 300 302 304 306 307 307 308 307 308
297 301 305 306 309 310 314 311 308 307 307 307 302 298 300 300 300 299 300 299 298 298 299 299 299 294 293 295 295 295 295 296 296 297 296 296 296 296 298 299 299 299 298 298 299 299 300 306 306 305 306 307 307 308
298 302 306 307 309 309 313 310 308 308 307 301 300 301 301 300 298 298 297 298 297 297 297 300 299 296 295 298 298 296 296 295 295 296 296 296 296 297 298 299 299 298 298 296 297 299 301 300 304 305 306 306 306 307
300 304 306 308 309 311 311 308 307 306 300 301 302 302 302 300 299 298 298 297 297 297 298 298 302 302 294 298 297 296 295 297 296 296 296 296 298 299 299 299 298 298 299 297 298 301 302 303 304 304 305 306 306 305
302 306 307 309 309 311 309 307 306 301 302 303 302 298 297 298 296 297 296 295 295 294 296 299 297 300 297 298 297 297 297 298 299 298 297 297 299 299 299 298 297 297 298 298 297 300 298 300 303 304 304 304 305 305
306 306 308 308 309 310 307 305 302 302 302 301 295 297 297 296 295 295 296 296 294 296 296 297 297 299 296 299 299 297 299 298 299 300 299 300 301 301 299 297 298 297 298 297 297 298 299 301 302 303 304 304 305 304
305 308 308 308 310 308 305 302 302 303 301 294 297 296 296 295 295 296 296 295 296 298 296 297 297 297 297 296 297 297 299 300 300 298 300 302 303 299 297 298 298 298 298 298 300 301 303 303 303 303 302 303 303 303
308 309 308 308 308 305 303 302 302 301 293 298 297 295 296 295 296 296 297 297 298 296 296 296 297 297 296 296 296 298 300 302 300 301 303 304 301 299 297 297 297 298 299 299 299 300 300 300 300 300 301 302 302 302
309 308 308 309 305 304 303 301 301 294 299 300 298 296 299 296 296 297 298 299 297 297 296 299 299 299 299 298 299 301 302 302 304 306 305 304 300 298 297 296 297 297 297 298 298 299 299 299 299 300 300 300 300 300
308 308 308 306 305 303 302 300 297 299 300 299 298 302 296 295 294 295 295 296 297 298 299 298 298 298 300 300 300 302 302 304 305 306 305 301 299 297 298 297 297 296 296 297 297 297 297 297 298 298 296 294 292 291
306 305 305 305 303 301 300 297 298 301 297 296 294 294 294 296 293 294 296 297 298 298 297 298 298 299 300 300 301 302 303 304 306 303 301 299 298 297 297 298 296 296 296 296 296 296 294 294 293 292 290 289 288 288
304 298 303 303 301 296 296 299 301 300 296 295 295 294 295 296 295 295 297 297 297 297 297 297 298 299 299 300 301 302 304 305 303 300 299 299 299 298 297 298 298 296 296 296 297 297 293 291 292 292 292 291 289 288
297 298 300 296 294 296 299 301 296 296 295 294 296 294 294 294 295 295 295 296 296 297 297 298 297 298 299 300 302 303 302 300 299 299 299 300 299 299 298 297 297 298 297 297 297 296 293 293 293 293 294 294 294 292
297 295 293 295 298 301 296 295 295 295 292 292 291 293 294 294 294 294 295 296 296 296 296 295 297 297 299 300 301 300 299 300 300 299 300 297 297 296 295 295 295 296 297 298 297 298 298 297 294 292 293 293 294 294
294 295 296 299 300 297 295 295 295 294 294 292 292 292 291 292 294 294 295 295 295 295 296 296 296 297 298 298 297 298 298 299 299 299 298 298 296 296 295 295 295 294 293 293 294 296 298 298 297 295 294 293 294 294
296 296 297 299 297 296 294 293 292 291 291 290 289 291 289 291 292 293 294 295 295 295 295 295 296 296 296 296 296 296 297 298 297 297 297 296 296 296 295 293 292 291 291 291 291 291 292 294 295 296 295 295 295 295
296 296 295 295 295 294 292 291 291 290 289 288 290 290 290 290 290 290 291 292 293 294 294 295 295 295 294 294 294 294 294 294 294 296 296 295 296 295 291 291 291 291 291 291 291 291 290 289 290 292 293 294 294 294
296 296 295 296 294 292 289 290 290 289 292 289 289 290 290 289 287 288 289 290 291 292 293 293 293 293 293 292 292 292 292 292 293 293 294 294 294 291 290 289 288 288 288 289 290 290 291 292 292 293 293 293 293 293
295 296 295 292 291 288 289 288 288 288 289 290 291 290 288 286 285 285 289 289 291 292 292 292 292 292 291 291 292 292 292 291 292 293 294 293 290 289 289 290 290 290 289 289 289 288 288 290 291 292 292 293 293 294
296 291 292 287 288 288 289 288 288 289 290 287 288 287 284 283 287 287 288 290 291 292 292 292 291 292 292 291 290 291 291 292 292 293 292 289 289 290 290 290 291 290 290 289 288 288 288 287 288 289 291 292 293 293
292 288 290 289 288 290 289 289 288 288 287 286 286 280 281 285 287 290 290 290 292 292 292 292 292 291 291 291 289 289 289 290 290 289 289 290 290 290 290 290 290 291 290 289 288 288 288 287 287 287 287 288 289 290
290 289 287 287 287 286 286 285 286 287 287 288 285 282 284 287 289 290 290 290 291 292 291 291 292 292 293 292 292 292 292 291 289 289 289 289 289 289 289 289 289 288 288 288 288 288 288 287 287 287 287 287 287 288
287 287 288 285 286 286 286 286 287 288 288 285 285 285 286 289 291 289 288 289 289 289 290 290 290 290 290 289 289 289 289 289 289 289 289 289 288 288 288 287 287 287 287 287 287 287 287 287 287 287 286 287 287 287
287 287 288 283 285 285 286 287 288 287 287 286 288 288 286 287 288 288 288 288 288 288 288 288 288 288 288 288 288 288 288 288 288 288 288 288 288 288 287 287 286 286 286 287 287 286 286 286 286 286 286 286 286 287
286 287 286 283 285 287 286 286 286 287 287 286 286 286 287 287 288 288 288 288 288 287 287 287 287 287 288 288 288 288 288 287 287 286 286 286 286 285 285 285 285 285 284 284 285 285 285 285 285 285 285 285 285 286
286 287 286 285 284 284 285 285 285 285 285 285 285 286 286 287 287 287 287 287 287 287 287 287 287 287 287 287 287 287 287 287 286 285 284 284 284 284 284 284 284 284 284 284 284 284 284 284 284 284 285 285 285 285
285 284 284 283 281 283 283 283 284 283 284 284 284 285 285 285 286 286 286 286 286 287 287 287 287 287 287 287 287 287 286 285 284 284 284 283 283 283 283 283 283 283 283 282 282 282 282 283 283 283 284 284 284 284
282 282 282 282 282 281 282 282 282 281 282 282 282 282 283 283 284 285 285 285 286 286 286 287 287 287 287 286 285 284 284 283 283 283 282 282 282 282 281 281 280 280 279 279 280 280 281 281 282 282 282 283 283 283

GFSWCAN_850_thetae_090.txt.gz
Theta_e
298 299 298 299 302 302 305 305 311 313 313 309 305 305 304 301 299 300 300 299 301 303 299 300 300 299 299 300 301 299 299 300 301 302 302 304 304 304 304 306 309 308 309 310 310 310 312 308 308 309 310 311 311 312
298 299 298 301 300 304 304 308 310 315 311 308 306 306 301 301 300 299 299 299 301 302 299 299 299 299 299 299 300 298 299 299 299 300 300 299 301 300 302 303 307 308 308 309 312 311 308 308 308 308 309 308 310 312
298 298 297 297 300 305 305 309 311 313 309 308 307 303 299 299 299 299 299 299 300 300 298 300 299 298 298 297 298 300 298 298 298 298 299 297 297 298 299 301 303 306 304 307 307 308 308 308 308 307 308 308 309 310
298 298 296 298 301 304 302 308 311 311 308 305 302 299 299 298 298 299 299 299 301 302 301 298 298 297 297 297 297 298 298 297 297 298 298 298 298 299 299 299 299 300 300 303 304 304 307 307 306 306 307 307 307 307
296 297 297 296 300 304 302 307 311 309 305 304 301 299 298 298 298 299 300 300 301 303 301 298 297 295 295 295 296 297 297 296 297 298 297 296 298 297 298 298 297 299 299 299 300 301 303 305 302 306 307 308 307 307
295 297 297 297 301 305 303 307 312 308 305 303 300 298 297 297 298 300 300 299 299 301 299 298 296 294 295 295 295 296 296 295 296 297 298 297 296 296 297 297 300 300 299 299 299 299 299 300 303 304 305 306 307 307
293 296 295 301 303 303 307 307 310 307 306 303 299 298 297 298 298 301 302 299 297 298 299 297 296 294 294 296 296 295 295 295 296 297 297 297 296 296 297 297 299 299 299 299 298 297 299 300 301 300 304 306 306 307
293 296 297 302 304 306 308 307 308 305 304 299 298 297 298 299 299 300 299 298 297 298 299 298 296 294 295 297 296 295 295 295 295 297 297 296 296 297 297 297 298 299 299 299 298 297 297 300 302 302 305 305 305 306
295 297 298 303 304 306 307 308 306 303 299 298 297 298 299 299 299 298 298 298 297 298 298 299 296 296 296 297 297 296 295 296 296 296 297 297 297 298 297 299 299 299 297 298 298 298 298 300 301 304 305 305 305 305
295 297 300 304 306 305 306 307 305 301 299 299 300 299 298 298 298 296 297 296 295 296 297 299 299 296 298 297 297 297 297 299 299 298 296 297 298 298 299 299 298 297 296 296 297 298 298 298 299 304 303 304 305 305
296 298 303 304 305 304 306 306 303 300 300 299 297 297 297 297 296 296 296 297 295 296 296 298 299 296 297 298 299 297 298 299 298 299 298 300 299 299 299 298 298 297 297 297 298 297 298 300 301 303 303 303 303 303
298 302 304 305 305 306 306 303 300 300 300 299 297 296 296 295 295 298 297 296 296 297 297 297 297 298 296 297 297 297 298 299 299 298 299 300 298 300 298 296 297 297 297 298 299 299 300 301 301 302 302 301 301 301
300 303 305 305 305 306 303 301 301 300 298 298 301 296 297 296 298 298 297 297 298 297 296 296 297 297 295 296 296 297 299 301 299 300 300 299 301 299 297 296 296 296 298 298 299 299 299 300 300 300 300 300 300 300
302 304 305 305 306 304 302 301 300 298 299 301 299 297 300 298 299 298 299 299 298 297 296 297 297 299 298 297 299 300 299 301 302 303 303 302 300 299 298 297 297 297 297 297 298 298 298 299 299 299 299 299 298 299
304 305 305 306 304 302 301 300 298 299 301 300 301 301 299 296 295 296 297 296 297 297 299 297 298 298 299 300 300 301 302 301 301 301 302 301 300 298 297 297 297 294 295 297 297 297 297 297 297 298 297 294 291 290
306 305 305 303 302 300 300 298 298 301 301 297 295 295 295 295 293 295 297 297 298 299 298 298 296 298 298 299 299 300 301 298 298 302 301 300 299 298 297 297 297 296 296 296 296 295 294 292 291 291 290 289 288 288
304 302 303 301 300 299 299 298 300 300 297 296 295 294 295 296 294 296 297 298 298 297 296 297 297 294 298 299 300 299 301 298 301 300 299 300 300 299 297 297 298 296 296 296 296 296 296 295 293 292 293 294 293 291
300 299 301 299 300 298 298 300 297 296 295 294 296 294 295 295 295 297 297 297 297 298 297 296 297 297 298 298 296 296 301 300 300 300 299 299 299 299 298 297 297 297 297 297 297 297 297 297 295 294 293 293 294 294
297 297 298 300 298 299 299 296 296 293 292 293 294 294 294 294 295 296 296 297 297 297 296 296 293 295 295 298 300 301 301 300 300 299 300 299 297 296 296 295 295 294 294 295 297 298 298 298 298 298 297 294 293 293
297 299 299 298 299 299 295 295 295 294 294 292 293 293 293 293 294 295 296 296 296 296 295 293 294 296 297 298 298 299 298 298 299 299 298 298 297 296 296 296 295 294 293 292 291 291 292 293 293 295 296 296 294 294
296 297 298 299 297 294 294 294 292 292 291 291 291 291 291 293 293 294 293 294 295 295 295 296 296 296 296 296 296 296 296 296 298 298 297 297 296 296 296 295 293 291 291 291 291 290 290 290 290 290 292 294 295 295
297 298 299 298 296 294 292 292 291 290 290 290 290 290 290 291 292 292 293 294 294 295 295 295 295 295 295 295 295 295 294 294 294 295 296 296 296 295 295 292 291 290 289 289 289 290 290 291 291 291 291 291 292 293
298 299 295 296 294 292 290 290 290 290 289 289 290 288 289 289 289 290 290 292 293 294 294 294 294 294 293 293 293 293 292 292 292 292 293 294 294 294 293 289 288 289 289 289 289 289 288 288 289 291 291 292 292 292
298 295 295 293 291 289 289 288 289 289 289 289 287 286 287 285 286 286 285 290 291 292 292 292 292 292 292 292 292 292 292 291 291 292 293 294 294 292 289 289 290 290 290 290 290 289 288 288 288 288 288 290 292 293
295 291 293 288 289 289 289 288 288 288 287 286 285 283 282 284 283 283 285 290 291 291 292 292 292 292 293 290 290 291 291 291 292 292 293 293 291 288 289 290 290 289 289 290 290 289 288 288 287 287 287 287 287 288
291 288 290 289 288 290 289 289 288 287 286 284 283 281 283 283 284 286 287 290 291 292 292 293 293 291 290 289 289 289 290 291 292 292 291 289 289 289 290 290 290 289 289 289 288 288 288 288 287 287 287 287 287 287
291 289 287 287 288 287 287 287 287 287 285 284 282 282 282 284 285 287 289 290 291 291 291 291 291 292 292 292 292 292 292 291 290 289 289 289 289 289 289 289 289 288 287 287 287 287 287 288 287 287 287 287 287 286
288 288 288 286 287 287 286 285 285 285 285 286 285 283 286 286 287 288 288 289 290 290 291 291 291 291 290 289 289 288 288 288 288 288 288 288 288 288 287 287 287 287 287 287 287 287 287 287 287 286 286 286 286 286
287 287 289 283 285 286 287 286 286 287 287 287 285 284 285 287 288 288 288 288 288 288 288 287 287 287 287 287 287 288 288 288 288 288 288 288 287 287 286 285 285 285 285 285 285 285 285 285 285 285 285 285 285 285
286 287 286 284 284 285 285 286 286 286 286 287 287 286 287 287 288 288 288 288 288 288 287 287 287 287 287 288 288 287 287 287 287 287 287 286 286 285 285 284 284 284 284 284 284 284 284 284 284 284 284 284 284 285
287 287 286 286 282 282 284 284 285 286 286 286 286 286 286 287 287 288 288 288 287 286 286 286 287 287 287 287 287 287 287 287 286 286 285 285 284 284 284 284 284 284 283 283 282 282 282 282 282 282 283 283 283 283
285 284 284 281 280 282 284 285 285 285 284 285 285 285 285 286 287 286 286 286 286 286 286 286 287 287 287 287 287 287 287 286 284 284 283 283 284 284 283 283 283 282 282 281 280 280 280 280 280 280 281 281 282 282
282 283 282 282 281 280 283 284 282 281 282 282 282 283 283 284 285 285 285 285 286 286 286 286 286 287 287 287 286 285 284 283 283 283 283 283 283 282 282 281 280 279 279 278 278 278 278 279 279 279 280 280 281 281

GFSWCAN_850_thetae_093.txt.gz
Theta_e
297 297 298 299 300 298 301 301 306 307 308 310 313 316 303 304 302 301 302 300 302 300 299 300 301 300 300 300 297 298 299 299 299 298 295 295 300 301 302 304 307 307 306 307 307 307 309 307 307 308 307 309 310 311
297 297 297 299 299 298 300 303 306 307 310 309 312 307 303 303 302 301 301 300 301 301 298 299 299 299 300 300 300 299 299 298 298 297 293 292 297 293 298 298 302 304 306 309 311 309 308 308 305 306 307 308 309 312
297 296 297 298 299 296 298 304 306 306 310 309 309 302 303 302 301 302 301 300 301 299 297 299 298 298 298 298 300 298 298 298 298 298 296 293 295 293 295 295 300 302 303 303 304 306 306 303 304 306 307 307 307 309
297 296 297 298 298 297 303 307 307 307 309 309 307 305 302 300 303 302 299 299 300 300 299 297 297 297 297 297 298 299 298 298 297 298 297 291 296 297 296 297 297 298 298 299 300 299 303 304 303 304 305 306 307 307
297 296 296 298 298 298 303 305 308 308 309 306 304 302 301 303 304 300 298 299 301 303 298 296 296 295 295 296 297 297 297 297 297 297 293 293 296 295 295 295 295 297 297 297 297 298 299 300 300 301 303 303 306 307
297 296 296 296 297 297 304 303 304 307 306 305 305 305 306 302 299 298 299 300 301 302 300 295 294 295 295 295 296 296 296 296 296 297 297 297 296 295 294 294 297 298 298 298 297 298 298 297 299 302 302 303 305 306
297 297 296 296 296 298 304 305 305 306 306 306 304 301 298 298 298 300 301 299 300 299 299 294 293 294 296 296 295 295 296 296 296 296 296 297 296 296 289 295 297 297 298 299 299 299 298 298 299 300 301 301 304 305
297 297 295 295 299 304 305 305 305 307 306 301 299 298 298 299 300 300 298 298 298 299 299 293 293 293 295 296 296 295 295 295 295 296 297 296 296 296 296 296 296 297 299 298 298 298 298 298 299 302 302 302 305 305
297 297 294 295 302 303 305 305 304 305 303 300 298 299 299 299 299 298 297 298 298 298 298 294 292 291 295 297 296 296 295 296 295 294 297 296 296 297 295 296 298 299 297 297 296 297 297 298 298 298 303 304 305 305
297 296 293 301 303 306 305 303 304 304 301 299 298 297 298 298 298 297 297 297 298 297 298 297 296 294 297 297 297 297 295 298 292 296 296 296 296 297 297 298 299 298 297 296 296 297 298 297 298 299 301 302 304 305
297 293 295 302 302 305 304 302 304 302 299 298 299 298 297 297 298 298 296 296 295 294 297 297 296 295 297 298 298 297 297 298 297 297 296 299 298 295 299 298 297 297 297 297 297 297 298 299 300 302 302 302 302 302
294 293 295 302 304 304 302 302 301 300 300 301 299 297 297 298 297 298 297 295 294 296 296 295 297 297 297 298 297 297 297 297 297 297 296 299 296 300 299 297 296 296 297 297 298 298 299 300 300 300 301 301 300 300
294 296 302 303 303 303 302 303 301 302 300 299 299 300 297 296 298 300 297 295 295 296 296 297 296 295 295 296 297 297 298 297 297 299 299 296 300 300 299 297 297 297 296 297 298 298 298 299 299 299 300 300 300 300
295 301 301 304 303 302 301 301 301 300 303 301 299 296 299 298 298 298 298 297 297 296 296 297 297 297 296 296 298 293 299 300 300 300 297 294 300 300 298 298 297 295 296 296 297 297 298 298 298 298 298 299 299 299
300 300 304 303 302 301 300 300 300 302 302 300 301 300 298 295 296 297 297 297 296 296 297 297 296 298 296 298 297 299 301 298 298 297 294 300 300 299 298 297 296 295 296 296 296 296 296 297 297 297 296 294 291 290
300 304 303 302 301 300 299 300 301 303 300 297 296 295 295 294 294 296 297 296 297 297 297 297 296 296 297 297 299 299 299 295 295 292 301 300 299 298 298 297 297 296 296 296 295 295 294 291 291 290 290 290 289 289
304 303 302 300 299 298 299 301 302 299 297 295 294 295 295 295 294 296 297 298 298 298 291 293 291 293 295 298 299 299 297 293 301 301 300 300 300 299 298 297 297 297 296 296 296 296 296 296 296 294 293 294 294 294
303 302 300 300 299 298 300 301 298 295 294 295 294 295 295 295 296 297 298 298 298 297 297 291 296 296 298 297 296 293 300 299 300 300 299 299 299 299 298 297 296 296 296 297 297 297 297 297 298 297 296 294 294 294
301 300 300 299 299 300 300 297 295 292 292 294 294 295 295 295 297 297 298 298 297 297 297 296 287 287 293 294 295 299 300 300 300 299 299 299 298 297 296 295 295 295 294 294 293 294 295 296 296 296 297 297 297 296
298 298 298 300 301 300 296 294 295 294 293 292 293 293 294 294 296 297 297 297 297 296 294 291 291 294 296 298 299 299 300 299 299 299 299 298 298 297 296 295 295 295 293 291 291 290 290 290 291 291 291 293 294 295
297 298 299 300 298 295 294 293 292 292 292 291 292 292 292 294 295 295 295 296 295 295 289 296 296 296 297 297 296 296 296 296 296 297 298 298 297 296 296 295 295 291 291 290 290 290 291 291 291 291 290 289 290 291
296 298 300 299 295 294 292 291 291 291 290 290 291 291 291 292 293 293 293 294 295 295 295 295 295 295 295 295 295 295 295 295 294 294 295 296 296 296 296 295 293 289 288 288 288 288 288 288 288 289 291 292 292 292
299 300 299 296 294 292 290 291 291 291 291 289 290 288 288 289 290 291 291 293 293 294 294 294 294 294 294 294 294 294 293 293 293 292 292 293 293 294 295 294 290 289 289 290 290 290 289 289 288 288 287 289 291 292
299 297 294 293 291 288 290 289 289 289 290 289 286 287 287 285 287 287 281 289 291 292 292 293 293 292 292 292 292 292 292 292 292 292 292 292 293 293 293 291 289 290 290 290 290 290 289 288 288 287 287 287 287 288
296 291 293 288 289 289 288 288 288 288 287 286 284 281 281 284 277 278 280 288 290 291 291 292 292 291 292 290 290 291 291 290 291 292 291 293 293 292 289 288 289 289 289 289 289 289 288 287 287 287 287 287 287 287
290 288 288 286 286 288 288 287 286 286 285 282 280 281 283 277 280 284 283 290 291 291 292 292 292 292 290 289 288 289 290 291 292 292 292 292 291 289 288 288 289 289 289 288 288 288 287 287 287 287 287 287 287 286
290 286 287 288 288 288 287 287 288 286 282 283 280 278 279 283 283 285 290 290 291 291 292 292 291 291 292 292 292 292 292 291 290 288 288 288 288 288 288 289 288 288 288 287 287 287 287 287 286 286 286 287 286 286
288 288 288 286 287 288 287 285 285 285 284 285 284 281 285 287 288 289 289 290 291 290 291 291 291 292 292 291 290 289 288 288 287 287 287 287 288 288 287 287 287 287 287 286 286 285 285 285 284 285 285 285 285 285
287 288 289 285 286 286 285 284 284 287 286 287 284 284 283 288 288 288 288 289 289 289 288 289 288 288 287 287 287 287 288 288 288 288 287 287 287 287 286 285 284 284 284 284 284 284 284 284 283 283 284 284 284 284
287 288 286 284 284 284 283 284 285 285 286 288 287 287 287 287 287 288 288 288 287 287 287 287 287 287 287 287 287 287 287 287 287 287 287 286 286 286 285 285 284 284 284 283 284 283 283 282 282 282 282 282 283 283
287 288 286 284 280 281 282 284 285 285 286 286 286 287 287 287 287 288 288 287 287 287 287 286 286 287 287 287 287 287 287 287 287 286 286 285 284 284 284 283 283 283 283 282 282 281 280 281 281 281 281 281 281 282
286 285 283 281 279 282 283 284 284 284 285 285 285 286 286 287 287 287 287 287 287 286 286 286 286 286 286 286 287 287 287 286 285 284 284 284 283 283 283 283 282 281 280 279 279 278 278 278 278 278 279 279 280 280
282 283 282 281 280 280 283 283 282 281 282 282 282 283 284 285 286 286 285 285 285 286 286 286 286 286 287 287 286 286 285 284 284 283 283 283 282 281 280 279 278 278 277 277 277 277 277 278 278 278 278 279 279 279

GFSWCAN_850_thetae_096.txt.gz
Theta_e
298 299 299 297 297 298 300 300 299 301 306 308 311 311 312 305 303 304 301 301 303 300 299 300 300 299 299 299 297 298 297 298 298 297 294 295 298 300 301 302 304 305 303 302 305 305 307 305 306 306 304 304 308 311
298 298 299 297 297 298 299 300 298 302 306 308 310 310 311 304 302 303 302 302 300 300 298 299 299 299 299 299 299 297 298 297 298 296 291 291 297 289 296 297 299 307 304 307 306 304 306 305 304 303 304 305 306 307
298 298 299 298 297 298 299 299 296 304 307 309 309 309 309 302 303 302 302 301 301 299 297 298 297 298 299 300 299 299 298 298 298 298 294 292 295 293 294 294 298 299 301 302 303 303 302 304 305 304 304 303 305 307
298 298 299 298 297 297 298 298 300 305 307 309 309 309 309 304 303 301 302 302 300 300 297 296 297 297 297 298 298 299 299 298 298 297 296 290 296 295 295 296 296 296 297 297 298 298 301 301 299 299 301 302 304 306
298 298 298 298 297 297 298 299 303 306 308 309 308 308 303 302 302 301 301 301 300 302 297 296 295 295 297 297 298 298 298 297 297 296 292 293 295 294 293 293 294 295 296 296 297 297 297 297 297 297 300 302 304 304
298 298 298 298 297 296 297 302 307 307 308 308 307 302 301 302 301 303 301 299 300 302 299 294 294 295 296 296 296 296 296 296 297 296 295 296 296 294 292 293 295 297 297 298 297 298 298 299 299 299 300 301 301 305
298 298 298 298 296 297 298 303 307 307 306 306 304 302 301 301 303 302 299 299 299 301 300 292 292 295 296 295 295 296 296 296 296 296 295 296 296 295 288 294 296 296 296 298 298 298 298 298 297 297 297 301 301 304
298 298 298 298 296 297 301 302 304 305 305 304 302 299 302 302 301 300 300 300 300 299 299 291 292 294 295 295 295 295 295 295 295 296 297 296 295 295 295 294 296 296 298 299 298 296 296 297 297 299 298 302 303 303
298 298 298 298 296 295 301 303 304 304 302 302 301 301 299 298 299 299 299 299 298 298 296 291 291 289 295 297 295 296 295 292 295 293 296 295 294 295 295 295 297 297 298 298 296 296 297 297 297 298 298 301 302 304
298 298 298 297 295 299 303 304 303 301 302 300 298 299 298 299 299 297 297 297 298 298 299 294 294 294 296 297 296 294 295 295 288 295 296 295 295 296 297 296 298 297 298 297 297 297 297 298 298 298 300 302 302 303
298 298 297 295 297 301 304 303 301 301 301 299 298 297 297 298 298 298 296 296 295 294 297 296 295 294 296 294 293 297 290 293 297 294 295 298 295 294 298 298 298 297 297 297 296 297 297 298 298 299 301 302 302 302
298 297 295 294 299 303 303 301 302 302 299 299 299 297 297 298 299 296 292 292 293 296 295 294 296 297 297 297 295 297 294 295 298 296 296 298 294 299 299 299 297 297 297 297 297 297 298 298 299 299 299 300 300 300
297 296 295 299 301 301 302 302 302 300 299 299 300 300 300 297 294 296 297 292 291 294 295 296 294 295 296 296 296 297 297 294 296 298 299 294 297 299 300 298 297 297 296 297 297 297 298 298 299 299 299 298 298 299
296 294 299 303 302 301 301 301 300 299 302 302 299 297 297 295 295 296 297 295 295 296 296 296 295 296 296 295 297 295 297 299 299 299 295 293 299 300 299 298 297 295 295 296 296 297 298 298 298 298 297 297 296 297
295 296 299 302 301 300 300 300 300 303 303 301 299 297 296 295 296 297 296 296 296 296 297 296 295 297 290 292 294 298 300 296 297 296 293 299 301 300 299 297 297 296 295 295 296 296 296 296 296 296 295 292 289 289
295 299 301 300 300 300 299 300 302 303 300 298 296 294 295 295 295 297 296 296 296 297 297 297 291 290 292 293 294 294 294 292 293 290 301 301 300 299 298 298 297 296 296 295 294 295 294 292 290 290 291 291 290 288
299 301 300 299 299 299 300 301 304 300 296 295 293 295 295 296 296 296 296 296 297 297 291 290 290 291 290 290 294 294 293 291 298 301 301 301 300 299 298 298 297 296 295 296 296 296 295 294 295 295 295 295 295 294
299 300 300 299 299 300 302 303 298 295 294 294 295 295 295 296 297 297 297 297 298 297 296 291 296 295 291 292 293 292 297 300 300 301 300 300 299 299 298 297 297 296 295 295 296 297 297 297 297 297 296 296 296 296
300 299 299 299 300 301 299 296 295 291 293 294 294 295 295 296 297 297 298 297 297 297 297 295 286 288 293 293 292 296 298 298 300 300 299 299 299 298 297 296 295 295 295 294 293 293 292 292 292 293 294 295 296 296
299 298 299 300 301 300 295 294 294 294 293 293 294 294 294 295 297 298 298 297 297 296 294 288 291 293 295 298 299 300 301 300 300 299 299 299 299 298 297 295 295 295 294 292 291 291 291 291 290 290 290 290 290 291
298 298 300 300 299 296 293 292 292 292 292 291 293 293 294 296 296 296 296 297 296 295 287 295 295 296 297 297 297 298 299 299 298 298 298 298 298 297 296 295 295 295 292 291 289 289 289 289 288 289 290 291 291 290
296 298 299 301 296 294 292 291 291 291 291 291 292 292 292 293 293 294 294 295 295 295 295 296 296 296 296 296 296 295 295 295 295 295 295 295 296 296 296 295 295 293 290 288 289 289 289 289 288 288 288 288 289 291
299 300 300 298 294 293 290 291 291 291 292 289 290 289 289 290 291 292 293 293 294 294 295 295 295 295 295 295 295 295 294 294 294 293 293 293 293 295 295 295 294 292 288 289 290 290 290 290 289 288 288 287 287 287
299 299 295 293 292 289 290 289 290 290 290 290 289 288 287 286 288 287 285 289 292 292 293 294 294 294 294 294 293 293 293 292 292 292 292 292 292 292 292 293 293 289 289 290 289 289 289 289 289 288 287 287 287 287
297 291 293 289 290 290 290 289 289 289 290 288 286 284 283 284 280 282 283 288 290 291 292 292 292 292 292 292 291 291 291 291 291 291 291 291 293 293 292 292 289 288 289 289 289 289 288 288 288 287 287 287 287 287
291 288 290 288 288 291 290 290 289 288 288 286 283 281 282 279 281 286 284 290 291 291 292 292 292 292 291 289 289 291 291 291 292 292 291 292 293 292 290 288 288 288 289 288 288 288 288 287 287 287 287 287 286 286
291 287 287 288 288 288 288 288 288 288 287 286 282 281 282 285 287 285 290 290 291 292 292 292 292 290 289 289 290 291 291 290 289 288 288 288 288 287 288 288 288 288 288 287 287 286 286 286 286 285 285 285 285 284
288 288 288 287 287 288 287 287 288 289 287 284 284 284 288 289 288 289 289 290 291 292 292 291 291 292 292 292 291 290 288 288 287 287 287 287 288 288 288 287 287 287 286 286 285 285 284 284 284 284 284 284 285 284
287 288 290 286 287 286 285 287 286 286 286 286 286 285 284 287 287 288 289 290 290 290 291 292 291 291 290 288 287 287 287 287 287 287 287 287 287 287 286 286 285 285 285 284 284 284 283 283 283 282 282 282 282 283
288 288 287 285 286 285 282 283 284 285 286 287 286 286 286 286 287 288 289 289 289 289 289 288 287 287 287 287 287 287 287 287 287 287 287 286 286 286 285 285 284 284 283 283 283 283 282 281 281 280 280 280 280 280
287 288 285 283 281 281 281 283 284 285 285 285 286 287 286 287 287 287 287 287 287 287 287 287 286 286 286 287 286 286 286 287 287 287 286 285 285 284 284 284 283 283 282 282 281 280 280 280 279 279 279 279 279 279
286 284 284 283 280 282 283 284 284 285 285 286 286 286 286 287 287 287 288 287 287 287 287 286 286 286 286 286 286 287 287 286 286 285 285 284 284 284 283 283 281 281 280 279 279 278 278 278 278 279 279 279 279 279
282 282 282 281 280 280 283 283 282 282 283 283 283 284 285 286 287 287 286 287 287 286 286 286 286 286 286 286 286 286 286 285 284 284 284 284 283 282 281 281 280 280 279 279 278 278 278 278 278 278 278 278 278 278

GFSWCAN_850_thetae_099.txt.gz
Theta_e
296 297 298 299 298 299 299 298 298 300 299 304 307 310 310 309 306 304 303 304 303 300 298 300 299 299 298 298 297 297 297 297 297 297 294 294 297 299 300 300 300 301 303 303 302 302 303 305 305 306 304 303 304 304
297 297 297 299 298 299 299 297 297 300 299 303 307 307 310 308 305 301 301 302 303 300 297 298 299 299 299 299 299 297 296 297 298 295 290 290 296 289 295 296 299 304 303 304 301 302 304 305 304 303 303 302 302 304
297 297 297 298 298 299 299 298 297 300 297 304 307 306 309 309 304 303 300 301 301 299 297 298 297 298 299 299 299 298 298 299 299 298 293 292 296 293 293 293 298 297 300 302 303 301 300 302 304 301 301 304 305 303
298 298 298 297 297 299 298 298 296 299 299 304 308 307 308 308 303 304 302 301 300 300 297 296 296 298 297 298 299 298 299 298 299 297 295 290 296 294 294 295 295 295 296 296 297 297 301 301 298 297 297 299 302 304
298 298 298 298 298 299 299 298 295 298 302 305 308 307 308 307 304 303 302 302 301 301 297 295 296 297 297 298 298 298 298 298 297 296 291 292 294 293 292 292 293 294 295 296 296 296 296 297 297 298 299 299 301 301
298 298 298 298 298 298 299 296 295 298 303 306 308 308 306 305 303 301 302 302 301 301 299 295 295 296 296 296 296 296 297 297 296 296 294 295 296 294 292 292 294 296 296 297 297 298 298 298 298 298 298 299 298 300
298 298 298 298 298 298 299 295 296 301 305 308 309 307 306 303 301 302 302 302 302 301 300 292 293 295 295 295 295 296 296 296 296 295 295 295 295 294 288 294 295 296 297 297 298 297 297 297 297 297 298 298 299 301
299 299 298 298 298 298 298 295 300 305 307 308 306 305 303 300 300 300 300 300 299 300 299 291 292 295 295 295 295 295 295 295 294 295 296 294 295 294 294 293 295 295 297 298 298 297 296 296 296 297 297 298 300 302
300 300 298 298 298 299 297 300 306 307 307 306 303 300 300 300 301 300 300 300 299 299 295 291 292 291 295 296 295 295 295 290 294 292 294 294 294 294 294 295 295 297 297 297 297 297 296 297 297 297 298 299 301 302
300 299 299 298 298 298 296 301 306 305 305 302 300 300 299 300 299 299 299 299 298 298 297 292 294 294 296 296 295 294 294 293 289 294 295 294 294 295 296 296 296 297 298 298 297 297 297 296 297 299 299 300 301 302
299 299 299 298 298 297 298 302 305 303 301 300 299 296 297 298 301 300 296 296 295 294 296 294 294 293 294 293 294 294 289 292 296 291 292 289 293 293 297 297 297 298 297 297 297 296 296 297 297 299 299 300 300 300
299 299 298 298 297 296 301 302 303 301 301 301 300 297 298 299 298 297 294 292 293 296 294 293 295 296 296 296 295 295 289 291 292 294 295 293 292 298 298 299 298 297 297 297 297 297 297 297 298 298 299 299 299 299
298 298 298 297 296 299 301 302 301 302 301 299 299 298 300 296 295 297 296 291 292 293 294 295 294 296 296 297 296 293 296 293 295 297 295 292 296 298 299 299 298 297 296 296 297 297 297 297 298 298 298 298 298 298
298 298 296 297 301 301 301 301 301 299 301 302 300 298 298 292 295 295 296 295 294 295 295 295 295 295 296 293 294 289 294 298 298 296 294 291 298 299 299 299 297 295 295 295 296 296 297 297 297 297 296 297 296 296
297 297 296 299 300 300 300 300 300 303 302 300 299 300 296 295 295 295 295 295 295 296 297 296 295 295 292 292 292 295 299 298 297 294 292 298 299 300 299 298 297 295 295 294 295 296 296 296 296 295 292 290 289 288
295 296 298 299 300 299 299 300 302 302 300 298 296 296 295 296 295 295 295 295 296 297 297 297 291 289 290 291 294 294 292 292 292 290 299 300 300 300 299 298 296 295 295 295 295 295 295 294 291 291 291 292 292 291
297 299 301 300 299 299 299 300 302 299 296 295 295 295 296 297 295 296 296 296 296 297 291 289 290 291 289 287 291 291 291 290 296 299 301 301 300 299 299 298 297 296 296 295 295 295 295 294 294 295 296 296 295 296
298 300 300 300 298 299 300 301 298 295 293 294 295 295 295 296 296 296 296 296 297 296 295 289 293 290 290 291 291 291 296 300 300 301 301 300 299 299 299 298 297 296 295 295 295 295 294 295 294 295 295 295 295 295
298 298 298 298 299 301 299 297 296 292 293 294 294 295 296 296 297 297 296 297 297 297 296 294 287 287 292 292 291 295 298 299 300 300 299 299 299 298 298 297 296 296 296 294 294 292 291 291 290 290 290 291 291 292
298 298 298 300 301 300 295 294 294 294 292 293 294 295 295 296 297 297 297 297 297 297 293 286 290 293 295 297 298 299 299 299 300 299 299 299 299 298 297 296 295 295 295 295 292 291 291 290 290 290 290 290 290 290
298 298 299 300 300 296 293 292 292 292 293 292 293 294 294 296 296 296 297 297 297 295 288 295 295 296 297 298 298 299 300 300 300 299 298 298 298 298 297 297 296 295 295 293 291 289 288 288 288 288 288 288 288 289
297 299 299 300 297 294 292 291 292 291 291 291 292 293 293 293 293 295 295 296 296 296 296 296 296 296 297 297 297 297 298 298 297 297 296 296 296 296 296 296 295 295 294 291 288 288 289 289 289 289 288 287 287 287
298 300 300 299 295 293 291 291 291 292 292 289 291 291 290 290 291 294 294 294 295 295 296 296 296 296 296 296 295 295 295 295 295 294 294 294 294 294 295 295 295 295 295 290 288 289 289 289 289 289 289 288 287 287
300 300 296 293 292 289 291 290 290 290 290 291 290 289 287 287 290 289 289 290 293 294 295 295 295 295 295 295 294 294 294 294 293 293 293 292 292 292 292 292 293 293 293 290 288 289 289 288 288 288 288 287 287 287
298 292 293 289 290 290 289 289 289 291 290 289 288 286 285 286 287 286 288 290 291 293 293 294 294 294 294 294 293 292 292 292 292 292 292 291 291 292 293 293 292 292 292 288 288 288 288 288 288 288 287 286 286 287
291 288 291 290 289 291 291 291 291 290 289 288 285 282 283 285 287 289 287 290 291 292 293 293 293 292 292 291 291 291 291 291 291 292 291 291 292 292 292 291 290 289 288 288 288 288 288 287 287 286 286 286 285 284
291 287 287 288 289 289 288 289 289 290 290 288 284 283 285 289 288 286 290 290 291 292 292 292 291 292 290 289 289 289 290 289 289 290 289 289 288 288 287 287 287 287 287 287 287 286 286 286 285 285 284 284 284 284
288 288 288 287 287 288 288 288 289 290 288 285 285 286 288 289 290 289 289 290 292 292 292 292 291 289 289 291 291 291 290 289 288 288 287 287 287 287 287 287 287 286 286 286 285 285 285 284 284 283 283 283 283 283
287 288 290 287 287 287 286 289 288 286 286 286 287 286 285 287 287 288 289 291 292 292 292 290 290 291 291 291 289 288 287 287 287 287 287 287 286 287 286 286 286 285 285 284 284 283 283 283 283 282 281 281 281 281
288 289 288 287 288 287 282 283 283 285 286 287 287 286 285 285 286 288 289 290 290 290 290 291 291 291 289 287 287 287 287 287 286 286 287 286 286 286 285 285 284 284 283 283 283 282 281 281 280 280 279 279 278 279
288 288 285 283 281 280 281 283 284 284 285 285 285 286 285 286 286 287 288 288 289 289 290 289 287 287 286 286 286 286 286 287 287 287 287 286 285 284 284 284 283 283 282 281 281 280 280 279 279 278 279 279 279 279
286 284 284 283 280 281 283 284 284 285 285 286 285 285 286 286 287 287 288 288 287 287 287 286 286 286 286 286 286 286 286 287 287 286 285 284 284 284 283 283 282 281 280 280 280 279 279 279 279 279 279 279 279 279
283 283 282 281 281 280 283 283 282 282 283 282 283 284 285 286 286 287 287 288 287 287 287 286 286 286 286 286 286 286 287 286 286 285 284 284 284 283 282 281 281 280 280 279 279 279 279 279 279 279 278 278 278 279

GFSWCAN_850_thetae_102.txt.gz
Theta_e
294 296 297 297 298 297 298 298 299 299 296 299 300 306 308 309 308 307 305 303 301 299 298 299 298 298 298 298 296 296 296 297 296 296 295 294 297 298 299 298 298 300 300 302 300 300 300 304 304 306 303 303 302 303
295 296 297 297 298 297 298 298 299 299 296 298 300 306 308 309 309 307 305 302 302 301 297 298 298 298 298 298 298 296 295 296 298 294 290 290 296 288 294 297 298 301 299 300 300 300 301 304 303 303 304 304 304 304
297 297 297 297 298 298 297 298 299 299 297 298 300 306 307 309 308 306 301 302 301 299 297 298 297 298 298 299 298 298 298 298 299 298 292 292 296 293 294 293 297 297 299 301 302 301 300 300 303 300 297 298 300 301
297 297 298 298 298 298 298 298 299 299 297 298 300 306 308 310 308 300 300 301 301 300 297 296 297 297 298 298 299 299 299 299 299 298 294 290 295 293 293 294 294 295 297 297 296 296 300 301 298 298 298 298 298 300
297 298 298 298 298 298 298 298 298 299 297 297 301 307 307 309 304 302 301 300 300 301 296 296 296 296 297 298 298 298 298 299 297 296 291 292 294 293 291 292 292 293 295 296 296 295 296 297 298 298 298 298 298 298
297 297 297 298 298 299 298 298 298 299 297 297 303 307 308 308 303 302 302 302 302 300 298 295 295 295 296 296 297 297 297 297 296 295 293 295 295 294 291 292 294 296 296 296 296 297 297 298 297 297 297 297 297 297
298 298 298 297 297 298 299 298 298 299 296 297 302 308 307 307 304 303 302 302 302 301 299 293 294 295 295 295 296 296 296 296 296 295 294 294 295 294 288 293 295 296 296 297 297 297 297 296 295 296 296 297 298 299
299 300 299 299 298 298 299 298 298 299 296 298 304 307 307 306 303 303 302 301 302 300 298 293 293 295 295 295 295 295 295 295 295 295 295 294 294 293 293 293 294 295 296 297 297 297 296 296 296 296 297 298 298 299
300 300 300 300 299 298 299 298 298 298 297 302 306 306 302 300 300 301 300 300 301 300 297 292 295 293 295 295 295 295 295 290 294 291 293 293 293 294 294 294 295 295 296 297 297 297 296 296 296 297 298 299 300 301
300 301 301 300 299 299 299 298 299 298 302 306 305 302 300 300 300 299 299 299 299 300 297 294 294 294 295 295 294 293 294 291 289 293 294 294 294 295 296 296 296 296 297 297 297 297 296 296 296 297 298 299 300 301
302 302 300 300 299 299 298 299 298 301 306 303 300 297 299 300 300 300 297 298 296 295 296 293 294 294 294 292 292 293 290 291 287 290 290 287 291 292 297 297 296 296 298 297 297 297 296 296 297 297 298 298 299 299
301 300 300 299 299 298 299 300 300 304 303 303 300 297 300 302 299 298 297 293 293 295 293 292 294 295 295 296 294 294 289 288 290 292 295 293 291 296 297 297 297 297 297 297 297 297 297 297 297 297 298 298 298 298
300 299 299 299 299 299 301 301 303 302 303 300 302 300 300 296 293 294 293 290 290 293 293 294 294 296 295 296 294 292 292 293 293 297 296 291 294 297 298 298 297 297 296 296 297 297 297 297 297 297 297 297 297 297
299 299 299 299 299 299 301 301 302 302 302 301 299 298 297 294 293 294 295 295 295 295 294 295 294 295 295 292 292 290 293 295 297 294 293 290 296 298 298 298 298 295 295 295 296 296 296 296 296 297 297 296 296 295
299 299 298 298 298 300 300 302 301 302 303 301 299 297 295 294 294 294 294 294 295 295 297 295 294 295 291 291 292 294 297 298 295 293 291 296 297 299 299 298 296 295 294 295 295 296 296 296 296 295 292 290 289 289
299 298 297 297 301 300 300 300 300 302 300 297 296 295 295 295 294 295 295 295 296 296 297 297 291 289 291 293 296 292 292 292 292 289 297 298 298 299 300 299 296 295 295 294 294 295 295 295 293 291 291 292 293 294
296 297 300 298 300 299 300 300 302 299 296 295 295 295 296 296 295 295 295 296 296 297 291 290 290 292 290 288 291 291 290 290 294 297 300 299 300 300 299 298 297 296 295 294 295 295 295 295 293 293 295 295 294 294
298 299 300 299 298 299 300 301 298 295 293 294 295 295 296 296 296 296 296 296 296 296 294 290 292 288 291 291 291 291 295 298 298 300 300 300 300 299 299 298 297 296 295 294 294 293 293 293 293 293 293 294 294 295
298 298 298 298 299 300 299 297 296 292 293 294 295 296 296 296 296 296 296 296 297 297 296 293 289 287 291 290 290 294 297 299 299 299 300 299 299 299 298 297 297 296 296 295 294 293 292 291 290 290 290 290 290 290
300 299 299 299 300 299 295 294 294 294 292 293 295 295 295 295 295 295 296 296 297 297 292 289 291 292 294 297 297 297 298 299 300 299 299 299 298 298 298 297 296 295 295 295 294 292 291 290 289 288 288 288 288 288
298 298 299 300 300 297 293 292 292 292 293 292 294 295 295 295 295 296 296 297 297 295 289 295 294 295 297 298 299 298 299 300 300 300 300 299 298 298 298 297 296 295 295 295 294 291 289 288 288 288 288 288 287 287
297 298 299 300 298 294 292 292 292 292 292 292 293 294 294 294 294 296 296 297 296 297 296 296 296 297 298 298 298 300 300 300 299 299 298 297 297 297 297 297 297 296 295 294 294 289 288 289 289 289 289 289 288 287
298 299 300 298 294 293 290 291 291 292 293 290 291 292 291 290 292 295 295 296 296 296 297 296 296 297 296 296 296 297 296 296 296 296 295 295 295 294 294 295 295 295 294 295 294 288 288 289 289 288 288 288 288 288
299 300 296 293 292 289 291 290 291 291 291 291 290 289 288 288 290 290 290 292 295 296 296 296 296 296 296 295 295 295 295 294 294 294 294 293 293 293 293 293 293 294 294 294 293 289 288 288 288 288 288 287 287 287
299 293 293 290 290 290 290 290 290 291 291 289 289 287 287 287 290 287 290 292 292 294 294 295 295 295 296 295 295 294 294 293 293 293 292 292 291 291 292 293 292 292 292 292 292 289 287 287 287 287 287 286 286 286
292 289 291 290 289 291 290 291 291 290 290 289 286 283 284 287 290 291 290 290 290 293 294 294 294 294 294 294 294 293 292 291 291 292 291 291 291 292 292 292 291 289 289 288 287 287 287 287 286 286 285 285 285 284
291 286 287 289 290 290 289 289 290 291 291 289 285 284 287 292 292 289 289 290 290 293 293 293 294 294 294 292 291 291 291 292 292 292 291 291 290 288 287 287 288 287 287 287 286 286 285 285 285 285 284 284 283 283
288 288 288 287 288 289 289 290 291 292 290 287 287 288 291 292 291 289 289 290 291 292 292 291 291 291 290 290 290 290 290 290 289 289 288 287 287 287 287 287 286 286 286 286 286 285 285 284 284 283 283 283 282 281
287 288 290 288 287 287 287 289 289 287 287 287 290 288 286 286 287 288 289 290 291 291 291 291 290 288 289 291 290 289 288 287 287 287 287 287 286 287 286 286 286 286 285 284 284 284 283 283 282 281 280 280 279 279
289 289 288 288 289 288 282 283 284 285 286 287 287 285 285 285 286 288 289 290 290 291 291 290 289 291 292 291 289 287 287 287 287 286 286 287 287 287 286 285 284 284 284 283 282 282 281 280 280 279 279 279 279 279
289 288 285 283 282 280 281 282 284 285 285 285 285 286 285 285 286 287 288 290 290 290 290 291 291 290 289 288 287 287 286 286 286 287 287 287 286 285 284 284 283 283 282 281 281 280 280 280 279 279 279 279 279 279
286 285 285 284 281 281 283 284 284 284 284 285 284 284 285 285 286 287 288 289 289 290 290 290 289 287 286 286 286 286 286 286 287 286 286 285 284 284 283 283 282 282 281 281 280 280 280 280 280 279 279 279 279 279
283 283 282 282 281 281 283 284 282 282 283 282 283 284 284 285 285 287 288 288 288 288 287 286 286 286 286 286 286 286 286 286 286 285 285 284 284 283 283 282 281 281 280 280 280 280 280 280 280 279 279 279 279 279

GFSWCAN_850_thetae_105.txt.gz
Theta_e
304 303 301 294 296 297 298 298 298 298 298 299 296 301 305 308 306 306 306 306 305 299 297 298 297 297 297 298 296 296 296 296 296 297 294 294 296 297 297 297 297 297 296 298 299 300 299 303 303 306 303 302 302 303
303 303 296 294 297 297 298 298 298 299 298 298 297 301 305 306 307 305 306 305 302 300 297 297 297 298 298 297 298 296 295 296 298 294 290 290 296 287 294 296 296 300 298 299 299 299 299 304 304 303 303 302 301 301
303 299 294 296 297 297 298 298 298 298 298 298 297 300 305 307 306 306 305 302 301 299 297 297 298 298 298 298 298 298 297 298 298 297 292 292 295 292 294 293 296 296 298 301 301 300 300 300 302 303 297 298 298 298
299 294 296 297 297 298 298 298 298 298 298 299 297 301 306 307 308 307 305 301 301 300 297 296 297 297 298 298 299 298 299 299 298 297 294 290 295 293 293 293 294 295 296 297 297 296 297 300 300 297 297 298 298 298
294 296 297 298 298 298 298 298 298 299 298 298 296 299 306 308 308 308 306 303 300 300 297 296 296 297 297 298 298 298 299 299 298 296 291 292 293 293 290 291 292 293 294 296 297 296 296 297 297 298 297 297 297 297
297 297 298 298 298 298 299 299 299 298 298 298 297 300 307 307 308 302 300 300 300 300 299 295 295 295 296 296 297 297 298 297 297 296 293 294 295 293 291 292 294 296 297 297 296 296 297 298 297 295 295 296 297 297
298 299 298 297 297 297 297 297 299 299 298 298 298 300 303 306 305 302 302 302 301 300 299 294 294 295 295 296 296 296 296 296 296 295 294 294 294 293 288 293 295 296 296 296 297 297 297 296 295 296 296 296 297 298
298 297 297 298 298 298 298 297 297 299 298 298 298 301 302 305 303 301 301 301 301 301 298 293 294 295 295 295 295 295 295 295 294 294 294 293 293 292 293 293 295 295 296 297 297 297 297 296 295 296 297 297 300 299
297 298 299 299 299 299 299 298 297 299 298 298 299 301 303 304 302 302 300 301 301 300 297 293 295 296 294 294 295 295 294 290 293 291 293 293 293 294 294 294 294 295 297 297 297 296 297 296 295 296 298 299 299 300
299 299 299 299 300 300 300 298 297 299 298 299 299 303 300 301 302 301 300 301 300 300 297 293 295 295 295 294 293 293 293 290 289 293 294 293 293 294 295 296 296 296 296 297 297 296 296 296 295 297 297 298 299 299
299 300 300 301 300 300 300 298 298 298 299 299 300 298 299 300 302 301 299 299 298 297 296 294 295 294 294 292 291 293 291 290 286 290 290 287 290 291 296 296 296 296 297 297 297 297 297 296 296 297 297 298 299 299
300 301 301 302 301 300 300 298 299 299 299 299 299 298 300 302 300 298 299 294 295 298 293 292 294 295 295 295 293 292 289 287 290 291 294 293 290 295 296 296 296 296 298 297 297 297 297 297 297 297 297 298 298 298
300 300 301 301 300 300 299 299 299 299 300 300 300 301 301 297 298 298 296 292 290 292 293 293 294 295 295 295 293 291 289 291 292 295 295 291 292 295 296 296 296 297 297 296 297 298 298 297 297 297 297 297 297 297
300 300 301 300 299 299 299 299 299 300 300 300 299 299 299 296 296 294 294 293 294 295 294 296 293 294 295 292 292 290 293 294 296 294 292 289 295 297 297 298 298 297 296 296 297 297 296 297 296 296 296 296 295 293
299 299 299 299 299 299 299 299 301 301 300 299 299 299 297 294 293 294 295 294 295 295 296 295 294 295 289 291 292 295 295 296 295 293 291 295 296 297 298 298 297 295 295 295 295 296 296 296 296 296 295 292 290 290
299 298 298 299 299 299 298 300 300 300 299 297 296 294 295 294 293 294 294 294 295 296 297 297 291 289 290 292 295 292 291 292 292 289 296 296 297 298 299 298 296 295 294 294 294 295 295 295 295 294 292 291 292 293
298 298 299 300 300 300 299 300 300 299 297 295 295 295 295 295 294 294 295 295 296 297 294 290 292 292 290 289 290 291 291 291 293 296 297 297 299 299 299 299 296 296 295 294 294 294 295 295 294 293 293 293 294 294
297 299 299 299 299 299 300 301 298 295 293 294 296 295 295 295 295 295 296 296 296 296 295 292 292 290 292 293 291 291 294 295 295 298 298 298 299 300 299 298 297 296 295 294 294 294 293 293 292 291 291 290 290 290
297 298 299 299 299 301 299 297 296 292 293 294 295 296 295 295 296 296 295 296 297 297 295 293 288 290 292 291 289 293 294 296 296 298 298 299 300 299 298 298 297 296 296 296 294 293 293 292 291 290 290 289 289 288
298 297 299 299 300 301 296 294 295 294 292 293 295 295 295 295 295 295 296 296 296 297 291 289 292 293 294 296 296 297 299 300 300 299 298 298 298 298 298 297 297 296 295 295 295 294 292 290 290 288 288 288 288 287
298 298 298 299 300 297 294 293 293 293 293 293 294 295 294 295 294 295 296 296 297 295 291 294 294 295 296 297 297 298 299 301 301 301 300 298 298 298 298 297 296 295 295 295 295 294 292 289 288 288 289 289 288 288
298 298 299 299 296 293 292 292 292 293 293 292 294 294 295 294 295 296 296 297 296 297 297 296 295 297 298 299 298 298 300 299 299 299 299 299 298 298 298 297 297 296 296 295 294 293 290 288 288 289 288 288 288 288
297 298 299 299 295 293 290 291 292 293 294 291 292 292 291 290 293 296 297 297 297 297 298 296 296 298 298 299 299 299 299 299 299 298 298 297 296 296 296 295 295 296 295 294 294 294 292 288 288 288 288 288 288 288
299 299 296 294 292 288 291 290 291 291 291 292 291 289 289 289 292 292 292 293 296 298 297 297 296 297 297 297 298 298 297 296 296 295 295 294 294 294 293 293 293 294 293 292 292 293 292 287 287 287 287 287 287 287
298 293 294 290 290 290 289 289 290 291 290 290 289 287 287 288 291 290 291 293 293 295 296 296 296 297 296 295 295 295 295 294 294 294 294 293 292 292 292 292 292 292 292 292 292 292 291 288 287 287 287 286 286 285
292 288 291 290 289 290 290 290 290 290 290 289 287 284 286 289 291 292 291 291 291 293 295 296 295 295 295 296 295 295 294 293 292 292 292 292 291 292 292 292 291 290 288 288 287 287 286 286 286 285 285 285 284 284
290 287 288 290 290 290 289 290 290 291 291 290 286 285 288 294 294 290 289 289 290 292 294 295 295 295 296 295 294 293 292 291 291 292 291 291 291 291 288 287 288 287 287 286 286 286 285 285 285 284 284 284 283 282
288 288 289 287 288 290 289 289 291 293 291 288 288 290 293 295 292 288 289 289 290 292 293 293 294 294 294 294 292 292 291 292 291 290 289 288 287 287 287 287 286 286 286 286 286 285 284 284 284 283 282 282 281 281
287 288 290 288 288 287 287 290 290 287 288 289 292 290 289 287 287 288 289 290 291 291 293 293 292 291 291 291 290 290 289 289 288 287 287 287 286 287 287 287 287 286 285 284 284 284 283 282 282 281 281 281 280 280
289 289 289 288 290 287 282 283 283 285 286 288 287 286 285 285 286 288 289 289 290 291 291 291 290 289 290 290 289 288 287 287 287 286 286 287 287 287 287 286 285 284 284 283 282 282 281 281 280 280 280 280 280 280
288 288 284 283 281 280 281 282 284 284 285 285 285 285 284 285 286 288 288 289 289 290 290 289 289 290 290 289 289 288 287 286 286 286 287 287 287 286 285 285 284 283 283 282 282 281 281 281 280 280 280 280 280 280
286 285 285 284 281 281 283 284 284 284 285 285 284 285 285 286 286 287 289 289 290 289 288 289 291 290 287 287 286 286 286 286 286 287 287 286 285 285 284 283 283 282 282 281 281 280 280 280 280 280 280 280 280 279
283 283 282 282 281 281 283 284 283 282 283 282 282 283 283 285 285 287 289 290 289 290 290 289 287 287 286 286 286 286 286 286 286 286 285 285 284 284 283 282 282 281 281 281 281 281 280 280 280 280 280 279 279 279

GFSWCAN_850_thetae_108.txt.gz
Theta_e
309 308 306 305 304 303 295 297 298 299 298 299 298 298 304 307 308 309 305 305 304 302 298 298 297 297 298 298 301 297 299 298 300 303 304 304 304 304 303 302 302 303 303 304 302 304 306 302 305 307 306 304 304 304
309 308 306 305 303 301 295 297 298 299 299 299 298 298 304 306 306 305 305 305 303 303 298 298 297 297 297 297 298 297 297 299 301 302 300 301 303 299 303 304 300 304 303 305 304 305 302 305 305 304 304 304 302 301
309 307 306 305 303 297 295 297 298 299 299 298 298 297 303 306 305 306 306 305 304 301 297 297 298 298 298 298 298 299 297 298 298 297 299 301 303 301 303 303 302 301 300 304 305 304 302 302 303 303 300 299 298 298
308 306 306 304 301 295 296 298 298 299 299 298 298 297 301 306 305 305 306 306 305 299 299 297 297 297 298 298 298 298 298 298 299 298 299 301 301 297 301 299 300 301 301 304 304 303 300 300 301 300 298 297 298 298
307 306 305 303 296 296 297 299 298 299 299 299 298 298 299 306 306 306 305 304 300 299 301 297 297 297 298 298 298 298 298 299 298 298 300 301 297 297 295 296 299 297 303 304 304 301 300 301 298 297 297 297 297 297
307 306 304 299 296 297 298 299 298 299 299 299 298 298 299 304 307 306 305 305 303 301 300 299 295 296 296 297 297 298 298 298 297 298 298 296 295 296 299 301 300 297 298 298 299 297 297 298 298 297 295 296 296 297
306 305 301 296 296 298 299 298 298 299 299 299 298 298 300 302 307 307 305 305 305 300 299 296 297 295 296 296 296 296 296 296 296 296 297 296 296 296 298 300 299 296 297 297 297 298 298 297 296 295 296 296 297 299
305 302 296 296 298 299 298 298 298 297 299 299 298 298 300 302 304 303 304 303 303 300 299 298 296 296 295 295 296 295 295 295 295 296 295 296 294 294 298 298 295 295 296 296 297 297 298 297 296 296 296 297 300 299
299 296 298 299 299 298 297 297 298 298 297 299 298 298 299 300 300 301 302 299 300 300 298 297 300 301 295 295 295 295 294 298 294 296 296 295 297 298 299 298 295 295 297 298 297 297 297 296 295 296 297 298 299 299
297 298 297 296 297 298 298 299 299 299 297 299 298 300 298 300 301 299 298 299 300 300 298 298 296 297 296 295 295 296 294 297 298 296 294 296 298 297 296 296 297 297 297 297 297 297 297 296 296 296 297 297 298 299
298 296 297 299 299 299 299 299 299 299 297 299 299 299 300 300 301 302 300 301 301 301 296 295 296 295 294 297 298 294 296 295 297 297 297 297 297 296 295 296 297 297 297 297 298 298 297 297 296 296 296 298 298 298
297 298 299 299 300 299 299 300 300 299 299 299 299 300 299 300 299 300 301 300 301 302 295 296 295 296 294 295 296 293 296 292 299 294 296 297 298 294 295 296 296 296 297 297 297 297 297 297 297 296 297 298 298 297
299 299 300 300 300 300 301 299 300 298 299 299 300 299 297 299 301 302 301 299 301 295 293 294 296 295 295 295 295 295 296 297 294 296 298 299 294 294 295 296 296 296 297 297 297 296 296 296 297 296 297 296 297 296
299 300 300 300 301 302 301 300 300 299 298 300 298 300 300 300 300 301 300 297 295 295 295 298 295 297 295 297 296 298 296 295 297 297 298 298 295 295 295 296 297 297 297 297 296 296 296 296 296 295 296 296 296 293
300 300 300 301 301 301 300 300 298 298 299 299 299 303 300 297 293 294 296 294 295 296 297 296 296 296 295 295 296 296 296 297 297 299 299 296 295 296 295 296 297 298 297 296 296 296 296 295 296 296 296 295 292 291
299 300 301 300 300 300 299 298 299 299 299 297 294 295 295 295 293 293 294 295 296 297 299 298 296 296 297 297 296 297 297 298 301 298 296 295 296 297 297 298 298 297 296 295 295 295 295 295 295 295 294 292 291 293
298 299 300 300 300 299 299 299 299 299 298 294 295 294 295 295 295 294 295 295 296 298 299 296 298 299 294 296 296 296 297 300 296 295 296 296 297 299 299 298 297 296 295 294 294 294 294 295 295 294 293 293 293 293
299 299 299 299 299 299 298 298 298 296 294 294 295 294 295 295 295 295 296 295 297 296 295 298 293 294 297 298 298 297 295 294 295 296 297 296 298 299 299 299 297 296 295 294 295 294 294 293 293 292 292 291 290 290
298 299 299 299 298 299 299 298 297 293 293 294 295 295 295 294 295 296 296 296 297 296 295 294 296 297 297 295 296 293 294 295 294 296 296 297 298 299 299 298 297 296 295 294 294 294 293 293 292 291 290 289 288 287
299 299 299 298 299 300 296 294 295 293 295 294 295 295 294 294 294 295 294 295 296 296 295 295 296 294 295 295 295 296 297 297 299 296 296 297 298 299 298 298 297 296 295 295 295 295 294 292 291 289 288 288 288 288
298 298 299 299 300 297 294 292 293 293 294 293 294 294 294 294 294 294 295 295 296 295 295 295 294 295 296 296 296 297 298 299 299 299 299 298 298 298 297 297 296 296 295 295 295 295 294 292 289 288 288 289 288 288
297 297 298 299 296 293 292 292 293 293 293 292 294 295 295 296 295 295 295 296 295 297 297 296 295 297 297 297 297 299 299 300 300 300 300 299 298 297 297 297 296 296 295 295 295 294 294 291 288 288 288 288 288 288
297 298 299 299 294 292 290 292 292 293 295 292 293 293 293 293 294 296 298 297 297 297 297 296 296 298 298 297 298 299 299 300 300 300 299 299 298 298 297 297 297 296 296 296 295 294 294 293 289 287 288 288 287 287
297 299 296 293 292 290 291 290 291 291 292 293 292 291 291 291 293 294 297 295 297 298 297 296 297 298 298 297 298 299 299 298 299 298 297 298 297 296 295 295 294 294 294 295 293 291 291 292 290 287 287 287 287 286
298 294 294 290 290 288 288 290 290 290 291 291 291 290 289 289 294 294 295 295 295 297 299 299 297 298 298 298 298 298 298 298 297 295 295 294 294 294 293 293 293 292 292 292 292 292 292 291 290 288 286 286 285 285
293 289 293 288 290 289 289 291 292 291 290 291 290 286 286 290 293 295 293 292 293 295 297 296 296 297 297 298 297 296 295 294 294 294 293 293 292 292 292 292 292 292 291 290 289 288 287 286 286 285 285 284 284 284
291 286 288 290 290 290 289 289 291 292 292 290 288 287 289 294 296 292 289 289 290 292 295 296 297 297 296 296 295 295 295 294 293 292 292 292 292 292 292 290 288 288 287 286 286 286 286 285 285 284 284 283 282 282
287 288 288 287 288 290 289 290 291 293 292 289 289 290 294 296 295 287 288 289 289 291 294 294 295 295 295 295 295 295 293 291 291 291 291 291 291 289 288 287 287 286 286 286 286 285 284 284 284 283 282 282 282 281
287 289 291 287 287 287 286 289 290 288 288 289 293 292 290 286 286 287 288 289 290 290 293 293 294 294 294 294 293 292 291 292 292 291 290 289 287 286 286 286 287 287 286 285 285 284 283 283 282 282 282 282 281 281
289 289 290 289 289 287 282 283 284 285 286 288 288 286 285 284 285 287 288 289 290 291 293 293 294 294 294 292 291 290 290 289 288 288 287 287 287 287 287 287 286 285 285 284 283 282 282 282 282 282 281 281 281 281
289 288 285 283 282 280 281 283 284 285 286 286 286 286 284 284 286 287 288 289 290 291 292 292 292 291 291 291 290 289 288 287 287 286 287 287 287 287 286 285 285 284 283 282 282 282 282 282 281 281 281 280 280 280
286 285 285 284 282 282 283 284 285 284 285 285 284 284 284 285 286 287 288 289 289 289 289 290 290 289 290 289 289 288 288 287 286 286 287 286 286 285 285 284 283 283 282 282 282 282 282 281 281 281 280 280 280 280
284 283 283 282 281 281 283 284 284 283 284 283 283 283 283 285 286 287 288 289 289 290 288 288 289 289 288 287 287 286 286 286 286 286 286 285 285 284 284 283 282 282 282 282 282 281 281 281 280 280 280 280 280 280

GFSWCAN_850_thetae_111.txt.gz
Theta_e
312 310 309 309 309 308 305 304 299 296 298 299 299 298 298 302 306 306 305 304 303 304 301 299 299 300 300 301 303 300 301 301 301 304 306 307 305 306 305 305 304 305 305 306 305 306 307 306 306 309 308 307 307 306
313 311 309 309 309 307 305 304 297 296 298 299 299 298 298 304 306 307 306 307 304 302 301 299 299 299 298 299 301 300 301 302 303 304 305 306 306 305 305 305 303 305 305 307 306 307 306 306 307 306 305 306 305 303
313 312 310 309 309 307 306 304 297 296 299 299 299 298 299 304 304 303 304 305 304 301 300 298 298 298 298 297 298 302 300 301 300 301 304 305 305 304 305 305 304 303 303 304 306 306 305 305 306 305 305 303 301 300
313 312 310 309 308 306 306 304 296 296 298 299 299 298 298 304 305 304 302 304 303 303 304 300 297 298 298 298 298 298 298 298 299 299 303 304 304 301 304 302 303 304 303 304 305 305 303 303 303 304 301 299 299 299
312 312 310 309 308 306 305 302 295 297 299 299 299 298 298 302 305 305 305 304 304 302 304 300 297 297 298 298 298 298 298 299 300 301 302 303 301 300 300 299 301 301 304 305 305 305 304 304 303 300 299 299 298 298
312 311 310 309 307 306 305 299 296 298 299 299 299 299 298 299 304 305 305 305 304 300 300 302 297 296 297 297 297 297 298 298 300 301 302 300 297 299 303 303 303 302 301 303 303 301 300 300 299 299 298 297 297 297
311 310 310 309 307 306 305 297 296 299 299 299 299 299 298 299 302 304 305 306 305 301 299 300 300 296 296 296 297 297 297 298 299 301 300 300 299 298 301 302 303 301 300 299 299 299 300 299 300 297 296 297 297 298
310 310 309 308 307 306 303 296 298 299 298 299 299 299 298 299 301 303 306 305 306 304 299 303 301 297 296 298 299 296 298 298 298 300 298 298 297 297 300 301 300 299 299 298 299 299 300 299 298 297 297 297 299 299
309 309 308 307 306 304 298 297 299 299 298 298 299 299 299 299 301 301 304 304 304 302 303 301 303 304 295 298 298 296 297 301 297 300 299 298 300 301 301 301 300 298 298 299 299 299 299 298 297 297 297 298 298 299
308 308 307 306 305 299 296 299 299 298 298 297 299 299 299 299 300 301 302 296 297 299 298 301 300 300 298 298 298 299 298 301 302 300 297 298 300 300 300 300 299 298 298 299 299 298 298 298 297 297 298 298 298 298
307 306 306 304 298 297 299 298 298 297 298 298 299 299 298 299 301 301 299 299 299 303 301 301 300 298 296 300 301 298 300 299 301 301 299 302 302 301 299 299 297 297 298 299 299 299 299 299 298 297 297 297 297 297
306 306 304 298 297 297 296 297 298 298 300 299 299 299 299 300 300 300 301 301 303 303 300 301 298 298 296 297 299 296 300 295 302 297 298 301 304 298 296 297 297 297 298 299 298 298 298 298 297 297 296 296 296 297
305 302 298 297 297 297 299 299 299 299 300 298 298 299 299 297 300 302 304 305 304 302 297 297 298 296 295 298 298 298 299 300 296 298 301 303 300 295 296 296 296 297 298 298 298 298 298 297 297 296 296 296 297 297
301 298 297 297 298 299 300 300 300 300 299 299 298 300 299 302 302 304 306 306 302 299 297 300 297 300 298 299 299 302 300 298 300 300 302 303 300 296 295 296 296 296 297 297 297 296 296 296 296 296 295 295 296 296
297 297 298 299 299 299 300 300 300 299 299 298 298 302 302 301 298 298 300 299 298 298 299 300 298 299 299 299 300 298 297 300 301 303 305 301 297 296 295 296 297 297 297 298 297 296 296 296 295 295 295 295 295 293
298 299 299 299 300 300 300 300 300 299 298 299 297 299 298 299 297 295 297 298 298 299 300 300 300 301 302 303 298 301 301 301 305 303 301 297 296 295 296 296 297 298 298 297 296 295 296 296 296 296 296 294 293 292
299 299 299 300 301 301 301 302 298 298 298 296 297 296 298 299 301 298 297 297 298 300 302 302 302 304 299 301 300 301 302 304 303 298 297 296 296 296 296 297 297 298 297 296 296 296 296 296 295 295 294 293 292 293
299 299 300 301 301 300 297 298 297 297 297 296 298 297 296 297 297 296 297 297 299 301 299 303 297 297 302 301 302 302 298 298 296 296 296 296 297 297 297 297 298 297 296 296 295 294 294 295 294 294 293 292 291 290
299 299 300 300 301 298 298 297 296 297 296 296 295 296 296 296 296 297 296 297 299 299 296 296 301 303 302 300 303 299 298 296 295 295 295 296 297 298 298 298 298 296 296 295 294 293 293 293 293 292 291 291 290 288
298 300 300 299 299 299 297 295 297 295 296 295 295 295 295 295 295 296 296 296 297 296 297 299 301 299 298 297 297 297 297 297 297 294 294 295 297 299 299 298 296 296 295 294 295 294 293 293 292 291 290 289 288 288
298 299 298 298 298 297 295 293 294 294 293 295 295 295 295 294 294 295 295 295 296 298 300 297 296 295 295 296 296 296 297 297 297 297 296 295 297 299 298 297 296 295 295 295 295 295 294 294 292 290 288 288 288 288
296 298 298 298 298 294 293 293 294 294 294 295 294 295 296 297 296 295 295 296 297 299 297 297 296 295 296 296 296 297 297 297 297 297 298 298 298 298 298 297 296 296 295 295 295 294 294 294 292 290 288 288 288 288
297 298 298 298 294 293 291 292 293 293 297 294 294 296 296 297 295 295 298 297 298 297 298 297 296 297 296 296 298 298 298 298 298 299 299 299 299 299 298 297 297 296 296 295 295 294 294 293 292 290 288 287 287 287
298 299 297 295 293 293 291 292 292 293 294 295 295 294 294 293 294 296 299 298 297 297 297 297 296 297 296 297 299 298 299 300 300 299 299 299 298 297 297 297 296 296 296 295 295 294 293 292 291 291 289 287 286 286
297 294 295 292 291 292 292 293 293 294 294 294 294 292 292 290 296 298 297 298 297 298 297 296 297 297 297 298 299 299 299 299 299 299 298 298 298 297 297 296 295 295 294 294 294 293 292 291 291 290 288 287 286 285
296 291 294 293 292 294 293 293 293 293 293 293 292 289 289 293 296 298 297 295 295 295 297 296 297 297 297 299 299 299 298 297 298 298 296 295 295 295 294 294 293 292 292 292 292 291 290 288 287 286 285 285 284 284
293 291 289 290 291 291 292 292 292 294 292 292 290 289 292 295 297 296 290 290 291 293 295 295 297 298 298 298 298 297 297 296 295 295 294 293 293 292 292 292 292 291 289 288 287 286 286 286 285 285 284 283 282 282
289 288 291 290 290 290 291 292 293 294 294 291 291 293 295 298 298 287 287 288 289 291 293 294 295 299 298 298 297 296 295 294 294 293 292 292 292 292 292 289 288 287 287 286 286 286 285 285 284 283 283 282 282 282
289 289 290 288 288 288 288 292 293 290 289 290 296 294 292 286 286 286 287 288 288 290 292 294 295 297 296 296 295 294 295 294 293 292 292 292 291 288 288 287 287 287 287 286 285 285 284 284 283 283 283 282 282 282
290 289 291 288 286 287 283 283 284 286 287 288 288 287 285 284 285 286 287 287 288 289 291 292 295 295 295 295 295 294 292 292 292 292 292 291 288 287 287 287 287 286 285 285 284 284 283 283 283 283 282 282 281 281
289 288 285 285 283 281 281 283 285 286 286 286 287 287 285 285 286 286 287 288 289 290 291 292 294 294 295 295 294 292 291 291 290 289 288 287 287 287 287 287 286 285 285 284 283 283 283 282 282 282 282 281 281 280
286 287 286 285 283 282 284 284 285 285 285 286 284 285 285 286 286 286 288 289 290 291 292 293 294 293 292 292 291 291 290 289 288 287 287 287 287 287 286 285 285 284 284 283 282 282 282 282 282 281 281 280 280 280
284 284 283 283 283 283 283 285 286 285 285 285 283 284 284 285 287 287 288 289 290 291 292 292 292 291 290 290 289 288 287 287 286 287 287 286 286 286 285 285 284 283 283 282 282 282 282 281 281 281 280 280 280 280

GFSWCAN_850_thetae_114.txt.gz
Theta_e
308 308 310 311 310 308 309 309 307 305 300 296 299 299 299 298 299 302 304 302 302 303 305 303 300 301 301 301 302 301 300 300 300 302 304 304 303 304 303 304 303 303 301 301 302 303 302 306 306 308 307 307 307 307
308 309 311 311 311 309 309 309 307 305 300 296 298 299 298 298 302 305 307 306 304 303 302 301 300 299 300 301 302 300 302 302 303 302 302 303 303 301 303 301 303 301 302 305 303 304 305 306 307 306 306 306 306 305
309 311 311 312 312 310 309 309 306 305 301 296 299 299 298 298 304 304 305 305 304 303 303 303 302 301 299 299 299 302 301 302 301 303 305 302 303 300 300 300 303 302 303 301 303 304 304 305 306 305 305 304 303 301
310 311 312 312 312 310 309 309 307 306 302 296 299 299 298 299 304 304 304 305 305 304 304 302 300 299 298 298 298 298 300 299 300 299 304 300 301 302 301 300 300 301 301 301 302 302 304 304 305 305 304 302 301 300
311 311 312 313 312 310 309 308 307 306 301 296 298 299 299 298 303 304 304 303 304 303 303 301 299 298 298 298 298 297 297 298 300 300 299 299 301 298 299 297 297 301 300 301 301 304 303 304 303 303 303 300 299 298
312 312 313 313 312 310 309 308 307 306 299 296 299 299 299 298 302 304 305 303 304 301 301 302 300 298 297 297 297 297 298 299 300 302 302 301 300 299 298 298 301 302 301 303 302 304 302 303 302 301 299 299 297 297
313 313 313 313 312 310 309 308 307 305 298 297 299 299 299 299 300 304 305 305 305 304 301 302 300 297 296 297 297 297 297 298 300 301 300 301 298 298 296 299 302 303 302 301 301 301 300 299 300 299 298 297 297 298
313 313 313 312 312 310 309 308 307 304 297 299 299 299 299 299 299 301 305 304 304 300 301 302 299 297 296 297 298 298 299 298 298 300 299 298 297 297 297 299 301 301 301 301 300 300 301 300 299 298 297 297 298 298
312 313 313 311 310 309 308 307 306 300 297 299 299 299 299 299 298 299 302 304 302 302 301 300 299 299 296 298 299 297 298 298 299 297 298 298 297 297 297 299 300 300 300 299 299 299 300 299 299 298 297 297 298 298
311 311 311 310 309 308 307 307 303 297 299 298 299 300 299 299 298 300 301 302 299 300 300 300 302 297 297 297 298 298 298 298 297 298 298 296 298 300 301 301 301 301 299 299 299 299 299 299 298 297 297 298 298 298
309 309 309 309 308 307 307 305 300 298 299 298 299 299 299 299 298 299 300 297 297 299 299 300 301 296 298 297 298 299 295 296 294 298 295 297 298 297 300 300 301 300 299 299 300 300 300 299 299 297 298 297 297 297
308 309 309 308 307 307 306 302 298 299 298 298 298 299 298 299 299 299 300 298 300 301 301 301 301 300 298 299 299 296 296 293 296 296 294 296 298 302 300 299 300 299 298 299 299 300 299 299 298 297 297 297 296 296
308 308 308 307 307 306 302 299 299 299 298 298 298 298 298 298 299 301 300 300 301 301 300 299 296 298 296 298 299 298 298 296 296 295 297 297 301 301 299 298 298 298 298 299 299 299 299 298 298 297 296 296 295 296
308 307 307 307 306 302 299 298 299 298 298 299 298 298 298 299 298 299 299 300 303 300 299 300 296 298 299 298 299 300 300 296 295 297 298 298 302 301 297 297 297 298 299 299 299 299 298 298 296 296 296 295 296 296
307 307 306 305 302 299 298 297 297 297 299 298 298 300 299 299 300 301 303 302 302 303 300 299 298 299 299 299 299 299 296 295 298 298 300 302 302 301 297 296 297 298 298 298 298 298 297 297 296 296 295 295 296 296
306 305 303 301 299 298 297 298 298 299 298 298 298 300 301 299 298 297 299 300 300 300 300 300 299 300 299 301 298 296 295 295 297 299 303 302 300 298 297 296 297 297 298 298 298 297 296 295 295 296 296 295 296 294
303 300 300 299 297 298 299 299 300 300 297 297 297 298 300 300 299 299 299 300 300 300 299 298 300 299 296 295 296 297 297 299 302 303 301 300 298 297 296 296 296 297 298 298 297 296 294 295 296 296 295 295 295 293
300 299 299 298 298 299 300 300 300 298 297 298 298 298 299 300 301 301 300 300 299 300 301 301 299 294 297 297 296 296 300 301 302 301 299 297 297 296 297 297 297 298 298 298 297 297 297 296 296 295 295 295 295 292
298 299 298 299 299 301 299 297 298 297 297 297 298 299 298 298 298 298 298 299 299 300 299 298 300 298 297 295 297 302 302 301 299 297 297 297 297 296 296 297 298 298 298 297 296 296 296 295 295 295 293 293 292 291
299 299 299 300 300 300 297 295 297 296 296 296 296 296 296 297 297 297 297 298 298 298 298 297 299 300 299 300 300 300 300 300 298 295 296 296 296 296 297 297 298 297 296 295 295 294 294 294 293 293 292 291 290 288
299 299 300 300 299 298 296 295 295 296 294 295 295 295 295 294 295 296 296 296 296 296 299 299 299 298 296 296 296 296 297 298 297 298 297 296 296 296 296 297 297 296 296 295 295 294 294 294 294 292 291 289 288 287
299 299 297 298 298 294 293 293 294 294 295 295 295 295 295 293 295 295 295 295 296 298 299 300 299 298 296 296 296 295 296 296 296 296 296 296 296 297 297 297 296 295 295 295 295 295 295 294 294 293 290 288 287 287
298 298 298 297 295 293 292 293 293 294 292 295 295 293 295 295 296 295 295 296 297 298 299 299 298 300 297 296 295 295 295 296 296 296 295 297 298 298 297 296 296 296 295 295 295 295 295 294 294 292 290 288 287 287
298 298 297 296 294 292 292 292 293 294 294 293 293 293 292 291 294 294 297 296 297 298 298 299 298 297 296 295 297 296 296 296 297 295 296 298 298 298 298 297 296 296 295 295 295 295 294 294 293 292 291 290 288 287
298 296 296 293 292 289 287 291 293 294 295 296 294 292 290 292 294 297 296 297 297 296 297 298 298 297 298 298 298 297 297 297 297 297 296 298 299 298 297 297 296 296 295 296 295 294 294 293 291 291 291 289 288 286
296 292 295 289 291 291 291 291 290 294 294 294 295 291 290 292 295 297 294 296 296 295 296 297 297 298 297 298 298 297 298 298 298 299 298 298 298 299 298 297 296 295 295 294 293 293 292 291 291 289 286 285 285 284
293 290 290 291 292 292 291 291 293 292 292 291 290 289 290 294 296 293 291 293 294 295 295 294 297 298 299 297 297 297 296 298 298 299 298 298 297 297 296 296 295 294 293 292 292 291 288 287 286 286 285 284 284 283
290 290 288 289 289 291 289 289 290 291 289 291 290 289 291 292 293 288 287 289 291 293 295 295 296 298 297 297 298 297 297 296 298 296 295 294 294 293 293 292 292 292 290 288 287 286 286 286 285 285 284 283 283 283
289 290 291 285 287 288 287 289 289 290 290 291 289 290 288 286 286 286 286 287 289 290 292 294 295 296 296 296 296 297 297 295 295 294 294 293 292 291 292 291 289 288 287 286 287 286 285 285 284 283 283 283 282 282
290 290 287 285 285 288 284 283 284 285 288 289 289 287 285 284 285 286 286 288 288 289 291 294 296 295 296 296 295 293 293 295 294 296 295 293 293 292 289 288 287 287 287 286 285 285 284 284 283 283 283 282 282 281
289 288 285 282 281 282 282 283 285 286 286 287 287 287 285 285 286 286 286 286 286 289 291 292 294 295 296 294 295 295 293 294 295 293 293 293 291 289 287 287 287 286 285 285 284 284 284 283 283 282 282 282 281 281
287 285 283 281 280 282 284 285 285 286 286 286 285 286 286 286 286 286 286 286 286 288 289 292 293 293 295 296 295 296 296 295 292 292 291 289 287 287 287 287 286 285 285 284 283 283 283 283 282 282 281 281 281 281
285 284 283 282 280 282 284 286 286 285 286 285 283 284 285 286 287 287 287 287 287 287 290 291 293 294 295 295 296 294 292 291 289 287 287 287 287 287 286 285 285 284 284 283 283 283 283 282 282 281 281 281 281 281

GFSWCAN_850_thetae_117.txt.gz
Theta_e
318 315 310 309 307 309 311 309 309 309 308 305 297 298 299 298 298 298 302 302 302 302 303 304 302 300 301 300 298 300 299 299 297 300 299 298 299 301 300 300 301 300 297 297 298 299 299 305 305 304 303 307 307 306
319 316 312 309 307 309 310 310 309 309 308 305 299 297 299 298 297 301 304 305 304 303 303 304 303 302 300 300 301 300 301 300 300 299 296 295 300 293 298 297 301 300 300 302 299 300 300 306 305 306 306 306 306 306
317 316 312 310 307 310 310 310 309 310 309 306 302 296 299 298 298 303 304 305 304 303 303 303 304 304 302 300 299 300 300 301 301 303 302 298 300 297 298 297 300 300 301 300 301 300 302 305 306 306 306 305 305 305
316 315 312 311 308 309 310 310 309 309 309 306 303 296 299 298 298 304 304 304 305 304 302 303 302 301 301 300 299 298 300 300 300 299 302 294 298 300 298 298 298 298 299 299 299 299 302 304 305 306 305 304 303 301
317 314 313 311 309 309 310 310 309 309 309 306 304 296 299 299 299 303 304 304 304 304 302 301 301 301 299 298 298 298 297 298 298 299 296 297 299 297 295 295 294 299 299 299 299 301 301 303 304 305 305 304 302 300
316 315 314 312 310 309 310 310 309 309 308 306 303 296 300 300 300 303 303 304 304 303 301 296 301 301 300 298 297 298 297 297 299 301 300 301 300 298 295 296 298 300 301 302 302 303 303 304 303 304 303 302 300 299
316 316 314 313 312 310 310 310 309 309 307 306 300 298 299 300 299 303 304 304 304 302 301 301 299 297 297 297 297 297 297 298 298 300 299 299 298 299 291 297 299 303 302 301 302 302 302 302 302 302 301 300 298 297
314 314 315 313 312 311 311 310 309 308 307 306 298 299 299 300 299 300 304 303 303 302 301 301 296 296 296 296 297 297 297 297 298 299 299 297 297 296 296 297 301 300 302 302 301 301 302 302 301 300 299 298 297 298
313 313 314 312 312 312 311 310 309 308 306 299 298 299 299 299 299 299 301 303 303 300 301 300 296 294 295 297 298 297 298 294 297 295 296 297 295 296 297 298 300 301 301 302 301 301 301 301 300 299 298 297 297 298
313 312 313 312 312 311 309 309 308 307 302 298 299 299 300 299 299 299 298 301 301 300 299 298 299 295 296 297 296 296 297 295 293 297 297 296 297 299 300 302 302 303 301 301 299 299 299 300 300 299 298 298 298 298
313 312 311 311 311 311 309 308 308 304 299 299 299 299 299 299 299 299 300 299 299 298 298 299 300 294 297 294 294 298 291 290 289 294 295 293 296 297 304 302 301 300 301 300 300 300 300 300 299 299 298 297 298 297
313 312 311 310 310 309 308 308 307 301 299 298 299 299 298 298 299 298 299 298 298 299 299 298 299 302 298 299 297 296 295 293 295 295 292 292 296 301 301 301 301 300 300 300 300 299 299 300 299 299 298 297 298 297
312 311 310 310 309 308 308 308 304 300 298 298 299 299 298 297 299 299 300 300 301 298 299 299 295 300 298 299 297 294 297 297 294 290 294 294 299 304 303 301 300 300 300 300 299 299 299 299 299 299 298 298 297 296
311 310 309 309 308 308 307 306 299 299 298 298 298 297 297 298 298 299 296 297 301 301 300 300 296 297 298 298 296 299 297 294 291 292 294 295 304 307 303 301 299 299 299 299 299 299 299 299 298 298 297 297 295 295
310 309 308 308 307 307 306 301 299 298 298 298 298 299 299 297 298 298 300 300 302 301 299 298 296 297 294 299 296 295 293 294 295 295 296 304 305 304 304 301 298 298 298 298 299 299 299 298 298 298 297 295 295 296
308 308 307 307 306 305 301 299 298 298 298 298 297 298 296 296 294 298 300 302 301 300 300 300 294 298 300 298 297 295 293 293 294 294 303 303 303 303 302 299 298 298 298 298 299 299 298 298 297 296 295 296 295 295
307 306 306 305 304 301 299 298 297 298 298 297 297 298 298 298 298 300 301 302 300 299 296 293 297 298 295 297 296 294 292 293 298 303 302 303 304 303 301 299 297 297 298 299 299 298 298 297 296 294 296 296 295 295
305 303 303 303 299 298 298 298 298 299 296 296 294 296 299 300 298 298 300 301 299 299 300 295 299 295 295 292 292 293 298 303 304 305 305 303 302 302 299 299 297 297 298 298 298 298 297 296 295 296 296 295 295 294
302 301 300 299 298 297 298 297 298 296 296 297 298 299 299 299 300 300 300 300 300 301 301 298 295 296 295 292 293 302 303 303 304 305 303 301 300 300 299 297 297 297 297 298 297 297 296 296 297 296 295 295 295 293
300 299 299 298 297 299 297 295 298 297 293 296 298 298 299 299 299 300 300 299 299 299 295 295 296 298 299 303 302 301 302 301 301 299 299 298 297 297 297 297 296 297 297 297 297 296 296 295 295 295 294 293 292 291
298 297 298 297 298 299 297 295 296 297 297 296 296 297 296 296 297 297 297 298 298 296 298 300 300 300 301 301 302 303 298 299 297 298 298 297 296 296 296 297 297 297 297 296 295 295 295 295 294 293 293 291 290 289
298 297 297 297 298 294 294 294 295 295 295 295 296 296 293 293 295 296 296 296 296 298 298 299 299 299 300 300 301 299 298 297 296 296 296 298 297 296 296 296 297 297 296 296 295 295 294 294 293 293 292 290 289 288
298 298 298 297 294 293 291 294 293 293 295 295 294 294 292 291 294 295 295 295 297 298 298 298 299 299 300 300 299 299 299 302 297 295 296 296 296 295 295 296 297 297 295 295 295 295 295 294 294 293 292 290 289 287
298 298 296 295 293 290 292 292 293 293 293 294 293 292 290 294 293 294 294 289 296 297 297 298 298 299 298 297 298 298 297 296 296 295 295 295 295 295 296 296 297 296 296 295 295 295 295 294 294 293 291 291 290 288
298 296 296 293 291 289 290 291 290 286 287 285 283 289 291 292 291 292 288 291 296 297 297 297 297 297 297 297 300 300 296 295 296 296 294 294 295 295 296 297 296 295 295 295 295 295 295 294 293 292 291 291 289 288
295 292 293 291 291 288 287 289 286 285 285 284 285 284 290 288 290 291 290 296 297 297 297 296 296 296 297 297 299 299 297 295 297 296 294 294 297 298 297 295 294 294 295 295 296 295 294 293 292 291 290 288 286 285
292 290 290 291 292 291 289 288 291 287 285 288 286 287 291 294 291 291 293 293 295 296 296 296 297 296 297 295 298 300 299 297 296 295 294 296 298 298 298 297 297 297 296 296 294 294 293 292 290 288 286 285 284 284
291 290 290 288 286 290 286 286 286 289 289 288 287 288 289 289 293 290 290 289 292 293 295 295 295 296 296 296 298 298 296 295 295 295 295 295 296 296 297 297 296 296 295 293 292 291 289 287 286 286 285 284 284 283
285 290 291 283 282 282 283 287 286 288 290 290 287 287 287 290 289 289 289 289 290 292 292 293 294 295 296 297 296 296 296 296 295 294 295 295 296 295 295 294 294 293 292 291 288 286 286 286 285 285 284 283 283 283
287 290 284 278 282 284 281 285 285 287 289 289 288 287 287 287 288 287 287 288 289 290 291 292 294 295 296 295 294 293 294 295 296 298 298 297 296 294 293 293 292 290 288 286 287 287 285 285 284 284 283 283 283 282
290 288 281 278 278 281 282 284 285 287 288 288 287 287 286 287 287 287 287 287 289 289 290 290 291 293 296 295 295 294 294 295 295 295 296 296 296 293 293 290 288 287 287 287 286 285 285 284 284 283 283 282 282 281
287 281 279 279 278 282 284 285 286 286 286 287 286 286 286 285 286 287 287 286 287 288 289 289 291 292 294 296 296 296 296 295 296 296 294 294 293 292 288 287 286 287 286 285 284 284 283 284 283 283 282 282 281 281
284 283 282 280 282 281 284 285 285 284 286 285 284 284 285 286 285 288 287 286 286 288 288 289 290 292 295 295 296 295 295 297 296 293 293 293 291 288 287 287 286 285 285 284 284 283 283 283 282 282 282 281 281 281